[[{"header":{"parameterUnit":"m.s-1","parameterCategory":1,"la1":30.6,"la2":28.766,"lo1":-90.7593,"lo2":-88.6598,"dy":0.0162,"dx":0.0183,"nx":116,"ny":114,"refTime":"2023-09-08T18:00:00:Z","depth":0,"parameterNumber":2,"parameterNumberName":"U-component_of_WINDS"},"data":[0.0,0.0,0.0,0.0,0.0,0.0,0.0,0.0,0.0,0.0,0.0,0.0,0.0,0.0,0.0,0.0,0.0,0.0,0.0,0.0,0.0,0.0,0.0,0.0,0.0,0.0,0.0,0.0,0.0,0.0,0.0,0.0,0.0,0.0,0.0,0.0,0.0,0.0,0.0,0.0,0.0,0.0,0.0,0.0,0.0,0.0,0.0,0.0,0.0,0.0,0.0,0.0,0.0,0.0,0.0,0.0,0.0,0.0,0.0,0.0,0.0,0.0,0.0,0.0,0.0,0.0,0.0,0.0,0.0,0.0,0.0,0.0,0.0,0.0,0.0,0.0,0.0,0.0,0.0,0.0,0.0,0.0,0.0,0.0,0.0,0.0,0.0,0.0,0.0,0.0,0.0,0.0,0.0,0.0,0.0,0.0,0.0,0.0,0.0,0.0,0.0,0.0,0.0,0.0,0.0,0.0,0.0,0.0,0.0,0.0,0.0,0.0,0.0,0.0,0.0,0.0,0.0,0.0,0.0,0.0,0.0,0.0,0.0,0.0,0.0,0.0,0.0,0.0,0.0,0.0,0.0,0.0,0.0,0.0,0.0,0.0,0.0,0.0,0.0,0.0,0.0,0.0,0.0,0.0,0.0,0.0,0.0,0.0,0.0,0.0,0.0,0.0,0.0,0.0,0.0,0.0,0.0,0.0,0.0,0.0,0.0,0.0,0.0,0.0,0.0,0.0,0.0,0.0,0.0,0.0,0.0,0.0,0.0,0.0,0.0,0.0,0.0,0.0,0.0,0.0,0.0,0.0,0.0,0.0,0.0,0.0,0.0,0.0,0.0,0.0,0.0,0.0,0.0,0.0,0.0,0.0,0.0,0.0,0.0,0.0,0.0,0.0,0.0,0.0,0.0,0.0,0.0,0.0,0.0,0.0,0.0,0.0,0.0,0.0,0.0,0.0,0.0,0.0,0.0,0.0,0.0,0.0,0.0,0.0,0.0,0.0,0.0,0.0,0.0,0.0,0.0,0.0,0.0,0.0,0.0,0.0,0.0,0.0,0.0,0.0,0.0,0.0,0.0,0.0,0.0,0.0,0.0,0.0,0.0,0.0,0.0,0.0,0.0,0.0,0.0,0.0,0.0,0.0,0.0,0.0,0.0,0.0,0.0,0.0,0.0,0.0,0.0,0.0,0.0,0.0,0.0,0.0,0.0,0.0,0.0,0.0,0.0,0.0,0.0,0.0,0.0,0.0,0.0,0.0,0.0,0.0,0.0,0.0,0.0,0.0,0.0,0.0,0.0,0.0,0.0,0.0,0.0,0.0,0.0,0.0,0.0,0.0,0.0,0.0,0.0,0.0,0.0,0.0,0.0,0.0,0.0,0.0,0.0,0.0,0.0,0.0,0.0,0.0,0.0,0.0,0.0,0.0,0.0,0.0,0.0,0.0,0.0,0.0,0.0,0.0,0.0,0.0,0.0,0.0,0.0,0.0,0.0,0.0,0.0,0.0,0.0,0.0,0.0,0.0,0.0,0.0,0.0,0.0,0.0,0.0,0.0,0.0,0.0,0.0,0.0,0.0,0.0,0.0,0.0,0.0,0.0,0.0,0.0,0.0,0.0,0.0,0.0,0.0,0.0,0.0,0.0,0.0,0.0,0.0,0.0,0.0,0.0,0.0,0.0,0.0,0.0,0.0,0.0,0.0,0.0,0.0,0.0,0.0,0.0,0.0,0.0,0.0,0.0,0.0,0.0,0.0,0.0,0.0,0.0,0.0,0.0,0.0,0.0,0.0,0.0,0.0,0.0,0.0,0.0,0.0,0.0,0.0,0.0,0.0,0.0,0.0,0.0,0.0,0.0,0.0,0.0,0.0,0.0,0.0,0.0,0.0,0.0,0.0,0.0,0.0,0.0,0.0,0.0,0.0,0.0,0.0,0.0,0.0,0.0,0.0,0.0,0.0,0.0,0.0,0.0,0.0,0.0,0.0,0.0,0.0,0.0,0.0,0.0,0.0,0.0,0.0,0.0,0.0,0.0,0.0,0.0,0.0,0.0,0.0,0.0,0.0,0.0,0.0,0.0,0.0,0.0,0.0,0.0,0.0,0.0,0.0,0.0,0.0,0.0,0.0,0.0,0.0,0.0,0.0,0.0,0.0,0.0,0.0,0.0,0.0,0.0,0.0,0.0,0.0,0.0,0.0,0.0,0.0,0.0,0.0,0.0,0.0,0.0,0.0,0.0,0.0,0.0,0.0,0.0,0.0,0.0,0.0,0.0,0.0,0.0,0.0,0.0,0.0,0.0,0.0,0.0,0.0,0.0,0.0,0.0,0.0,0.0,0.0,0.0,0.0,0.0,0.0,0.0,0.0,0.0,0.0,0.0,0.0,0.0,0.0,0.0,0.0,0.0,0.0,0.0,0.0,0.0,0.0,0.0,0.0,0.0,0.0,0.0,0.0,0.0,0.0,0.0,0.0,0.0,0.0,0.0,0.0,0.0,0.0,0.0,0.0,0.0,0.0,0.0,0.0,0.0,0.0,0.0,0.0,0.0,0.0,0.0,0.0,0.0,0.0,0.0,0.0,0.0,0.0,0.0,0.0,0.0,0.0,0.0,0.0,0.0,0.0,0.0,0.0,0.0,0.0,0.0,0.0,0.0,0.0,0.0,0.0,0.0,0.0,0.0,0.0,0.0,0.0,0.0,0.0,0.0,0.0,0.0,0.0,0.0,0.0,0.0,0.0,0.0,0.0,0.0,0.0,0.0,0.0,0.0,0.0,0.0,0.0,0.0,0.0,0.0,0.0,0.0,0.0,0.0,0.0,0.0,0.0,0.0,0.0,0.0,0.0,0.0,0.0,0.0,0.0,0.0,0.0,0.0,0.0,0.0,0.0,0.0,0.0,0.0,0.0,0.0,0.0,0.0,0.0,0.0,0.0,0.0,0.0,0.0,0.0,0.0,0.0,0.0,0.0,0.0,0.0,0.0,0.0,0.0,0.0,0.0,0.0,0.0,0.0,0.0,0.0,0.0,0.0,0.0,0.0,0.0,0.0,0.0,0.0,0.0,0.0,0.0,0.0,0.0,0.0,0.0,0.0,0.0,0.0,0.0,0.0,0.0,0.0,0.0,0.0,0.0,0.0,0.0,0.0,0.0,0.0,0.0,0.0,0.0,0.0,0.0,0.0,0.0,0.0,0.0,0.0,0.0,0.0,0.0,0.0,0.0,0.0,0.0,0.0,0.0,0.0,0.0,0.0,0.0,0.0,0.0,0.0,0.0,0.0,0.0,0.0,0.0,0.0,0.0,0.0,0.0,0.0,0.0,0.0,0.0,0.0,0.0,0.0,0.0,0.0,0.0,0.0,0.0,0.0,0.0,0.0,0.0,0.0,0.0,0.0,0.0,0.0,0.0,0.0,0.0,0.0,0.0,0.0,0.0,0.0,0.0,0.0,0.0,0.0,0.0,0.0,0.0,0.0,0.0,0.0,0.0,0.0,0.0,0.0,0.0,0.0,0.0,0.0,0.0,0.0,0.0,0.0,0.0,0.0,0.0,0.0,0.0,0.0,0.0,0.0,0.0,0.0,0.0,0.0,0.0,0.0,0.0,0.0,0.0,0.0,0.0,0.0,0.0,0.0,0.0,0.0,0.0,0.0,0.0,0.0,0.0,0.0,0.0,0.0,0.0,0.0,0.0,0.0,0.0,0.0,0.0,0.0,0.0,0.0,0.0,0.0,0.0,0.0,0.0,0.0,0.0,0.0,0.0,0.0,0.0,0.0,0.0,0.0,0.0,0.0,0.0,0.0,0.0,0.0,0.0,0.0,0.0,0.0,0.0,0.0,0.0,0.0,0.0,0.0,0.0,0.0,0.0,0.0,0.0,0.0,0.0,0.0,0.0,0.0,0.0,0.0,0.0,0.0,0.0,0.0,0.0,0.0,0.0,0.0,0.0,0.0,0.0,0.0,0.0,0.0,0.0,0.0,0.0,0.0,0.0,0.0,0.0,0.0,0.0,0.0,0.0,0.0,0.0,0.0,0.0,0.0,0.0,0.0,0.0,0.0,0.0,0.0,0.0,0.0,0.0,0.0,0.0,0.0,0.0,0.0,0.0,0.0,0.0,0.0,0.0,0.0,0.0,0.0,0.0,0.0,0.0,0.0,0.0,0.0,0.0,0.0,0.0,0.0,0.0,0.0,0.0,0.0,0.0,0.0,0.0,0.0,0.0,0.0,0.0,0.0,0.0,0.0,0.0,0.0,0.0,0.0,0.0,0.0,0.0,0.0,0.0,0.0,0.0,0.0,0.0,0.0,0.0,0.0,0.0,0.0,0.0,0.0,0.0,0.0,0.0,0.0,0.0,0.0,0.0,0.0,0.0,0.0,0.0,0.0,0.0,0.0,0.0,0.0,0.0,0.0,0.0,0.0,0.0,0.0,0.0,0.0,0.0,0.0,0.0,0.0,0.0,0.0,0.0,0.0,0.0,0.0,0.0,0.0,0.0,0.0,0.0,0.0,0.0,0.0,0.0,0.0,0.0,0.0,0.0,0.0,0.0,0.0,0.0,0.0,0.0,0.0,0.0,0.0,0.0,0.0,0.0,0.0,0.0,0.0,0.0,0.0,0.0,0.0,0.0,0.0,0.0,0.0,0.0,0.0,0.0,0.0,0.0,0.0,0.0,0.0,0.0,0.0,0.0,0.0,0.0,0.0,0.0,0.0,0.0,0.0,0.0,0.0,0.0,0.0,0.0,0.0,0.0,0.0,0.0,0.0,0.0,0.0,0.0,0.0,0.0,0.0,0.0,0.0,0.0,0.0,0.0,0.0,0.0,0.0,0.0,0.0,0.0,0.0,0.0,0.0,0.0,0.0,0.0,0.0,0.0,0.0,0.0,0.0,0.0,0.0,0.0,0.0,0.0,0.0,0.0,0.0,0.0,0.0,0.0,0.0,0.0,0.0,0.0,0.0,0.0,0.0,0.0,0.0,0.0,0.0,0.0,0.0,0.0,0.0,0.0,0.0,0.0,0.0,0.0,0.0,0.0,0.0,0.0,0.0,0.0,0.0,0.0,0.0,0.0,0.0,0.0,0.0,0.0,0.0,0.0,0.0,0.0,0.0,0.0,0.0,0.0,0.0,0.0,0.0,0.0,0.0,0.0,0.0,0.0,0.0,0.0,0.0,0.0,0.0,0.0,0.0,0.0,0.0,0.0,0.0,0.0,0.0,0.0,0.0,0.0,0.0,0.0,0.0,0.0,0.0,0.0,0.0,0.0,0.0,0.0,0.0,0.0,0.0,0.0,0.0,0.0,0.0,0.0,0.0,0.0,0.0,0.0,0.0,0.0,0.0,0.0,0.0,0.0,0.0,0.0,0.0,0.0,0.0,0.0,0.0,0.0,0.0,0.0,0.0,0.0,0.0,0.0,0.0,0.0,0.0,0.0,0.0,0.0,0.0,0.0,0.0,0.0,0.0,0.0,0.0,0.0,0.0,0.0,0.0,0.0,0.0,0.0,0.0,0.0,0.0,0.0,0.0,0.0,0.0,0.0,0.0,0.0,0.0,0.0,0.0,0.0,0.0,0.0,0.0,0.0,0.0,0.0,0.0,0.0,0.0,0.0,0.0,0.0,0.0,0.0,0.0,0.0,0.0,0.0,0.0,0.0,0.0,0.0,0.0,0.0,0.0,0.0,0.0,0.0,0.0,0.0,0.0,0.0,0.0,0.0,0.0,0.0,0.0,0.0,0.0,0.0,0.0,0.0,0.0,0.0,0.0,0.0,0.0,0.0,0.0,0.0,0.0,0.0,0.0,0.0,0.0,0.0,0.0,0.0,0.0,0.0,0.0,0.0,0.0,0.0,0.0,0.0,0.0,0.0,0.0,0.0,0.0,0.0,0.0,0.0,0.0,0.0,0.0,0.0,0.0,0.0,0.0,0.0,0.0,0.0,0.0,0.0,0.0,0.0,0.0,0.0,0.0,0.0,0.0,0.0,0.0,0.0,0.0,0.0,0.0,0.0,0.0,0.0,0.0,0.0,0.0,0.0,0.0,0.0,0.0,0.0,0.0,0.0,0.0,0.0,0.0,0.0,0.0,0.0,0.0,0.0,0.0,0.0,0.0,-3.3954,0.0,0.0,0.0,0.0,0.0,0.0,0.0,0.0,0.0,0.0,0.0,0.0,0.0,0.0,0.0,0.0,0.0,0.0,0.0,0.0,0.0,0.0,0.0,0.0,0.0,0.0,0.0,0.0,0.0,0.0,0.0,0.0,0.0,0.0,0.0,0.0,0.0,0.0,0.0,1.6193,1.361,1.0234,1.1272,1.2079,1.2626,0.0,0.0,0.0,0.0,0.0,0.0,0.0,0.0,0.0,0.0,0.0,0.0,0.0,0.0,0.0,0.0,0.0,0.0,0.0,0.0,0.0,0.0,0.0,0.0,0.0,0.0,0.0,0.0,0.0,0.0,0.0,0.0,0.0,0.0,0.0,0.0,0.0,0.0,0.0,0.0,0.0,0.0,0.0,0.0,0.0,0.0,0.0,0.0,0.0,0.0,0.0,0.0,0.0,0.0,0.0,0.0,0.0,0.0,0.0,0.0,0.0,0.0,0.0,0.0,0.0,0.0,0.0,0.0,0.0,0.0,0.0,-3.4799,0.0,0.0,0.0,0.0,0.0,0.0,0.0,0.0,0.0,0.0,0.0,0.0,0.0,0.0,0.0,0.0,0.0,0.0,0.0,0.0,0.0,0.0,0.0,0.0,3.0182,3.0525,3.0458,0.0,0.0,0.0,0.0,0.0,0.0,0.0,0.0,2.0226,1.774,1.5393,1.3342,0.8579,0.1412,0.0536,0.1876,0.5103,0.5188,0.0,0.0,0.0,0.0,0.0,0.0,0.0,0.0,0.0,0.0,0.0,0.0,0.0,0.0,0.0,0.0,0.0,0.0,0.0,0.0,0.0,0.0,0.0,0.0,0.0,0.0,0.0,0.0,0.0,0.0,0.0,0.0,0.0,0.0,0.0,0.0,0.0,0.0,0.0,0.0,0.0,0.0,0.0,0.0,0.0,0.0,0.0,0.0,0.0,0.0,0.0,0.0,0.0,0.0,0.0,0.0,0.0,0.0,0.0,0.0,0.0,0.0,0.0,-4.353,-4.3294,-4.1184,-4.2825,-4.2528,-4.0612,-3.9121,-3.8419,-3.8192,0.0,0.0,0.0,0.0,0.0,0.0,0.0,0.0,0.0,0.0,0.0,0.0,0.0,0.0,0.0,0.0,0.0,0.0,0.0,0.0,0.0,0.0,2.9861,2.9941,3.1468,3.0917,3.0443,0.0,0.0,0.0,0.0,0.0,0.0,2.078,1.9405,1.7234,1.4238,0.6756,-0.0995,-0.8858,-0.8884,-0.9214,-0.9576,-0.4807,-0.259,-0.2376,0.0,0.0,0.0,0.0,0.0,0.0,0.0,0.0,0.0,0.0,0.0,0.0,0.0,0.0,0.0,0.0,0.0,0.0,0.0,0.0,0.0,0.0,0.0,0.0,0.0,0.0,0.0,0.0,0.0,0.0,0.0,0.0,0.0,0.0,0.0,0.0,0.0,0.0,0.0,0.0,0.0,-3.5014,-3.5074,0.0,0.0,0.0,0.0,0.0,0.0,0.0,0.0,0.0,0.0,0.0,0.0,0.0,0.0,-4.106,-4.381,-4.5114,-4.4962,-4.6537,-4.6983,-4.6393,-4.6396,-4.6209,-4.586,-4.4699,0.0,-3.9206,-3.8771,0.0,0.0,0.0,0.0,0.0,0.0,0.0,0.0,0.0,0.0,0.0,0.0,0.0,0.0,0.0,0.0,0.0,0.0,0.0,0.0,0.0,3.0468,3.1086,3.1841,3.2872,3.2628,3.0645,0.0,0.0,0.0,0.0,2.4421,2.0841,1.4992,0.8158,0.0281,-0.479,-1.0144,-1.5733,-1.5771,-1.7012,-1.9076,-1.5458,-1.1736,-0.8147,-0.7795,0.0,0.0,0.0,0.0,0.0,0.0,0.0,0.0,0.0,0.0,0.0,0.0,0.0,0.0,0.0,0.0,0.0,0.0,0.0,0.0,0.0,0.0,0.0,0.0,0.0,0.0,0.0,0.0,0.0,0.0,0.0,0.0,0.0,0.0,0.0,0.0,0.0,0.0,0.0,-3.5026,-3.6599,-3.559,-3.6281,-3.6109,0.0,0.0,0.0,0.0,0.0,0.0,0.0,0.0,0.0,-4.1855,-4.2781,-4.3476,-4.4045,-4.6168,-4.7188,-4.7093,-4.8497,-4.8855,-4.8311,-4.8458,-4.8291,-4.7831,-4.714,-4.5401,-4.2814,-4.0835,-3.9099,-3.7494,0.0,0.0,0.0,0.0,0.0,-3.3665,0.0,0.0,0.0,0.0,0.0,0.0,0.0,0.0,0.0,0.0,0.0,0.0,3.0057,3.1208,3.2285,3.3102,3.4513,3.4046,3.095,3.0559,0.0,0.0,2.5703,2.3554,2.0396,1.0548,-0.0643,-1.3076,-1.4355,-1.7249,-2.1696,-2.1504,-2.2578,-2.4682,-2.3121,-1.9168,-1.3618,-1.3194,-1.2291,-1.1193,0.0,0.0,0.0,0.0,0.0,0.0,0.0,0.0,0.0,0.0,0.0,0.0,0.0,0.0,0.0,0.0,0.0,0.0,0.0,0.0,0.0,0.0,0.0,0.0,0.0,0.0,0.0,0.0,0.0,0.0,0.0,0.0,0.0,0.0,0.0,0.0,0.0,-3.6776,-3.8323,-3.635,-3.8135,-3.8427,0.0,0.0,0.0,0.0,0.0,0.0,-4.2375,-4.2604,-4.3446,-4.5071,-4.5312,-4.5945,-4.7113,-4.8362,-4.8852,-4.8649,-4.9332,-4.9362,-4.8777,-4.8895,-4.864,-4.8048,-4.772,-4.6909,-4.5553,-4.2632,-4.0673,-3.93,-3.7127,-3.6433,-3.6613,-3.6592,-3.6615,-3.6797,0.0,0.0,0.0,0.0,0.0,0.0,0.0,0.0,0.0,0.0,0.0,3.0057,3.1514,3.1766,3.3035,3.6093,3.5035,3.3332,3.1293,2.8925,2.6669,2.458,2.3675,2.1673,1.8312,0.7345,-0.5558,-2.0347,-1.8508,-2.0924,-2.7284,-2.6211,-2.5667,-2.5631,-2.5676,-2.3156,-1.8805,-1.6738,-1.5965,-1.5818,-1.3459,0.0,0.0,0.0,0.0,0.0,0.0,0.0,0.0,0.0,0.0,0.0,0.0,0.0,0.0,0.0,0.0,0.0,0.0,0.0,0.0,0.0,0.0,0.0,0.0,0.0,0.0,0.0,0.0,0.0,0.0,0.0,0.0,0.0,0.0,0.0,0.0,0.0,0.0,-3.809,-4.1375,0.0,0.0,0.0,0.0,-4.1418,-4.2335,-4.3309,-4.4311,-4.5072,-4.6144,-4.7582,-4.9023,-4.983,-4.991,-5.0363,-5.0323,-4.9795,-4.8813,-4.8277,-4.8202,-4.7148,-4.6648,-4.661,-4.6311,-4.6011,-4.5625,-4.4393,-4.2538,-4.0365,-3.9497,-3.8719,-3.8176,-3.8936,-3.8942,-3.8623,0.0,0.0,0.0,0.0,0.0,0.0,0.0,0.0,0.0,2.8457,2.857,2.8998,3.002,3.1445,3.2774,3.3931,3.4525,3.3184,2.915,2.7838,2.5943,2.3082,2.0898,1.4101,0.201,-0.1688,-1.0919,-2.6051,-2.6071,-2.7104,-2.8959,-2.8054,-2.7339,-2.6883,-2.5892,-2.42,-2.1962,-2.0649,-1.8802,-1.6684,-1.5725,-1.49,0.0,0.0,0.0,0.0,0.0,0.0,0.0,0.0,0.0,0.0,0.0,0.0,0.0,0.0,0.0,0.0,0.0,0.0,0.0,0.0,0.0,0.0,0.0,0.0,0.0,0.0,0.0,0.0,0.0,0.0,0.0,0.0,0.0,0.0,0.0,0.0,0.0,-4.1654,-4.5086,0.0,-4.2905,-4.3582,-4.4246,-4.4276,-4.5643,-4.6878,-4.7796,-4.813,-4.8496,-4.9007,-4.875,-4.8834,-4.927,-4.8729,-4.8578,-4.8786,-4.7878,-4.7425,-4.7406,-4.7016,-4.6806,-4.6806,-4.6499,-4.5986,-4.5404,-4.4674,-4.376,-4.2737,-4.1959,-4.147,-4.1252,-4.1542,-4.1353,-4.0985,0.0,0.0,0.0,0.0,0.0,0.0,0.0,0.0,2.759,2.8372,2.8671,2.9077,2.9795,3.1418,3.247,3.2514,3.3269,3.1807,2.7159,2.5875,2.4057,2.1339,1.9504,1.0251,-0.749,-0.6258,-1.332,-2.9436,-2.9506,-2.9228,-2.8615,-2.7547,-2.658,-2.5693,-2.5075,-2.3987,-2.2675,-2.2533,-2.0867,-1.8137,-1.7376,-1.6443,-1.5488,0.0,0.0,0.0,0.0,0.0,0.0,0.0,0.0,0.0,0.0,0.0,0.0,0.0,0.0,0.0,0.0,0.0,0.0,0.0,0.0,0.0,0.0,0.0,0.0,0.0,0.0,0.0,0.0,0.0,0.0,0.0,0.0,0.0,0.0,0.0,-4.5667,-4.402,-4.7697,-4.9052,-4.5665,-4.6596,-4.7317,-4.7069,-4.8426,-4.9547,-5.0181,-4.992,-4.9846,-5.0026,-4.8638,-4.8238,-4.8945,-4.7782,-4.7351,-4.755,-4.6892,-4.643,-4.6167,-4.6167,-4.6167,-4.6119,-4.5915,-4.5457,-4.4861,-4.4404,-4.4072,-4.3777,-4.3137,-4.2882,-4.2882,-4.2882,-4.2711,-4.2382,0.0,0.0,0.0,0.0,0.0,0.0,0.0,2.8053,2.8315,2.9082,2.9718,3.0381,3.1047,3.1697,3.2089,3.2127,3.1141,2.9035,2.5502,2.3007,2.087,1.9211,1.9443,1.0766,-0.819,-0.5601,-1.2565,-2.998,-2.811,-2.6964,-2.6505,-2.4879,-2.3382,-2.2074,-2.3277,-2.2728,-2.0942,-2.2218,-2.194,-2.0339,-1.8284,-1.7115,-1.66,0.0,0.0,0.0,0.0,0.0,0.0,0.0,0.0,0.0,0.0,0.0,0.0,0.0,0.0,0.0,0.0,0.0,0.0,0.0,0.0,0.0,0.0,0.0,0.0,0.0,0.0,0.0,0.0,0.0,0.0,0.0,0.0,0.0,-4.1049,-4.4641,-4.6702,-4.5091,-4.9207,-5.0843,-4.7481,-4.94,-5.053,-4.98,-5.053,-5.1047,-5.1144,-5.0328,-5.0098,-5.0587,-4.8927,-4.839,-4.9124,-4.7867,-4.6928,-4.6317,-4.587,-4.5247,-4.4515,-4.4496,-4.4515,-4.4515,-4.4515,-4.4335,-4.4091,-4.3809,-4.3545,-4.3267,-4.2995,-4.2882,-4.2882,-4.2882,-4.2864,-4.2643,0.0,0.0,0.0,0.0,0.0,0.0,0.0,2.7192,2.7445,2.8225,2.8356,2.8632,2.9247,2.9437,2.9255,2.8579,2.7274,2.5421,2.2883,2.1027,1.8508,1.5108,1.5363,1.0743,0.0362,-0.4608,-1.0844,-1.8538,-2.3914,-2.5976,-2.4893,-2.3371,-2.2463,-2.2043,-2.1586,-2.0904,-2.0128,-2.0477,-2.0067,-1.9046,-1.8708,-1.8151,-1.7562,0.0,0.0,0.0,0.0,0.0,0.0,0.0,0.0,0.0,0.0,0.0,0.0,0.0,0.0,0.0,0.0,0.0,0.0,0.0,0.0,0.0,0.0,0.0,0.0,0.0,0.0,0.0,0.0,0.0,0.0,0.0,0.0,-4.2451,-4.3622,-4.6983,-4.9357,-4.9478,-5.1765,-5.2697,-5.1066,-5.1552,-5.163,-5.0841,-5.1008,-5.0891,-5.0289,-4.9435,-4.874,-4.8257,-4.7119,-4.6839,-4.7538,-4.6455,-4.6105,-4.6445,-4.5494,-4.4921,-4.4714,-4.456,-4.4515,-4.4515,-4.4515,-4.4458,-4.4383,-4.4109,-4.3841,-4.3545,-4.3087,-4.2882,-4.2882,-4.2882,-4.252,-4.1848,0.0,0.0,0.0,0.0,0.0,0.0,0.0,2.7128,2.7607,2.8357,2.8253,2.8151,2.8324,2.8202,2.7393,2.5657,2.4496,2.2863,2.0604,1.8476,1.5811,1.233,1.4056,1.1288,0.3117,-0.2443,-0.7862,-1.3253,-2.0789,-2.3809,-2.2483,-2.1353,-2.0451,-1.9738,-1.9293,-1.8803,-1.8328,-1.8607,-1.8395,-1.7842,-1.761,-1.7509,-1.7478,-1.6853,-1.6465,-1.6415,-1.7164,-1.7897,-1.8566,-1.8759,0.0,0.0,0.0,0.0,0.0,0.0,0.0,0.0,0.0,0.0,0.0,0.0,0.0,0.0,0.0,0.0,0.0,0.0,0.0,0.0,0.0,0.0,0.0,0.0,-4.1752,-4.4501,-4.5847,-4.8072,-4.985,-5.0669,-5.1949,-5.2534,-5.1952,-5.1901,-5.1552,-5.0717,-5.0658,-5.027,-4.9396,-4.8522,-4.7986,-4.7819,-4.6589,-4.6306,-4.7066,-4.6012,-4.5703,-4.611,-4.533,-4.49,-4.4819,-4.4681,-4.4587,0.0,-4.4139,-4.4008,-4.3942,-4.3303,-4.2916,0.0,0.0,0.0,0.0,0.0,-4.1596,-4.098,0.0,0.0,0.0,0.0,0.0,0.0,0.0,2.7537,2.8333,2.9017,2.8731,2.8296,2.7904,2.7438,2.6072,2.3397,2.259,2.1189,1.8774,1.6188,1.37,1.1389,1.4381,1.2246,0.4054,0.1058,-0.3815,-1.0751,-1.7165,-2.0106,-1.9737,-1.889,-1.7779,-1.6429,-1.6749,-1.6599,-1.6045,-1.6602,-1.677,-1.6543,-1.5504,-1.582,-1.6719,-1.6155,-1.5982,-1.6117,-1.6565,-1.752,-1.854,-1.8983,0.0,0.0,0.0,0.0,0.0,0.0,0.0,0.0,0.0,0.0,0.0,0.0,0.0,0.0,0.0,0.0,0.0,0.0,0.0,0.0,0.0,0.0,0.0,0.0,-4.3944,-4.6463,-4.7322,-4.8063,-4.8845,-4.9753,-5.0544,-5.0995,-5.0917,-5.0925,-5.0595,-4.9828,-4.9759,-4.9379,-4.8505,0.0,0.0,0.0,0.0,-4.6372,-4.7136,-4.6162,-4.565,-4.5634,-4.536,-4.5065,-4.4716,-4.4668,-4.4499,-4.4195,-4.3463,-4.3144,-4.3088,-4.2062,-4.146,-4.1206,-4.1705,-4.1758,-4.147,-4.0582,-4.0256,0.0,0.0,0.0,0.0,0.0,0.0,0.0,0.0,2.7447,2.8184,2.9071,2.8235,2.7422,2.7065,2.5862,2.4322,2.2412,2.1593,2.0323,1.8366,1.7053,1.6073,1.5451,1.3915,1.3781,1.5364,0.7367,0.1522,-0.1881,-0.727,-1.2718,-1.8089,-1.5861,-1.5219,-1.5899,-1.4993,-1.4717,-1.4869,-1.4605,-1.443,-1.4259,-1.37,-1.4285,-1.5526,-1.506,-1.4693,-1.4643,-1.6068,-1.6799,-1.7257,-1.7827,-1.8555,-1.9288,-1.9889,-2.0606,0.0,0.0,0.0,0.0,0.0,0.0,0.0,0.0,0.0,0.0,0.0,0.0,0.0,0.0,0.0,0.0,0.0,0.0,0.0,-4.0896,-4.3434,-4.5545,-4.6367,-4.66,-4.7285,-4.8857,-4.9176,-4.9254,-4.9191,-4.9176,-4.9112,-4.8937,-4.8931,-4.8541,-4.7684,-4.7417,0.0,-4.6491,-4.6161,-4.6094,-4.6238,-4.6038,-4.5917,-4.5925,0.0,0.0,-4.4152,-4.3935,-4.3328,-4.246,-4.2337,-4.2262,-4.2216,-4.2021,-4.1288,-4.0357,-4.068,-4.0781,-4.0564,-3.9152,-3.8627,-3.8409,0.0,0.0,0.0,0.0,0.0,0.0,0.0,2.7063,2.7538,2.8313,2.7412,2.654,2.6098,2.5233,2.4016,2.2347,2.1053,1.9753,1.8338,1.7165,1.6582,1.6698,1.4949,1.5572,1.9003,1.1139,0.71,0.7311,0.1055,-0.3468,-0.6318,-0.7797,-0.8626,-0.9006,-1.1239,-1.2405,-1.2582,-1.223,-1.2069,-1.199,-1.1295,-1.1333,-1.2012,-1.3067,-1.3356,-1.3407,-1.4444,-1.5263,-1.5909,-1.6487,-1.7533,-1.8719,-1.9179,-2.0097,-2.1102,0.0,0.0,0.0,0.0,0.0,0.0,0.0,0.0,0.0,0.0,0.0,0.0,0.0,0.0,-3.6869,0.0,0.0,-4.1521,-4.283,-4.4492,-4.5741,-4.6147,-4.6198,-4.6514,-4.7399,-4.7496,-4.7631,-4.8008,-4.8057,-4.8053,-4.8053,-4.805,-4.7683,-4.685,-4.6781,-4.6524,-4.6054,-4.6054,-4.6036,-4.5997,-4.6005,-4.5994,-4.5991,-4.5854,-4.5461,-4.4783,-4.4113,-4.3415,-4.275,-4.1807,-4.1417,-4.1316,-4.0394,-3.961,-3.9017,-3.8478,-3.8492,-3.8663,-3.7866,-3.7323,-3.6779,0.0,0.0,0.0,0.0,0.0,0.0,0.0,0.0,2.6872,2.7539,2.6711,2.5869,2.5354,2.492,2.4046,2.2473,2.0942,1.9708,1.8867,1.7676,1.7142,1.729,1.6679,1.7355,1.9426,1.4554,1.2493,1.3571,0.8194,0.5443,0.5084,0.1016,-0.1169,-0.1844,-0.639,-0.9022,-1.0023,-0.9772,-0.9778,-0.9836,-0.899,-0.8489,-0.8444,-1.0329,-1.1373,-1.1943,-1.2523,-1.335,-1.4312,-1.4989,-1.6258,-1.7687,-1.8451,-1.9271,-2.0178,-2.129,-2.2335,0.0,0.0,0.0,0.0,0.0,0.0,0.0,0.0,0.0,-3.4544,-3.6417,-3.7445,-3.8493,-4.0088,-4.1639,-4.3164,-4.4726,-4.568,-4.6139,-4.598,-4.5941,-4.5824,-4.5483,-4.5897,-4.6386,-4.6872,-4.7081,-4.7196,-4.7196,-4.7171,-4.6876,-4.6231,-4.6206,-4.6186,-4.6125,-4.6118,-4.6084,-4.6018,-4.6008,-4.6007,-4.6003,-4.5828,-4.5538,-4.5089,-4.4035,-4.3329,-4.2796,-4.1243,-4.0572,-4.0459,-3.8932,-3.8082,-3.7649,-3.6629,-3.6182,-3.6136,-3.6268,-3.5892,-3.5113,0.0,0.0,0.0,0.0,0.0,0.0,0.0,0.0,0.0,2.7657,2.6688,2.5758,2.5353,2.4429,2.3389,2.222,2.1472,2.0814,2.0304,1.9882,1.9495,1.9126,1.8875,1.895,1.9417,1.9641,1.7226,1.205,1.3845,1.154,0.5476,0.6703,0.4525,-0.0403,-0.0498,-0.3307,-0.7902,-0.7602,-0.7677,-0.8041,-0.7548,-0.7095,-0.6837,-0.6682,-0.7858,-0.9714,-1.0995,-1.1633,-1.2034,-1.327,-1.3925,-1.462,-1.6287,-1.7138,-1.7966,-2.0318,-2.1444,-2.2425,-2.471,-2.697,-2.9072,-3.0772,-3.1298,-3.2417,0.0,0.0,-3.7324,-3.9889,-4.05,-4.091,-4.1933,-4.291,-4.3857,-4.4754,-4.5644,-4.5928,-4.515,-4.504,-4.4475,-4.2922,-4.4782,-4.5933,-4.5254,-4.5932,-4.6429,-4.6429,-4.6366,-4.6289,-4.6191,-4.6198,-4.6202,-4.6195,-4.6195,-4.6153,-4.6091,-4.6084,-4.6072,-4.5997,-4.5226,-4.4342,-4.3347,-4.2453,-4.1414,-4.0298,-3.9892,-3.9733,-3.9708,-3.9521,-3.8396,-3.6812,-3.6694,-3.5135,-3.3068,-3.3597,-3.3755,-3.3447,0.0,0.0,0.0,0.0,0.0,0.0,0.0,0.0,0.0,0.0,2.6273,2.5538,2.4801,2.3976,2.3153,2.2395,2.189,2.1383,2.0879,2.0585,2.0436,2.0438,2.0286,2.042,2.0863,2.1483,2.0713,1.8431,2.013,1.953,1.6746,1.4837,1.27,1.0315,0.722,0.451,0.2112,-0.0452,-0.1727,-0.2081,-0.4277,-0.5129,-0.5159,-0.4982,-0.5001,-0.5297,-0.6991,-0.8052,0.0,-0.9198,-1.0255,-1.1621,-1.2746,-1.409,-1.5472,-1.7039,-1.8627,-2.064,-2.4239,-2.7504,-3.0004,-3.049,-3.2218,-3.4264,-3.6134,-3.722,-3.8275,-3.9867,-4.0563,-4.1039,-4.154,-4.2714,-4.3846,0.0,-4.515,-4.5293,-4.4848,-4.3934,-4.2864,-4.1638,-4.2836,-4.388,-4.4178,-4.4972,-4.5703,-4.6261,-4.627,-4.6256,-4.6261,-4.6267,-4.6016,-4.5463,-4.5444,-4.5199,-4.4646,-4.4617,-4.4557,-4.4545,-4.419,-4.3749,-4.3233,-4.2251,-4.1104,-3.984,-3.8764,-3.8233,-3.8042,-3.6592,-3.5514,-3.4708,-3.4011,-3.3025,-3.2034,-3.2648,-3.251,-3.1836,0.0,0.0,0.0,0.0,0.0,0.0,0.0,0.0,0.0,0.0,0.0,2.5148,2.4321,2.3667,2.3116,2.2678,2.2281,2.1911,2.1521,2.1275,2.1259,2.1488,2.1383,2.1491,2.194,2.222,2.2626,2.3155,2.3877,2.4441,2.4763,2.1405,1.9276,1.8093,1.3961,1.1282,0.9723,0.6349,0.4943,0.4607,0.0411,-0.1204,-0.1268,-0.2493,-0.221,-0.1453,-0.3484,-0.4778,-0.5581,-0.5647,-0.6806,-0.83,-0.9337,-1.088,-1.2589,-1.3997,-1.642,-1.953,-2.3203,-2.6792,-2.9599,-3.0111,-3.2333,-3.462,-3.5427,-3.6677,-3.7883,-3.8663,-3.9316,-3.9779,-3.9903,-4.1279,-4.2641,-4.3469,-4.4061,-4.4316,-4.3984,-4.2684,-4.1451,-4.0587,-4.0953,-4.1694,-4.2773,-4.3825,-4.4832,-4.5741,-4.5855,-4.5982,-4.6221,-4.6039,-4.5629,-4.4958,-4.4686,-4.4258,-4.3615,-4.3552,-4.3518,-4.35,-4.3292,-4.3132,-4.3022,-4.1706,-4.0444,-3.9201,-3.7696,-3.6814,-3.6254,-3.447,-3.3456,-3.2947,-3.2073,-3.1413,-3.0964,-3.1409,-3.1042,-3.0224,0.0,0.0,0.0,0.0,0.0,0.0,0.0,0.0,0.0,0.0,0.0,0.0,0.0,2.358,2.3206,2.3003,2.2685,2.247,2.246,2.2405,2.2287,2.2164,2.2108,2.2068,2.2096,2.2164,2.2485,2.31,2.359,2.4116,2.4709,2.49,2.2724,1.868,1.87,1.5924,1.1238,1.124,1.1351,1.1233,0.6749,0.5559,0.6023,0.1846,0.061,0.0835,-0.1347,-0.2317,-0.277,-0.3685,-0.4079,-0.4531,-0.6421,-0.7695,-0.9006,-1.178,-1.5768,-1.9666,-2.1509,-2.4299,-2.7423,-3.033,-3.1386,-3.2402,-3.5019,-3.5692,-3.5981,-3.6729,-3.6958,-3.7013,-3.7033,-3.8403,-3.9809,-4.0684,-4.2182,-4.2963,-4.2112,-4.126,-4.0409,-3.9553,-3.9468,-3.982,0.0,-4.2343,-4.3684,-4.4494,-4.474,-4.5183,-4.5979,-4.5392,-4.5031,-4.4992,-4.4175,-4.3681,-4.3594,-4.3593,-4.3559,-4.3481,-4.2701,-4.2296,-4.217,-4.0249,-3.8792,-3.7704,-3.6616,-3.5564,-3.4658,-3.4583,-3.3607,-3.2142,-3.2105,-3.0889,-2.9178,-2.9197,-2.8965,-2.8551,0.0,0.0,0.0,0.0,0.0,0.0,0.0,0.0,0.0,0.0,0.0,0.0,0.0,0.0,0.0,0.0,2.3157,2.2944,2.2842,2.2738,2.2685,2.2677,2.2571,2.259,2.2822,2.2982,2.3153,2.3369,2.387,2.4227,2.4435,2.4904,2.44,2.3091,2.3281,2.24,2.0603,1.7707,1.7206,1.7893,1.2769,0.9768,0.7944,0.3955,0.4831,0.7818,0.0,0.2431,0.0388,0.0222,-0.0055,-0.055,-0.1811,-0.247,-0.3553,-0.7541,-1.0896,-1.46,-2.0506,-2.3935,-2.6765,-3.0453,-3.2322,-3.3493,-3.4394,-3.4855,-3.5039,-3.4846,-3.4649,-3.4563,-3.4691,-3.5724,-3.7175,-3.9115,-3.9976,-4.0742,-4.1639,-4.0412,-3.94,-3.9292,-3.9032,0.0,0.0,0.0,0.0,-4.4408,-4.3558,-4.3596,-4.5129,-4.4436,-4.3782,-4.3294,-4.2982,-4.2558,-4.1943,-4.1933,-4.1932,-4.19,-4.1593,-4.0789,-3.9617,-3.9527,-3.86,-3.6949,-3.5369,-3.4103,-3.3034,-3.1845,-3.1016,-3.0452,-2.9756,-2.9037,-2.8292,-2.7629,-2.6881,-2.6331,0.0,0.0,0.0,0.0,0.0,0.0,0.0,0.0,0.0,0.0,0.0,0.0,0.0,0.0,0.0,0.0,0.0,2.3253,2.3175,2.3052,2.3003,2.3095,2.2952,2.2985,2.317,2.3236,2.3348,2.345,2.384,2.4135,2.4392,2.4817,2.5132,2.5332,2.5495,2.559,2.5453,2.2592,2.2216,2.3032,1.7792,1.4129,1.1488,0.8267,0.8286,0.0,0.8883,0.68,0.4368,0.3667,0.3276,0.2936,0.2,0.1236,0.0106,-0.2897,-0.5083,-0.7842,-1.3757,-1.7625,-2.0986,-2.5136,-2.8221,-3.053,-3.1653,-3.2101,-3.206,-3.136,-3.1224,-3.1222,-3.1248,-3.2422,-3.4035,-3.6046,-3.6916,-3.7978,-3.9756,-3.869,-3.808,-3.9185,-3.8797,-3.8587,0.0,0.0,0.0,-4.3158,-4.2479,-4.261,-4.4113,-4.343,-4.2792,-4.2373,-4.1768,-4.1172,-4.0639,-4.0344,-4.0195,-4.0172,-4.0101,-3.9466,-3.8336,-3.8268,-3.7364,-3.5726,-3.3943,-3.2536,-3.1417,-3.0239,-2.9549,-2.9157,-2.8521,-2.7977,-2.7461,-2.682,-2.5896,-2.5153,0.0,0.0,0.0,0.0,0.0,0.0,0.0,0.0,0.0,0.0,0.0,0.0,0.0,0.0,0.0,0.0,0.0,0.0,2.3526,2.3394,2.3365,2.3407,2.3336,2.3241,2.3102,2.2977,2.3077,2.343,2.3448,2.381,2.4501,2.4706,2.5015,2.537,2.5457,2.5543,2.5664,2.5687,2.6162,2.6539,2.182,1.8792,1.6806,1.4729,1.126,0.7869,1.0465,1.0449,0.8854,0.6627,0.5984,0.5935,0.495,0.3596,0.2314,0.2252,0.1402,-0.0,-0.229,-0.6357,-1.1023,-1.5432,-1.9831,-2.3885,-2.699,-2.7569,-2.7263,-2.6624,-2.6951,-2.7272,-2.7009,-2.8716,-3.0572,-3.1871,-3.3371,-3.5004,-3.684,-3.6344,-3.6714,0.0,0.0,0.0,0.0,0.0,0.0,-4.0851,0.0,-4.2116,-4.2975,-4.2327,-4.2021,-4.2163,-4.05,-3.9652,-3.9738,-3.8921,-3.8474,-3.8378,-3.8298,-3.8234,-3.808,-3.6462,-3.5166,-3.4088,-3.2422,-3.1015,-2.9851,-2.9836,-2.9252,-2.835,-2.8294,-2.7606,-2.663,-2.6593,-2.5873,-2.4936,0.0,0.0,0.0,0.0,0.0,0.0,0.0,0.0,0.0,0.0,0.0,0.0,0.0,0.0,0.0,0.0,0.0,0.0,2.3813,2.3667,2.358,2.3549,2.3383,2.3319,2.3318,2.3236,2.3351,2.3707,2.3055,2.3331,2.4413,2.382,2.4027,2.4883,2.5103,2.519,2.5195,2.5332,2.6278,2.7476,2.5426,2.4623,2.4329,2.1025,1.7631,1.4493,1.3317,1.1669,0.9902,0.8639,0.8371,0.8489,0.8312,0.8274,0.8442,0.9039,0.7032,0.3703,-0.0457,-0.4759,-0.929,-1.4316,-1.7765,-2.0582,-2.2969,-2.3824,-2.4252,-2.4785,-2.5084,-2.5489,-2.6189,-2.7326,-2.9208,-3.2518,-3.361,0.0,-3.7939,-3.7625,0.0,-3.8894,0.0,-3.7545,-3.9043,-3.8465,0.0,0.0,-3.9507,-4.0175,-4.1819,-4.0698,-4.0106,-4.0282,-3.9229,-3.8682,-3.8761,-3.8011,-3.7278,-3.6561,-3.6555,-3.5864,-3.4613,-3.4821,-3.4061,-3.2546,-3.1952,-3.0797,-2.9279,-2.9098,-2.8461,-2.7595,-2.6879,-2.6281,-2.5725,-2.5134,-2.4572,-2.4103,0.0,0.0,0.0,0.0,0.0,0.0,0.0,0.0,0.0,0.0,0.0,0.0,0.0,0.0,0.0,0.0,0.0,0.0,0.0,2.3896,2.3792,2.3685,2.3499,2.3389,2.3387,2.3259,2.3348,2.3718,2.3163,2.344,2.4441,2.3969,2.4139,2.4797,2.5038,2.5118,2.5061,2.5231,2.5855,0.0,0.0,2.5083,2.421,2.3049,2.0286,1.6953,1.645,1.5172,1.3581,1.2732,1.1648,1.0717,1.1328,1.179,1.2225,1.2463,1.1511,0.961,0.6188,0.2125,-0.2318,-0.728,-1.1664,-1.5612,-1.9057,-2.0311,-2.1004,-2.1958,-2.2504,-2.3123,-2.4132,-2.5302,-2.7175,0.0,0.0,0.0,-3.6048,-3.5866,-3.6097,0.0,-3.7106,0.0,-3.8177,-3.7735,-3.7599,0.0,-3.8665,-3.9364,-4.0233,-3.9497,-3.9013,-3.8946,-3.7734,-3.6762,-3.6112,-3.5739,-3.5288,-3.4763,-3.4785,-3.4289,-3.3301,-3.3414,-3.292,-3.1975,0.0,-3.0656,-2.9659,-2.9512,-2.8635,-2.7384,-2.7236,-2.6308,-2.5041,-2.4894,-2.4447,-2.3917,0.0,0.0,0.0,0.0,0.0,0.0,0.0,0.0,0.0,0.0,0.0,0.0,0.0,0.0,0.0,0.0,0.0,0.0,0.0,0.0,2.3937,2.3816,2.3638,2.3481,2.3399,2.3182,2.3228,2.3597,2.3405,2.3732,2.4499,2.4424,2.4564,2.4875,2.504,2.5107,2.5075,2.5194,2.5225,2.5152,2.4825,2.314,2.1011,0.0,2.0877,1.7348,1.8878,1.8709,1.7673,1.7166,1.5159,1.3018,1.393,1.4335,1.4413,1.3987,1.4768,1.5438,1.3906,1.036,0.6006,0.1393,-0.4371,-1.0194,-1.5219,-1.6992,-1.7865,-1.8903,-1.9855,-2.0782,-2.1724,-2.3203,-2.5056,-2.7449,0.0,-2.9913,-3.323,-3.3016,-3.3686,-3.664,-3.6237,-3.6043,-3.6914,-3.6593,-3.6399,-3.6497,-3.7924,-3.8686,-3.845,-3.8362,-3.8075,-3.754,-3.5994,-3.4525,-3.3196,-3.3128,-3.3126,-3.3124,-3.3062,-3.3026,-3.2949,-3.2194,-3.1836,-3.1773,0.0,0.0,-3.0259,-3.0123,-2.9037,-2.7542,-2.8131,-2.6849,-2.47,-2.5171,-2.4799,-2.4054,0.0,0.0,0.0,0.0,0.0,0.0,0.0,0.0,0.0,0.0,2.7536,2.6746,0.0,0.0,0.0,0.0,0.0,0.0,0.0,0.0,0.0,2.3896,2.3738,2.3584,2.3413,2.3393,2.348,2.3598,2.3071,2.3397,2.4463,2.3726,2.3855,2.4725,2.4709,2.4748,2.4846,2.4936,2.4993,2.5024,2.4792,2.4241,2.3542,2.3763,0.0,0.0,1.7559,1.6716,1.664,1.8102,1.7538,1.6193,1.584,1.5552,1.5452,1.5783,1.5697,1.5254,1.4234,1.1129,0.7052,0.2607,-0.2195,-0.6952,-1.1508,-1.397,-1.5721,-1.7422,-1.8648,-1.9839,-2.1189,-2.2362,-2.4247,-2.7448,-2.8241,-2.9793,-3.3569,-3.3125,-3.3248,0.0,-3.418,-3.3651,-3.5173,-3.4743,0.0,0.0,0.0,-3.5619,-3.6969,-3.6566,-3.5761,-3.4592,-3.3826,-3.3334,-3.3113,-3.2462,-3.2168,-3.2225,-3.1512,-3.1194,-3.1229,-3.1079,-3.0973,-3.0877,0.0,0.0,-2.9505,-2.8683,-2.8126,-2.7725,-2.6937,-2.6174,-2.5402,-2.4745,-2.4244,-2.3855,0.0,0.0,0.0,0.0,0.0,0.0,0.0,3.0528,3.0015,2.8659,2.8034,2.7044,2.5287,2.4981,2.4893,0.0,0.0,0.0,0.0,0.0,0.0,0.0,0.0,0.0,2.3813,2.362,2.3607,2.3851,0.0,2.375,2.4598,2.4072,2.4182,2.4794,2.4771,2.4727,2.47,2.4785,2.4776,2.4746,2.4576,2.432,2.4049,0.0,0.0,0.0,1.9688,1.9211,1.9244,1.9687,1.9368,1.8632,1.7845,1.7314,1.6828,1.6135,1.5899,1.5483,1.3662,1.1151,0.8075,0.399,-0.0111,-0.4348,-0.8876,-1.1625,-1.3952,-1.6163,-1.7612,-1.8741,-1.956,-2.1031,-2.281,-2.515,-2.6308,-2.8121,-3.1493,-3.1368,-3.173,-3.3785,-3.3115,-3.2824,0.0,-3.3589,0.0,0.0,0.0,0.0,-3.4456,-3.4139,-3.3431,-3.233,-3.2178,-3.1911,-3.1482,-3.1284,-3.1196,-3.1215,-3.0821,-3.0687,-3.0743,-3.076,-3.0506,-3.0057,-2.9636,0.0,-2.8696,-2.8196,-2.7641,-2.7105,-2.6975,-2.6195,-2.5153,-2.5004,-2.456,-2.4037,0.0,0.0,0.0,0.0,0.0,0.0,0.0,3.0279,2.9988,2.9264,2.8373,2.7234,2.5696,2.5249,2.5044,0.0,0.0,0.0,0.0,0.0,0.0,0.0,0.0,0.0,0.0,0.0,0.0,0.0,2.4091,0.0,0.0,0.0,0.0,0.0,2.4904,2.481,2.4676,2.4692,2.465,0.0,0.0,2.4147,0.0,0.0,0.0,0.0,0.0,2.1515,2.1358,2.0532,1.9965,1.9486,1.8866,1.8326,1.7631,1.6136,1.5854,1.5474,1.3097,1.0998,0.8654,0.5072,0.1377,-0.2531,-0.6897,-0.9833,-1.2407,-1.4891,-1.6553,-1.7652,-1.8101,-1.9641,-2.1237,-2.2448,-2.3847,-2.5867,-2.8881,-2.9165,-2.9889,0.0,-3.2059,0.0,-3.222,0.0,0.0,0.0,0.0,0.0,-3.2114,-3.1905,-3.1466,-3.0866,-3.0909,-3.062,-2.9954,-3.0215,-3.0372,-3.0453,-3.0488,-3.0477,-3.0424,-3.0414,-2.9972,-2.9199,-2.9015,0.0,0.0,-2.7921,-2.7408,-2.6784,-2.7185,-2.6388,-2.5023,-2.517,-2.482,-2.4192,0.0,0.0,0.0,0.0,0.0,0.0,0.0,2.9399,2.9399,2.9387,2.85,2.7557,2.6663,2.5746,2.5171,0.0,0.0,0.0,0.0,0.0,0.0,0.0,0.0,0.0,0.0,0.0,0.0,0.0,0.0,0.0,0.0,0.0,0.0,0.0,0.0,0.0,2.4861,2.4749,0.0,0.0,0.0,0.0,0.0,0.0,0.0,0.0,0.0,1.9971,1.9752,1.9296,1.8328,1.7335,1.7553,1.7342,1.6953,1.6542,1.5691,1.4686,1.3365,1.1193,0.8495,0.5346,0.1688,-0.2096,-0.5659,-0.8635,-1.1245,-1.3445,-1.5345,-1.685,-1.7666,-1.863,-1.9641,-2.0745,-2.1614,-2.3381,-2.693,-2.739,-2.8271,-3.0758,0.0,0.0,-3.0076,0.0,0.0,0.0,0.0,0.0,0.0,-3.0601,-3.0383,-3.0626,-3.0058,-2.9787,-2.9817,-2.9848,-2.9994,-3.024,-3.0232,-2.9979,-2.9531,-2.9526,-2.9049,-2.8195,0.0,0.0,0.0,-2.7346,-2.7336,-2.7767,-2.686,-2.6301,-2.5838,-2.4797,-2.4284,-2.3964,0.0,0.0,0.0,0.0,0.0,0.0,2.9288,2.9326,2.9465,2.994,2.8762,2.7778,2.746,2.6081,2.5222,2.5252,0.0,0.0,0.0,0.0,0.0,0.0,0.0,0.0,0.0,0.0,0.0,2.4655,0.0,0.0,0.0,0.0,0.0,0.0,0.0,0.0,0.0,0.0,0.0,0.0,0.0,0.0,0.0,0.0,0.0,0.0,0.0,0.0,1.8624,1.8271,1.7529,1.6733,1.6727,1.6345,1.5853,1.5399,1.4517,1.3521,1.2852,1.0833,0.8377,0.6063,0.2719,-0.0913,-0.4426,-0.7425,-1.007,-1.2231,-1.422,-1.5692,-1.6053,-1.7328,-1.8512,-1.9057,-2.0347,-2.2096,-2.4374,-2.5259,-2.6461,-2.8478,-2.8439,0.0,0.0,0.0,0.0,0.0,0.0,0.0,0.0,-2.8604,-2.8974,-2.91,-2.9156,-2.9204,-2.9263,-2.9624,-2.9599,-2.9251,-2.9365,-2.9071,-2.8431,-2.8521,-2.8136,-2.7368,0.0,0.0,0.0,-2.6253,-2.6223,-2.6312,-2.5821,-2.5513,-2.5239,-2.4116,-2.3618,-2.3346,0.0,0.0,0.0,0.0,0.0,2.8009,2.856,2.8824,2.9214,2.9998,2.8821,2.7913,2.7893,2.6523,2.5521,2.5321,2.5262,0.0,0.0,0.0,0.0,0.0,0.0,0.0,0.0,0.0,2.4747,2.4842,2.4839,2.4917,0.0,0.0,0.0,0.0,0.0,0.0,0.0,0.0,0.0,0.0,0.0,0.0,0.0,0.0,0.0,0.0,0.0,0.0,0.0,0.0,0.0,1.625,1.5775,1.5139,1.4498,1.4261,1.3514,1.2592,1.1736,0.9807,0.7678,0.6054,0.2943,-0.0573,-0.3512,-0.6538,-0.927,-1.134,-1.3328,-1.479,-1.4982,-1.6336,-1.7444,-1.7592,-1.8983,-2.0543,-2.2088,-2.3098,-2.4298,0.0,0.0,0.0,0.0,0.0,0.0,0.0,0.0,0.0,0.0,-2.7005,-2.7391,-2.7451,-2.781,-2.8027,-2.8072,-2.8477,-2.8501,-2.8093,-2.8237,-2.796,-2.7324,-2.721,-2.6749,-2.5993,0.0,0.0,0.0,-2.4838,-2.4732,-2.4587,-2.4438,-2.4297,-2.4087,-2.3213,-2.2836,-2.257,0.0,0.0,0.0,0.0,0.0,0.0,2.693,2.7605,2.8427,2.9294,2.8579,2.7973,2.7911,2.7045,2.6175,2.536,2.5303,0.0,0.0,0.0,0.0,0.0,0.0,0.0,0.0,0.0,2.4953,2.4898,2.4974,2.5038,2.5113,2.5168,0.0,0.0,0.0,0.0,0.0,0.0,0.0,0.0,0.0,0.0,0.0,0.0,0.0,0.0,0.0,0.0,0.0,0.0,0.0,0.0,0.0,1.3642,1.2913,1.3303,1.2955,1.1957,0.9951,0.8051,0.6299,0.4952,0.1857,-0.1321,-0.309,-0.6091,-0.9023,-1.0847,-1.2754,-1.4286,-1.488,-1.582,-1.6522,-1.6522,-1.7149,-1.8369,-2.0407,-2.0858,-2.1696,0.0,0.0,0.0,0.0,0.0,0.0,0.0,0.0,0.0,0.0,-2.6128,-2.5789,-2.5904,-2.5936,-2.5991,-2.6139,-2.6139,-2.6399,-2.6915,-2.6915,-2.6677,-2.6195,-2.5527,-2.4745,0.0,0.0,0.0,0.0,-2.3039,-2.298,-2.291,-2.2782,-2.2642,-2.249,-2.207,-2.1918,-2.1688,0.0,0.0,0.0,0.0,0.0,0.0,0.0,2.7117,2.7581,2.8404,2.7738,2.7144,2.7091,2.6738,2.6408,2.6217,2.6147,0.0,0.0,0.0,0.0,0.0,0.0,0.0,0.0,0.0,2.498,2.4966,2.5094,2.5122,2.5091,2.5262,2.5292,2.5187,0.0,0.0,0.0,0.0,0.0,0.0,0.0,0.0,0.0,0.0,0.0,0.0,0.0,0.0,0.0,0.0,0.0,0.0,0.0,0.0,0.0,1.2155,1.1352,1.0769,1.0383,0.8342,0.5986,0.4581,0.1922,-0.1063,-0.3572,-0.6158,-0.8476,-1.0187,-1.2092,-1.3521,-1.3711,-1.4926,-1.5901,-1.5901,-1.6784,-1.7709,0.0,0.0,0.0,-2.2325,0.0,0.0,0.0,0.0,0.0,0.0,0.0,0.0,0.0,-2.3733,-2.4374,-2.5987,-2.5746,-2.5578,-2.5612,-2.5846,-2.5547,-2.4716,-2.4855,-2.4369,-2.3333,-2.3289,0.0,0.0,0.0,0.0,0.0,-2.3021,-2.2984,-2.2941,-2.2724,-2.2614,-2.2451,-2.1512,-2.0775,-2.0096,0.0,0.0,0.0,0.0,0.0,0.0,0.0,2.7227,2.7713,2.8481,2.8113,2.775,2.7686,2.7586,2.7412,2.7152,2.7033,0.0,0.0,0.0,0.0,0.0,0.0,0.0,0.0,2.5076,2.5044,2.5069,2.5164,2.5179,2.5149,2.5293,2.5302,2.5195,2.505,0.0,0.0,0.0,0.0,0.0,0.0,0.0,2.2947,0.0,0.0,0.0,0.0,0.0,0.0,0.0,0.0,0.0,0.0,0.0,0.0,0.0,1.0275,0.9455,0.9387,0.7357,0.4959,0.3556,0.1138,-0.1605,-0.4123,-0.6338,-0.8377,-1.0092,-1.1864,-1.3208,-1.3457,-1.449,-1.5289,-1.5322,-1.5987,-1.6671,0.0,0.0,0.0,-2.0566,0.0,0.0,0.0,0.0,0.0,0.0,0.0,0.0,0.0,0.0,-2.3207,-2.474,-2.4442,-2.4222,-2.4205,-2.4292,-2.3898,-2.3034,-2.2984,-2.2557,-2.1888,-2.1811,0.0,0.0,0.0,0.0,0.0,-2.1662,-2.1717,-2.1973,-2.1446,-2.1224,-2.1091,-2.0245,-1.934,-1.8453,0.0,0.0,0.0,0.0,0.0,0.0,0.0,2.7691,2.847,2.9216,2.9327,2.9285,2.9226,2.9157,2.885,2.8144,0.0,0.0,0.0,0.0,0.0,0.0,0.0,0.0,0.0,2.5118,2.5118,2.5206,2.5248,2.5278,2.5297,2.5407,2.5395,2.5275,2.5127,2.495,2.4734,2.4338,2.4077,2.3896,2.3828,2.3359,0.0,0.0,0.0,0.0,0.0,0.0,0.0,0.0,0.0,0.0,0.0,0.0,0.0,0.0,0.0,0.0,0.0,0.5364,0.3421,0.2038,-0.0277,-0.2724,-0.4689,-0.6689,0.0,-1.0348,-1.1913,-1.315,-1.3747,-1.4362,-1.48,-1.4824,-1.488,-1.5428,0.0,-1.7202,0.0,0.0,0.0,0.0,0.0,0.0,0.0,0.0,0.0,0.0,0.0,0.0,-2.2183,-2.2409,-2.235,-2.2271,-2.2124,-2.1867,-2.1725,-2.1697,-2.1277,-2.1202,-2.1477,-2.0917,0.0,0.0,0.0,0.0,0.0,-1.9403,-1.9564,-2.0215,-1.9272,-1.8875,-1.8781,-1.8514,-1.7763,-1.6851,0.0,0.0,0.0,0.0,0.0,0.0,0.0,0.0,0.0,0.0,2.8517,2.8457,2.8398,2.8378,2.8485,0.0,0.0,0.0,0.0,0.0,0.0,0.0,0.0,0.0,0.0,2.5031,2.5025,2.5203,2.5717,2.6028,2.6129,2.6753,2.6689,2.6028,2.5844,2.5239,2.432,2.4191,2.4016,2.3816,2.3747,2.3312,0.0,0.0,0.0,0.0,2.0731,2.033,0.0,0.0,0.0,0.0,0.0,0.0,0.0,0.0,0.8365,0.6834,0.5712,0.0,0.2985,0.1067,-0.0818,-0.2781,0.0,-0.6919,-0.8469,-0.9747,-1.1516,-1.2763,-1.2589,-1.3708,-1.4539,-1.4239,-1.4553,-1.5074,-1.5891,0.0,0.0,0.0,0.0,0.0,0.0,0.0,0.0,0.0,0.0,0.0,0.0,0.0,-2.0646,-2.0751,-2.1183,-2.1365,-2.1278,-2.1218,-2.0722,-1.9826,-1.972,-1.96,-1.9488,-1.9441,0.0,0.0,0.0,0.0,-1.9981,-1.931,-1.915,-1.9243,-1.8405,-1.8009,-1.7872,-1.7595,-1.6846,-1.5898,0.0,0.0,0.0,0.0,0.0,0.0,0.0,0.0,0.0,0.0,0.0,0.0,0.0,0.0,0.0,0.0,0.0,0.0,0.0,0.0,0.0,0.0,0.0,2.5141,2.5103,2.4942,2.4915,2.5063,2.5462,2.5644,2.5684,2.6173,2.6113,2.5546,2.5367,2.4854,2.4153,2.4056,2.3935,2.3753,2.3221,0.0,0.0,0.0,0.0,0.0,2.0616,1.9943,0.0,1.781,1.6472,1.5116,0.0,0.0,0.0,0.0,0.7292,0.5783,0.4426,0.3338,0.2051,0.0,-0.1481,-0.306,-0.5538,-0.7095,-0.8403,-0.9784,-1.1375,-1.2464,-1.246,-1.3346,-1.3989,-1.3729,-1.4437,0.0,0.0,0.0,0.0,0.0,0.0,0.0,0.0,0.0,0.0,0.0,0.0,0.0,0.0,0.0,-1.9346,-1.9564,-1.979,-2.0099,-2.0401,-2.0439,-1.9865,-1.8684,-1.8625,-1.8504,-1.8325,-1.8699,0.0,0.0,0.0,0.0,-1.9138,-1.816,-1.8014,-1.8325,-1.7551,-1.712,-1.6933,-1.6797,-1.6015,-1.5007,0.0,0.0,0.0,0.0,0.0,0.0,0.0,0.0,0.0,0.0,0.0,0.0,0.0,0.0,0.0,0.0,0.0,0.0,0.0,0.0,0.0,0.0,0.0,2.5025,2.4981,2.4851,2.4804,2.4845,2.4988,2.4984,2.4894,2.5116,2.5081,2.4781,2.4484,2.4247,2.4054,2.3917,2.3831,2.3685,2.2723,0.0,0.0,0.0,0.0,0.0,0.0,0.0,0.0,1.7357,1.5654,1.3872,1.2655,0.0,0.0,0.0,0.0,0.0,0.3277,0.2066,0.0896,-0.0887,-0.2166,-0.3564,-0.5932,-0.7261,-0.8502,-1.0077,-1.1334,-1.2241,-1.269,-1.3057,-1.3314,-1.3292,0.0,0.0,0.0,0.0,0.0,0.0,0.0,0.0,0.0,0.0,0.0,0.0,0.0,0.0,0.0,0.0,0.0,-1.8555,-1.8461,-1.8643,-1.9155,-1.9309,-1.889,-1.7845,-1.7738,-1.7665,-1.7608,-1.8223,0.0,0.0,0.0,0.0,-1.7994,-1.6751,-1.6715,-1.7379,-1.6677,-1.6247,-1.6029,-1.5983,-1.5281,-1.4259,0.0,0.0,0.0,0.0,0.0,0.0,0.0,0.0,0.0,0.0,0.0,0.0,0.0,0.0,0.0,0.0,0.0,0.0,0.0,0.0,0.0,2.487,2.4888,2.4896,2.4836,2.4704,2.4642,2.4644,2.5039,2.5264,2.5318,2.5968,2.591,2.5243,2.4484,2.4036,2.3837,2.3768,2.3678,2.3607,2.3124,0.0,0.0,0.0,0.0,0.0,0.0,0.0,0.0,1.7652,1.6126,1.453,1.2455,0.0,0.0,0.0,0.0,0.0,0.2052,0.0738,-0.0347,-0.1289,-0.2777,-0.4488,-0.6455,-0.7788,-0.894,-1.0174,-1.1309,-1.2094,-1.2043,-1.2492,-1.2914,0.0,0.0,0.0,0.0,0.0,0.0,0.0,0.0,0.0,0.0,0.0,0.0,0.0,0.0,0.0,0.0,0.0,0.0,-1.7534,-1.7579,-1.7311,-1.676,-1.7301,-1.7289,-1.6738,-1.6779,-1.6903,-1.7125,-1.7518,-1.7573,0.0,0.0,-1.7454,-1.7126,-1.6305,-1.611,-1.6281,-1.5662,-1.5351,-1.5247,-1.5009,-1.4631,-1.4082,0.0,0.0,0.0,0.0,0.0,0.0,0.0,0.0,0.0,0.0,0.0,0.0,0.0,0.0,0.0,0.0,0.0,0.0,0.0,0.0,0.0,2.4442,2.4422,2.447,2.4636,2.4817,2.4893,2.4819,2.5032,2.5093,2.5026,2.4849,2.461,2.4302,2.3898,2.3732,2.3747,2.3678,2.3607,2.3481,0.0,0.0,0.0,0.0,0.0,0.0,0.0,0.0,0.0,0.0,1.5188,1.3254,1.1349,0.0,0.0,0.0,0.0,0.0,0.1224,-0.0226,-0.1367,-0.2181,-0.3315,-0.47,-0.651,-0.78,-0.8884,-0.9955,-1.0854,-1.1545,-1.1856,0.0,-1.2997,-1.4005,0.0,0.0,0.0,0.0,0.0,0.0,0.0,0.0,0.0,0.0,0.0,0.0,0.0,0.0,0.0,0.0,0.0,0.0,-1.6315,-1.6032,-1.5613,-1.5616,-1.5698,-1.5851,-1.6254,-1.6443,-1.6533,-1.6564,-1.6536,-1.6463,0.0,-1.5712,-1.5757,-1.5135,-1.509,-1.5371,-1.5254,-1.5137,-1.4979,-1.438,-1.3851,-1.33,0.0,0.0,0.0,0.0,0.0,0.0,0.0,0.0,0.0,0.0,0.0,0.0,0.0,0.0,0.0,0.0,0.0,0.0,0.0,0.0,2.4301,2.404,2.3943,2.4113,2.4616,2.4935,2.5125,2.5195,2.4919,2.4585,2.4218,2.3466,2.3165,2.3259,2.3236,2.3318,2.3463,2.3453,2.3365,2.3177,0.0,0.0,0.0,0.0,0.0,0.0,0.0,0.0,0.0,0.0,0.0,0.0,0.0,0.0,0.0,0.5307,0.377,0.2334,0.039,-0.1122,-0.2424,-0.3403,-0.4161,-0.5031,-0.6769,-0.794,-0.9022,-1.0031,-1.0669,-1.1234,-1.172,-1.2156,0.0,-1.4567,0.0,0.0,0.0,0.0,0.0,0.0,0.0,0.0,0.0,0.0,0.0,0.0,0.0,0.0,0.0,0.0,0.0,0.0,-1.5095,-1.4782,-1.4605,-1.4292,-1.4452,-1.5075,-1.5608,-1.5749,-1.5499,-1.552,-1.544,-1.5227,-1.4333,-1.4121,-1.4374,-1.3997,-1.4131,-1.4587,-1.4954,-1.4373,-1.3324,-1.3288,-1.2263,-1.0847,0.0,0.0,0.0,0.0,0.0,0.0,0.0,0.0,0.0,0.0,0.0,0.0,0.0,0.0,0.0,0.0,0.0,0.0,0.0,0.0,2.4229,2.3826,2.3717,2.4053,2.494,2.4879,2.5117,2.5747,2.468,2.3702,2.2833,2.266,2.2669,2.2848,2.2772,2.2772,2.2772,2.296,2.2867,2.2582,2.2738,0.0,0.0,0.0,0.0,0.0,0.0,0.0,0.0,0.0,0.0,0.0,0.0,0.0,0.7165,0.5425,0.3655,0.177,-0.0554,-0.2161,-0.3532,-0.5045,-0.5407,-0.589,-0.7672,-0.8799,-0.97,-1.0616,-1.126,-1.1618,0.0,-1.185,-1.2553,-1.3851,0.0,0.0,0.0,0.0,0.0,0.0,0.0,0.0,0.0,0.0,0.0,0.0,0.0,0.0,0.0,0.0,0.0,0.0,0.0,-1.3593,-1.3151,-1.3535,-1.3947,-1.4383,-1.447,-1.4259,-1.3807,-1.4394,-1.4106,-1.3137,-1.3362,-1.3355,-1.3227,-1.332,-1.3546,-1.3951,-1.4571,-1.2195,-0.8712,-1.1131,-0.9134,-0.5439,0.0,0.0,0.0,0.0,0.0,0.0,0.0,0.0,0.0,0.0,0.0,0.0,0.0,0.0,0.0,0.0,0.0,0.0,0.0,2.3946,2.3635,2.3265,2.3116,2.3418,2.4241,2.4335,2.4689,2.5365,2.4261,2.3299,2.246,2.2281,2.2258,2.2422,2.2395,2.2449,2.2529,2.2816,2.2841,2.2669,2.2563,2.2429,0.0,0.0,0.0,0.0,0.0,0.0,0.0,0.0,1.3392,1.1389,0.9364,0.7239,0.5366,0.4213,0.2664,0.0834,-0.1167,-0.2453,-0.3598,-0.5045,-0.5588,-0.616,-0.7597,-0.8614,-0.9554,-1.0318,-1.0722,-1.1088,0.0,0.0,-1.2283,0.0,0.0,0.0,0.0,0.0,0.0,0.0,0.0,0.0,0.0,0.0,0.0,0.0,0.0,0.0,0.0,0.0,0.0,0.0,0.0,-1.3056,-1.2638,-1.2849,-1.293,-1.2902,-1.3301,-1.3448,-1.328,-1.2677,-1.2283,-1.2017,-1.1844,-1.1755,-1.1729,-1.1874,-1.1957,-1.1826,-1.0149,-0.7244,-0.4124,-0.531,-0.458,-0.3162,0.0,0.0,0.0,0.0,0.0,0.0,0.0,0.0,0.0,0.0,0.0,0.0,0.0,0.0,0.0,0.0,0.0,0.0,2.3866,2.3471,2.3093,2.2677,2.2544,2.2777,2.3379,2.3311,2.3744,2.479,2.362,2.2612,2.1781,2.1628,2.1612,2.1668,2.1668,2.1711,2.1828,2.2113,2.2141,2.2,2.1955,2.184,0.0,0.0,0.0,0.0,0.0,0.0,0.0,0.0,1.2539,1.0348,0.8266,0.6112,0.422,0.3164,0.1781,0.0167,-0.1782,-0.2945,-0.3957,-0.5485,-0.6079,-0.6615,-0.7932,-0.8752,-0.9431,-1.007,-1.0355,-1.0786,-1.1592,0.0,0.0,0.0,0.0,0.0,0.0,0.0,0.0,0.0,0.0,0.0,0.0,0.0,0.0,0.0,0.0,0.0,0.0,0.0,0.0,0.0,0.0,0.0,-1.1957,-1.221,-1.213,-1.1757,-1.1918,-1.2045,-1.2122,-1.1322,-1.0911,-1.086,-1.0553,-1.0436,-1.043,-1.0181,-0.9563,-0.8604,-0.646,-0.3105,0.038,-0.0965,-0.0538,0.0482,0.0,0.0,0.0,0.0,0.0,0.0,0.0,0.0,0.0,0.0,0.0,0.0,0.0,0.0,0.0,0.0,0.0,0.0,2.4199,2.3457,2.2778,2.2108,2.2096,2.2199,2.2459,2.1774,2.2256,2.4059,2.272,2.158,2.0698,2.0614,2.0548,2.0481,2.0481,2.0481,2.0499,2.0701,2.0602,2.0333,2.0863,2.0942,2.0684,0.0,0.0,0.0,0.0,0.0,0.0,0.0,1.2186,0.973,0.7617,0.5774,0.4051,0.2275,0.1113,-0.0112,-0.245,-0.3727,-0.4868,-0.6633,-0.6986,-0.7333,-0.8912,-0.9324,-0.9499,-1.0186,-1.0394,-1.0872,-1.2083,-1.2095,0.0,0.0,0.0,0.0,0.0,0.0,0.0,0.0,0.0,0.0,0.0,0.0,0.0,0.0,0.0,0.0,0.0,0.0,0.0,0.0,0.0,0.0,-1.1019,-1.1605,-1.1648,-1.1172,-1.0245,-0.9901,-1.0108,-1.0444,-1.018,-0.9506,-0.9546,-0.9536,-0.9386,-0.8223,-0.6366,-0.4205,-0.4141,-0.0267,0.4818,0.1139,0.2693,0.6144,0.0,0.0,0.0,0.0,0.0,0.0,0.0,0.0,0.0,0.0,0.0,0.0,0.0,0.0,0.0,0.0,0.0,0.0,2.3111,2.2738,2.2269,2.1628,2.129,2.1135,2.123,2.0143,2.022,2.1584,2.0897,2.0354,1.9932,1.9703,1.9525,1.9403,1.9682,1.9632,1.9403,1.9936,1.997,1.9712,2.0128,2.0278,2.0208,0.0,0.0,0.0,0.0,0.0,0.0,0.0,0.0,0.0,0.5712,0.371,0.1838,0.1338,0.0056,-0.1396,-0.2617,-0.3901,-0.5239,-0.6606,-0.7034,-0.7565,-0.9184,-0.8944,-0.863,-0.9714,-1.0258,-1.0763,-1.1591,0.0,0.0,0.0,0.0,0.0,0.0,0.0,0.0,0.0,0.0,0.0,0.0,0.0,0.0,0.0,0.0,0.0,0.0,0.0,0.0,0.0,0.0,0.0,-1.1019,-1.1159,-1.0863,-1.009,-0.9507,-0.9284,-0.9376,-0.8869,-0.8592,-0.8496,-0.8028,-0.7697,-0.7291,-0.5167,-0.1865,0.1868,0.2414,0.5691,0.9842,0.746,0.7457,0.8249,0.0,0.0,0.0,0.0,0.0,0.0,0.0,0.0,0.0,0.0,0.0,0.0,0.0,0.0,0.0,0.0,0.0,0.0,0.0,2.2029,2.1655,2.1135,2.0682,2.0184,1.9738,1.8664,1.8331,1.8788,1.8714,1.8602,1.8427,1.8107,1.7873,1.7755,1.799,1.799,1.7755,1.7971,1.8086,1.8142,1.8172,1.8092,1.804,0.0,0.0,0.0,0.0,0.0,0.0,0.0,0.0,0.0,0.4477,0.2447,0.0447,0.0056,-0.1004,-0.2286,-0.3503,-0.4615,-0.5793,-0.7219,-0.7379,-0.7506,-0.8629,-0.8863,-0.9041,0.0,-1.0379,-1.0754,-1.1557,0.0,0.0,0.0,0.0,0.0,0.0,0.0,0.0,0.0,0.0,0.0,0.0,0.0,0.0,0.0,0.0,0.0,0.0,0.0,0.0,0.0,0.0,0.0,-1.0725,-1.0467,-0.9949,-0.9191,-0.8531,-0.8173,-0.8036,-0.7714,-0.755,-0.7463,-0.6436,-0.5366,-0.4191,-0.2502,0.1093,0.5563,0.6063,0.8666,1.1918,1.0262,0.9667,0.9374,0.0,0.0,0.0,0.0,0.0,0.0,0.0,0.0,0.0,0.0,2.8457,0.0,0.0,0.0,0.0,0.0,0.0,0.0,0.0,0.0,2.1007,2.061,2.0058,1.9236,1.8076,1.7233,1.6566,1.5941,1.6405,1.6561,1.6431,1.5954,1.5726,1.5639,1.5627,1.5615,1.5528,1.5008,1.5151,1.5591,1.5072,1.4752,1.453,1.4395,0.0,0.0,0.0,0.0,0.0,0.0,0.0,0.0,0.3374,0.1667,-0.0335,-0.1338,-0.2063,-0.301,-0.4725,-0.5668,-0.6598,-0.819,-0.799,-0.7522,-0.7629,-0.8877,-1.0161,-1.0826,0.0,-1.0808,-1.1728,0.0,0.0,0.0,0.0,0.0,0.0,0.0,0.0,0.0,0.0,0.0,0.0,0.0,0.0,0.0,0.0,0.0,0.0,0.0,0.0,0.0,0.0,0.0,-1.0244,-0.963,-0.9067,0.0,-0.7568,-0.686,-0.6413,-0.6841,-0.6755,-0.6196,-0.4784,-0.2868,-0.0679,-0.0095,0.2927,0.7243,0.7581,0.9473,1.1854,1.0467,0.993,0.9793,0.0,0.0,0.0,0.0,0.0,0.0,0.0,0.0,0.0,0.0,0.0,0.0,0.0,0.0,0.0,0.0,0.0,0.0,0.0,0.0,2.0665,1.9818,1.8707,1.7692,1.6793,1.5489,1.4631,1.4176,1.5035,1.5124,1.4405,1.3465,1.2929,1.273,1.2745,1.2632,1.2358,1.2044,1.1601,1.1146,1.0945,1.0933,1.0976,0.9894,0.9698,0.0,0.0,0.0,0.0,0.0,0.0,0.0,0.0276,-0.0612,-0.1454,-0.1677,-0.2947,-0.4241,-0.4529,-0.6075,-0.7791,-0.8329,-0.8914,-0.9084,-0.7746,-0.8326,-0.9271,-0.9678,-1.0157,-1.0684,0.0,0.0,0.0,0.0,0.0,0.0,0.0,0.0,0.0,0.0,0.0,0.0,0.0,0.0,0.0,0.0,0.0,0.0,0.0,0.0,0.0,0.0,0.0,-1.004,-0.9746,-0.9624,-0.9029,0.0,-0.7563,-0.6981,-0.6307,-0.5991,-0.5072,-0.3689,-0.3336,-0.1733,0.0813,0.2684,0.501,0.7549,0.941,1.0964,1.2012,1.0758,1.0277,1.0168,0.0,0.0,0.0,0.0,0.0,0.0,0.0,0.0,0.0,0.0,0.0,0.0,0.0,0.0,0.0,0.0,0.0,0.0,0.0,0.0,2.0024,1.866,1.7652,1.6596,1.5428,1.4085,1.2916,1.1954,1.1832,1.1959,1.2317,1.1069,1.0401,1.0234,0.9693,0.9162,0.8725,0.7712,0.7067,0.6649,0.5401,0.4939,0.4835,0.3745,0.3268,0.2977,0.1509,0.0,0.0,0.0,0.0,0.0,0.0,0.0,-0.3014,-0.2732,-0.3828,-0.5162,-0.5395,-0.6673,-0.7937,-0.8189,-0.909,-0.9569,-0.8182,-0.8363,-0.8864,-0.8891,-0.9375,0.0,0.0,0.0,0.0,0.0,0.0,0.0,0.0,0.0,0.0,0.0,0.0,0.0,0.0,0.0,0.0,0.0,0.0,0.0,0.0,0.0,0.0,0.0,-1.0088,-0.9952,-0.9619,-0.9106,-0.8472,-0.7703,-0.6794,-0.5828,-0.4859,-0.4853,-0.4002,-0.2577,-0.1807,-0.0229,0.1898,0.3601,0.5793,0.8194,0.9417,1.0829,1.2033,1.1116,1.08,1.0729,0.0,0.0,0.0,0.0,0.0,0.0,0.0,0.0,0.0,0.0,0.0,0.0,0.0,0.0,0.0,0.0,0.0,0.0,0.0,0.0,0.0,1.7558,1.6625,1.5448,1.3835,1.2474,1.1023,0.9456,0.8029,0.8014,0.9227,0.8246,0.7692,0.738,0.6285,0.5374,0.4643,0.293,0.2151,0.1892,-0.0506,-0.1517,-0.1805,-0.2897,-0.3729,-0.4374,-0.4796,-0.4599,-0.4095,-0.3996,0.0,0.0,0.0,0.0,-0.4508,-0.3947,-0.4743,-0.5876,-0.6421,-0.7252,-0.7966,-0.8264,-0.9046,-0.9459,-0.8514,-0.8416,-0.849,-0.8213,0.0,0.0,0.0,0.0,0.0,0.0,0.0,0.0,0.0,0.0,0.0,0.0,0.0,0.0,0.0,0.0,0.0,0.0,0.0,0.0,0.0,0.0,-1.0628,-0.989,-0.9932,-0.9716,-0.9213,-0.8384,-0.7702,-0.7224,-0.5763,-0.44,-0.3126,-0.3358,-0.2928,-0.1958,-0.0495,0.1085,0.2708,0.4153,0.6352,0.885,0.9304,1.0537,1.1991,1.1423,1.1227,1.1196,0.0,0.0,0.0,0.0,0.0,0.0,0.0,0.0,0.0,0.0,0.0,0.0,0.0,0.0,0.0,0.0,0.0,0.0,1.9048,0.0,0.0,1.699,1.5365,1.3636,1.1719,0.9859,0.8021,0.6384,0.5044,0.3866,0.2964,0.4077,0.398,0.2765,0.217,0.1321,0.0178,-0.1186,-0.225,-0.3243,-0.5604,-0.6306,-0.6258,-0.8877,-0.9261,-0.8607,-1.015,-1.0351,-0.9765,-0.8885,-0.8287,0.0,0.0,0.0,-0.5097,-0.4666,-0.5437,-0.6487,-0.641,-0.7592,-0.8851,-0.9112,-0.91,-0.878,0.0,0.0,-0.7499,0.0,0.0,0.0,0.0,0.0,0.0,0.0,0.0,0.0,0.0,0.0,0.0,0.0,0.0,0.0,0.0,0.0,0.0,0.0,0.0,0.0,0.0,-1.0901,-1.0404,-0.9323,-0.9297,-0.8788,-0.7612,-0.7706,-0.7268,-0.6284,-0.5082,-0.3791,-0.2402,-0.1381,-0.0889,-0.0867,0.0,0.1352,0.3156,0.6162,0.7944,0.903,1.1288,1.2076,1.1869,1.1445,1.1219,1.1108,0.0,0.0,0.0,0.0,0.0,0.0,0.0,0.0,0.0,0.0,0.0,0.0,0.0,0.0,0.0,1.5064,1.6345,1.7521,1.8205,1.7927,1.6986,1.5362,1.3274,1.0953,0.8369,0.5782,0.3727,0.22,0.0182,-0.1258,-0.225,-0.2259,-0.1561,-0.0442,-0.2018,-0.3207,-0.4077,-0.5855,-0.7096,-0.8028,-1.0885,-1.1824,-1.1723,-1.3994,-1.4397,-1.3842,-1.4174,-1.3829,-1.2963,-1.2033,-1.1126,-1.0198,-0.8651,0.0,0.0,0.0,-0.648,-0.717,-0.7367,-0.8341,-0.924,-0.902,-0.8995,-0.8725,-0.7727,-0.7343,-0.7214,0.0,0.0,0.0,0.0,0.0,0.0,0.0,0.0,0.0,0.0,0.0,0.0,0.0,0.0,0.0,0.0,0.0,0.0,0.0,0.0,0.0,-1.0723,-1.049,-1.0005,-0.9122,-0.8895,-0.8341,-0.7328,-0.7384,-0.6564,-0.4917,-0.373,-0.262,-0.1563,-0.0099,0.0331,0.0,0.1578,0.3214,0.4955,0.6911,0.8628,1.0096,1.1231,1.1793,1.1869,1.1615,1.146,1.133,0.0,0.0,0.0,0.0,0.0,0.0,0.0,0.0,0.0,0.0,0.0,0.0,0.0,0.0,0.0,0.0,1.4154,1.578,1.7588,1.5835,1.4053,1.2596,0.9425,0.6095,0.2808,0.0612,-0.1274,-0.2807,-0.468,-0.5992,-0.6839,-0.7933,-0.7138,-0.4974,-0.6233,-0.734,-0.8411,-1.0239,-1.1433,-1.241,-1.5382,-1.6509,-1.6534,-1.8154,-1.8584,-1.8202,-1.7501,-1.667,-1.5736,-1.4508,-1.3588,-1.2673,-1.0937,-1.0364,0.0,0.0,0.0,-0.7657,-0.7868,-0.8369,-0.8814,-0.8414,-0.8356,-0.8177,0.0,0.0,-0.6815,0.0,0.0,0.0,0.0,0.0,0.0,0.0,0.0,0.0,0.0,0.0,0.0,0.0,0.0,0.0,0.0,0.0,0.0,0.0,0.0,0.0,-1.0444,-1.012,-0.9602,-0.8708,-0.8431,-0.7841,-0.691,-0.6489,-0.5348,-0.3521,-0.2479,-0.1549,-0.0766,0.0829,0.1328,0.1055,0.3224,0.4945,0.6337,0.7812,0.9396,1.093,1.1176,1.15,1.1826,1.1725,1.1608,1.1444,0.0,0.0,0.0,0.0,0.0,0.0,0.0,0.0,0.0,0.0,0.0,0.0,1.1268,1.1247,1.1154,1.05,1.1756,1.3906,1.7039,1.2075,0.8809,0.8349,0.2883,0.0,-0.6061,-0.6124,-0.7006,-0.8839,-0.8848,-0.9535,-1.0891,-1.148,-1.2009,-1.2426,-1.0492,-1.084,-1.2906,-1.365,-1.4792,-1.6303,-1.836,-1.9318,-1.9611,-2.096,-2.1167,-2.065,-2.0014,-1.9461,-1.8673,-1.6735,-1.6014,-1.555,-1.3119,-1.212,-1.1625,0.0,0.0,0.0,-0.7309,-0.7168,-0.7225,-0.7268,-0.682,-0.6548,0.0,0.0,0.0,0.0,0.0,0.0,0.0,0.0,0.0,0.0,0.0,0.0,0.0,0.0,0.0,0.0,0.0,0.0,0.0,0.0,0.0,0.0,0.0,0.0,-1.0109,-1.003,-0.933,-0.7821,-0.7765,-0.7126,-0.5776,-0.4478,-0.324,-0.2183,-0.1635,-0.0888,0.0,0.153,0.2288,0.2511,0.4598,0.5806,0.6517,0.9431,1.0738,1.0983,1.1942,1.202,1.1615,1.1681,1.1497,1.1215,0.0,0.0,0.0,0.0,0.0,0.0,0.0,0.0,0.0,0.0,0.0,0.0,0.0,0.9521,0.9425,1.0089,0.5898,0.3867,0.5415,0.1933,-0.0636,-0.1635,-0.5308,-0.8348,-1.0601,-1.1659,-1.2525,-1.3236,-1.3839,-1.4183,-1.4151,-1.5202,-1.5782,-1.5746,-1.4145,-1.3929,-1.4782,-1.6242,-1.7202,-1.7863,-2.0051,-2.0877,-2.0954,-2.2353,-2.2724,-2.2435,-2.2039,0.0,-2.022,-1.9276,-1.8335,-1.725,0.0,0.0,-1.3989,-1.1434,-0.9857,-0.8883,-0.8255,-0.7949,-0.7676,-0.7147,-0.6681,-0.6295,-0.6236,-0.592,0.0,0.0,0.0,0.0,0.0,0.0,0.0,0.0,0.0,0.0,0.0,0.0,0.0,0.0,0.0,0.0,0.0,0.0,0.0,0.0,0.0,0.0,-0.9299,-0.9121,-0.8581,-0.7621,-0.7349,-0.6713,-0.5599,-0.3949,-0.2642,-0.163,-0.0817,0.0,0.0773,0.2291,0.2976,0.3134,0.6456,0.7962,0.8137,0.9382,1.0746,1.209,1.2456,1.2195,1.1681,1.1725,1.1586,1.1285,0.0,0.0,0.0,0.0,0.0,0.0,0.0,0.0,0.0,0.9707,0.0,0.0,0.0,0.0,0.6525,0.5561,-0.0548,-0.3965,-0.2979,-0.6649,-0.9121,-0.9717,-1.2849,-1.5311,-1.685,-1.7554,-1.792,-1.8032,-1.8416,-1.8318,-1.7838,-1.8501,-1.8572,-1.8189,-1.7531,-1.7104,-1.7015,-1.849,-1.93,-1.9699,-2.1647,-2.2338,-2.2372,-2.3565,-2.406,-2.4033,0.0,0.0,0.0,0.0,0.0,0.0,0.0,0.0,0.0,-1.2145,-1.0629,-0.9585,-0.8448,-0.7911,-0.7361,-0.6502,-0.5889,-0.5535,-0.5497,0.0,0.0,0.0,0.0,0.0,0.0,0.0,0.0,0.0,0.0,0.0,0.0,0.0,0.0,0.0,0.0,0.0,0.0,0.0,0.0,0.0,0.0,0.0,-0.886,-0.8587,-0.8046,-0.7112,-0.6761,-0.6027,-0.499,-0.3372,-0.2088,-0.1087,-0.004,0.0793,0.1477,0.2743,0.3369,0.3665,0.6653,0.8388,0.9148,1.0168,1.1403,1.2665,1.2623,1.235,1.1993,1.1836,1.1696,1.1461,0.0,0.0,0.0,0.0,0.0,0.0,0.0,0.0,0.9776,0.8422,0.0,0.0,0.0,0.0,0.0,-0.3506,-0.7505,-0.9043,-0.7315,-1.3118,-1.6254,-1.5446,-1.9587,-2.2897,-2.5023,-2.3661,-2.3071,-2.3393,-2.2363,-2.1865,-2.1865,-2.1179,-2.0664,-2.023,-2.0531,-2.0408,-1.994,-2.0421,-2.1126,-2.1935,-2.3143,-2.3767,-2.4021,-2.4735,0.0,0.0,-2.4737,-2.4677,0.0,-2.3179,0.0,0.0,0.0,0.0,0.0,0.0,0.0,-0.9835,0.0,0.0,0.0,0.0,0.0,0.0,-0.4939,0.0,0.0,0.0,0.0,0.0,0.0,0.0,0.0,0.0,0.0,0.0,0.0,0.0,0.0,0.0,0.0,0.0,0.0,0.0,0.0,0.0,0.0,-0.9328,-0.8827,-0.8448,-0.7629,-0.6319,-0.5867,-0.5082,-0.3906,-0.2617,-0.145,-0.047,0.0697,0.1559,0.215,0.2857,0.3535,0.4215,0.5199,0.7002,0.9435,1.1819,1.2736,1.2623,1.2479,1.2503,1.2544,1.203,1.1812,1.1711,0.0,0.0,0.0,0.0,0.0,0.0,1.1903,1.0668,0.9316,0.0,0.0,0.0,0.3585,-0.1206,-0.5888,-0.959,-1.6446,-2.0115,-1.9004,-2.2321,-2.4414,-2.4598,-2.6011,-2.6831,-2.6957,-2.5932,-2.531,-2.5179,-2.4138,-2.3588,-2.3447,-2.3039,-2.2686,-2.2464,-2.2582,-2.2538,-2.2372,-2.1852,-2.1955,-2.2558,-2.3709,-2.423,0.0,0.0,0.0,0.0,0.0,-2.5782,-2.5295,0.0,-2.36,-2.2425,0.0,0.0,-1.6266,0.0,0.0,-1.1603,-0.9275,0.0,0.0,0.0,0.0,0.0,0.0,0.0,0.0,0.0,0.0,0.0,0.0,0.0,0.0,0.0,0.0,0.0,0.0,0.0,0.0,0.0,0.0,0.0,0.0,0.0,0.0,0.0,-0.799,-0.8084,-0.8169,-0.7573,-0.6817,-0.5906,-0.5164,-0.443,-0.377,-0.1952,-0.0693,0.0041,0.1575,0.2532,0.3088,0.3998,0.476,0.5497,0.7367,0.9007,1.0368,1.0462,1.1706,1.35,1.3125,1.293,1.284,1.249,1.2178,1.1838,0.0,0.0,0.0,0.0,0.0,1.2526,1.0234,0.909,0.7532,0.0,0.0,0.0,-0.3111,-0.9539,-1.4302,-1.5887,-2.1931,-2.5665,-2.5688,-2.7515,-2.8824,-2.9284,-2.9282,-2.9057,-2.8544,-2.7803,-2.7267,-2.6934,-2.5983,-2.5491,-2.5402,-2.4882,-2.4405,-2.3969,-2.3943,-2.3849,-2.3701,-2.3157,0.0,0.0,-2.4266,0.0,0.0,-2.5832,-2.6349,0.0,0.0,0.0,-2.6126,-2.5296,-2.3784,0.0,0.0,0.0,0.0,0.0,0.0,-1.2282,-1.0142,-0.8674,-0.7342,0.0,0.0,0.0,-0.3406,-0.3441,0.0,0.0,0.0,0.0,0.0,0.0,0.0,0.0,0.0,0.0,0.0,0.0,0.0,0.0,0.0,0.0,0.0,0.0,0.0,0.0,-0.6972,-0.7025,-0.7087,-0.6738,-0.6155,-0.5365,-0.4649,-0.4017,-0.3422,-0.1467,-0.0261,0.0208,0.1995,0.3187,0.3902,0.488,0.5744,0.6608,0.8349,0.9894,1.1169,1.0741,1.1923,1.3977,1.3424,1.326,1.3286,1.2897,1.257,1.2257,0.0,0.0,1.3793,1.2358,1.1578,1.0352,0.7773,0.6519,0.4728,0.0,-0.093,-0.4683,-1.0675,-1.7629,-2.1821,-2.1685,-2.4879,-2.7417,-2.8671,-2.973,-3.0412,-3.0682,-3.0331,-3.0018,-2.9787,-2.9213,-2.8784,-2.8526,-2.7753,-2.735,-2.7308,-2.6604,-2.5853,-2.5094,-2.5013,0.0,-2.4465,0.0,0.0,-2.4368,-2.4894,-2.5259,0.0,0.0,-2.664,-2.6853,-2.6673,-2.6785,-2.6788,-2.5628,-2.3768,0.0,0.0,0.0,0.0,0.0,-1.3986,-1.2599,-1.0742,-0.9091,-0.7594,0.0,0.0,0.0,-0.3442,-0.3318,-0.3331,0.0,0.0,0.0,0.0,0.0,0.0,0.0,0.0,0.0,0.0,0.0,0.0,0.0,0.0,0.0,0.0,0.0,-0.5937,-0.6426,-0.6317,-0.6124,-0.5991,-0.6051,-0.5717,-0.4798,-0.4264,-0.3615,-0.2873,-0.098,0.0131,0.0504,0.2358,0.3749,0.4778,0.5691,0.6678,0.7757,0.8658,1.02,1.2021,1.2036,1.2932,1.4217,1.3582,1.3515,1.376,1.3307,1.3012,1.2844,0.0,1.4576,1.2953,1.1628,1.1003,0.9384,0.5478,0.3363,0.0962,-0.2429,-0.7355,-1.2003,-1.589,-1.982,-2.2858,-2.4536,-2.6795,-2.8566,-2.9574,-3.0112,-3.0443,-3.0609,-3.0497,-3.0403,-3.0356,-2.9863,-2.9517,-2.9383,-2.8713,-2.8329,-2.8146,-2.7584,-2.7226,-2.702,-2.6819,-2.6539,-2.6177,0.0,0.0,-2.623,-2.5803,0.0,-2.5758,-2.6573,-2.65,-2.5973,-2.6162,-2.5919,-2.5443,-2.5039,-2.4145,-2.3059,0.0,0.0,0.0,-1.7706,0.0,0.0,0.0,0.0,0.0,0.0,0.0,0.0,-0.2921,-0.2748,-0.2812,0.0,0.0,0.0,0.0,0.0,0.0,0.0,0.0,0.0,0.0,0.0,0.0,0.0,0.0,0.0,0.0,0.0,-0.5285,-0.5782,-0.615,-0.6185,-0.5725,-0.5667,-0.5285,-0.4565,-0.362,-0.2733,-0.1962,-0.009,0.1327,0.2232,0.3876,0.5275,0.6391,0.7045,0.8166,0.9601,0.9971,1.1364,1.3374,1.3024,1.3616,1.4713,1.4328,1.4046,1.39,1.4071,1.3855,1.3484,1.4387,1.2712,1.1098,0.9674,0.8431,0.6465,0.2956,0.0586,-0.2002,-0.5534,-1.1254,-1.6276,-1.9568,-2.223,-2.4446,-2.6204,-2.7779,-2.9031,-2.981,-3.0132,-3.0384,-3.0594,-3.0575,-3.058,-3.0598,-3.0273,-3.0072,-3.0002,-2.95,-2.9195,-2.9107,-2.862,-2.8341,-2.8225,-2.7819,-2.7507,-2.7209,0.0,-2.6607,-2.6939,-2.63,0.0,-2.6707,-2.7164,-2.684,-2.6221,-2.6632,-2.6387,-2.5586,-2.3917,-2.3517,0.0,0.0,-2.1397,-2.1159,0.0,-1.7463,-1.593,0.0,0.0,0.0,-0.6912,0.0,0.0,0.0,-0.2593,-0.231,-0.2084,0.0,0.0,0.0,0.0,0.0,0.0,0.0,0.0,0.0,0.0,0.0,0.0,0.0,0.0,0.0,0.0,-0.4849,-0.5014,-0.5281,-0.5332,-0.5069,-0.4707,-0.4361,-0.398,-0.2868,-0.204,-0.156,0.0328,0.1605,0.2375,0.4443,0.5913,0.6842,0.7893,0.9107,1.033,1.0657,1.2057,1.4115,1.3716,1.4264,1.5277,1.4501,1.4285,1.4459,1.4594,1.4382,1.4099,1.2296,1.0857,0.9197,0.7519,0.5339,0.29,0.0197,-0.2543,-0.5683,-0.955,-1.49,-1.9535,-2.2802,-2.4642,-2.6302,-2.8027,-2.8648,-2.9351,-3.0215,-3.0232,-3.0304,-3.056,-3.0594,-3.0623,-3.0702,-3.055,-3.0453,-3.0419,-3.0078,-2.9914,-2.9893,-2.9493,-2.9212,-2.9022,-2.856,-2.8172,-2.7816,0.0,0.0,-2.7348,0.0,-2.7,-2.7582,-2.7701,-2.7274,-2.6665,-2.7035,-2.6847,-2.6045,-2.3503,-2.33,-2.3722,-2.1613,-2.1166,0.0,0.0,0.0,0.0,0.0,0.0,0.0,0.0,0.0,-0.5056,0.0,0.0,0.0,-0.2024,0.0,0.0,0.0,0.0,0.0,0.0,0.0,0.0,0.0,0.0,0.0,0.0,0.0,0.0,0.0,0.0,-0.4519,-0.4519,-0.4405,-0.4294,-0.4294,-0.3793,-0.3419,-0.3166,-0.2076,-0.1309,-0.0964,0.0823,0.2031,0.2677,0.4999,0.6493,0.7252,0.8762,0.9924,1.0788,1.1234,1.2595,1.4425,1.3978,1.462,1.5813,1.4738,1.4617,1.5049,1.5053,1.4879,1.4743,1.1327,1.0319,0.842,0.6013,0.2512,-0.0662,-0.2896,-0.7352,-1.2212,-1.696,-2.0125,-2.3098,-2.6188,-2.6965,-2.8435,-3.1379,0.0,0.0,-3.1901,0.0,-3.0271,-3.0424,-3.0537,-3.0637,-3.0699,-3.0682,-3.0613,-3.0487,-3.0445,-3.0352,-3.0249,-2.9889,-2.9658,-2.9517,-2.9326,-2.8813,-2.8076,0.0,-2.811,0.0,-2.7747,-2.7582,0.0,-2.7853,-2.7406,-2.6535,-2.6083,-2.587,-2.5754,0.0,-2.5261,-2.4878,0.0,-2.272,-2.2069,-2.0162,0.0,0.0,0.0,0.0,0.0,0.0,-0.7166,0.0,0.0,0.0,-0.2436,-0.1284,0.0,0.0,0.0,0.0,0.0,0.0,0.0,0.0,0.0,0.0,0.0,0.0,0.0,0.0,0.0,0.0,0.0,-0.446,-0.4018,-0.3624,-0.3511,-0.3294,-0.2901,-0.233,-0.1185,-0.0159,0.063,0.2203,0.3678,0.5024,0.6582,0.774,0.8609,1.0176,1.1164,1.1689,1.2138,1.3101,1.4255,1.3381,1.4335,1.6282,1.5662,1.5312,1.5211,1.5508,1.5505,1.5462,0.9128,0.738,0.5298,0.3708,0.0397,-0.2849,-0.5117,-1.0155,-1.4983,-1.8525,-2.1252,0.0,0.0,0.0,0.0,0.0,0.0,-2.9887,0.0,0.0,-2.9984,-3.0158,-3.034,-3.0452,-3.051,-3.0599,-3.0601,-3.0566,-3.0562,-3.0537,-3.0467,-3.0253,-3.0153,-3.0186,-3.0328,0.0,-2.9886,0.0,-2.9289,0.0,0.0,0.0,0.0,-2.8201,-2.7913,-2.7313,-2.6195,-2.6483,-2.7107,0.0,-2.5383,0.0,0.0,0.0,0.0,0.0,0.0,0.0,0.0,0.0,0.0,0.0,0.0,0.0,-0.4349,0.0,-0.2247,0.0,0.0,0.0,0.0,0.0,0.0,0.0,0.0,0.0,0.0,0.0,0.0,0.0,0.0,0.0,0.0,0.0,0.0,0.0,0.0,-0.2795,-0.3054,-0.2075,-0.1396,-0.1172,0.0,0.0983,0.18,0.3046,0.4405,0.5825,0.7614,0.8865,0.9591,1.1095,1.2008,1.2318,1.2531,1.3316,1.4459,1.4435,1.5287,1.6637,1.6731,1.6486,1.6119,1.6068,1.616,1.6363,0.6363,0.4509,0.2659,0.1597,-0.1856,-0.5415,-0.8254,-1.2685,-1.6738,-1.9465,0.0,0.0,-2.68,-2.8301,0.0,0.0,-2.9876,-2.978,0.0,0.0,-2.9641,0.0,0.0,0.0,0.0,-3.0488,-3.0562,-3.0595,-3.0625,-3.0632,-3.0624,-3.0513,-3.0498,-3.0586,-3.0849,-3.1034,-3.1121,0.0,-3.0269,-3.0568,-2.9292,-2.8787,-2.8766,-2.8551,-2.8144,-2.76,-2.6896,-2.7186,-2.7525,-2.5293,-2.4892,0.0,-2.2551,0.0,0.0,0.0,0.0,0.0,-1.7202,0.0,0.0,0.0,0.0,0.0,0.0,0.0,0.0,0.0,0.0,0.0,0.0,0.0,0.0,0.0,0.0,0.0,0.0,0.0,0.0,0.0,0.0,0.0,0.0,0.0,0.0,0.0,-0.1945,0.0,-0.2075,-0.0923,0.0,0.0501,0.1449,0.2397,0.3226,0.4474,0.5608,0.6683,0.8751,0.9993,1.0616,1.1985,1.2753,1.2995,1.3187,1.3896,1.494,1.5435,1.6242,1.7229,1.7525,1.753,1.7314,1.6783,1.6777,1.7093,0.3009,0.2339,0.1403,-0.0134,-0.4386,-0.8896,-1.2808,-1.5434,-1.8101,0.0,0.0,0.0,0.0,0.0,0.0,0.0,0.0,-2.9973,-3.2145,0.0,-2.9263,0.0,0.0,-3.008,0.0,0.0,-3.0461,-3.0591,-3.0664,-3.0701,-3.0696,-3.0635,-3.0566,-3.0504,-3.0583,-3.0795,-3.104,-3.0305,-3.0836,-3.1977,-3.0057,-2.9282,-2.923,0.0,-2.7793,-2.6814,-2.8148,0.0,0.0,-2.4602,-2.4012,0.0,0.0,0.0,0.0,0.0,0.0,0.0,0.0,0.0,0.0,-1.2621,0.0,0.0,0.0,0.0,-0.3608,0.0,0.0,0.0,0.0,0.0,0.1127,0.1263,0.1832,0.0,0.0,0.0,0.0,0.0,0.0,0.0,0.0,0.0,0.0,-0.155,-0.0443,0.0167,-0.0278,0.0,0.1002,0.2717,0.3387,0.4165,0.5031,0.6865,0.7895,0.814,1.0052,1.1219,1.1784,1.2879,1.3475,1.3683,1.4351,1.5008,1.5698,1.5893,1.6824,1.8119,1.7885,1.8215,1.8717,1.7642,1.7376,1.7541,0.1138,0.0066,-0.085,0.0,0.0,-0.9191,-1.3331,-1.6117,0.0,0.0,0.0,0.0,0.0,-2.9075,-3.0306,0.0,0.0,-2.9779,-3.0065,-2.9355,0.0,0.0,0.0,-2.9817,0.0,0.0,0.0,0.0,-3.0163,-2.9943,-2.9005,-3.0086,-3.03,-2.982,-3.1007,-3.1917,0.0,0.0,0.0,0.0,0.0,-3.0002,-2.9266,0.0,0.0,-2.6654,-2.7053,-2.6472,0.0,-2.5049,-2.4641,-2.3898,-2.1464,-1.9956,-1.9326,-2.046,-2.0079,0.0,0.0,0.0,-1.6284,-1.3917,0.0,0.0,0.0,0.0,0.0,0.0,0.0,0.0,0.0,0.0,0.1644,0.2265,0.2682,0.2976,0.0,0.0,0.0,0.0,0.0,0.0,0.0,0.0,0.0,0.0289,0.1109,0.1659,0.0,0.2491,0.3382,0.42,0.5337,0.6308,0.7057,0.8762,0.9771,1.0135,1.164,1.2562,1.2979,1.3977,1.4623,1.4914,1.5458,1.5994,1.6544,1.7143,1.7802,1.8439,1.8886,1.9158,1.9198,1.8324,1.8165,1.8385,-0.0335,-0.1649,0.0,0.0,0.0,-0.9806,-1.3826,0.0,0.0,0.0,-2.3396,0.0,-2.6933,0.0,-3.0162,0.0,-3.0159,-2.9924,-2.9387,-2.9007,0.0,-2.8755,-2.9172,0.0,0.0,0.0,0.0,0.0,0.0,-2.9803,-2.8919,-3.0056,-3.0314,-2.9886,-3.0992,-3.2165,-3.3239,-3.2273,-3.2705,0.0,0.0,-3.0536,0.0,0.0,-2.6645,-2.6544,0.0,-2.5643,-2.5012,-2.3309,-2.2978,-2.2915,-2.0824,-1.965,-1.9359,-2.0891,-2.0886,-2.0243,-1.9798,-1.8988,0.0,-1.512,-1.2434,0.0,-0.8306,0.0,0.0,0.0,0.0,0.0,0.0,0.0,0.2605,0.3519,0.3763,0.3958,0.0,0.5216,0.0,0.0,0.0,0.0,0.0,0.0,0.3282,0.2317,0.3174,0.3724,0.0,0.0,0.519,0.5946,0.7105,0.8057,0.8847,1.0631,1.1752,1.2244,1.3656,1.4437,1.4658,1.5383,1.5829,1.6022,1.6447,1.6985,1.762,1.8265,1.8802,1.9262,1.9759,1.9877,1.9687,1.9007,1.8897,1.9052,-0.134,0.0,0.0,0.0,-0.7053,0.0,0.0,0.0,-1.8306,0.0,-2.3371,-2.5568,-2.7025,-2.8732,-3.0031,-3.0608,-3.048,-3.0282,-3.0123,-2.929,0.0,0.0,-2.8737,-2.887,-2.9077,0.0,0.0,0.0,0.0,-3.0189,-3.0044,-3.0404,-3.0507,-3.0406,-3.0494,0.0,-3.3124,-3.2251,-3.2733,-3.3945,-3.2146,-3.0886,-2.9889,-2.8032,0.0,-2.6505,-2.5397,-2.512,-2.4561,-1.9741,-1.9359,-2.062,-1.8908,-1.7777,-1.7583,-1.9957,-2.0843,-2.0662,-1.9083,-1.9247,-1.9126,-1.6145,0.0,0.0,0.0,0.0,-0.3166,0.0,0.0,0.0,0.0,0.0,0.0,0.4984,0.5078,0.5413,0.0,0.0,0.0,0.0,0.0,0.0,0.0,0.6689,0.6625,0.4542,0.5725,0.6308,0.0,0.0,0.0,0.7994,0.875,0.957,1.0452,1.2474,1.3792,1.4405,1.5893,1.667,1.6729,1.692,1.6984,1.6963,1.7319,1.8,1.886,1.9196,1.9788,2.0495,2.0414,2.036,2.0224,1.9651,1.9518,1.9513,-0.1731,-0.3727,-0.5741,0.0,-0.8777,-1.0982,0.0,0.0,0.0,0.0,-2.325,-2.5217,-2.5486,-2.721,-2.8466,-2.884,-2.9303,0.0,0.0,0.0,0.0,-2.7979,-2.8264,-2.846,-2.8492,-2.8893,0.0,-2.7619,0.0,0.0,-2.6481,-2.9034,-2.9297,-2.7675,0.0,-3.0252,-3.1382,-3.0517,-3.0658,-3.1491,-3.1642,-3.0975,0.0,0.0,-2.8277,-2.7077,-2.4523,-2.3639,-2.3151,-1.9599,-1.9708,-2.111,-1.9748,-1.8957,-1.9081,-2.2061,-2.2126,-2.1185,-2.1063,-2.0754,-1.9633,-1.6039,-1.3523,-1.0941,0.0,0.0,0.0,0.0,0.0,0.0,0.0,0.0,0.0,0.5389,0.5883,0.6566,0.0,0.0,0.0,1.0187,0.0,0.0,0.0,0.7494,0.7271,0.6679,0.7948,0.8481,0.0,0.0,0.0,1.0269,1.167,1.2656,1.3125,1.4934,1.581,1.5812,1.6587,1.6968,1.7011,1.7157,1.7377,1.7691,1.8295,1.8871,1.9339,1.9673,2.0063,2.042,2.0418,2.0357,2.0283,2.0012,1.988,1.9794,-0.2513,0.0,0.0,-0.8576,0.0,0.0,-1.4257,0.0,0.0,-1.9948,-2.2363,0.0,-2.4218,-2.5813,-2.6958,-2.7194,-2.8144,0.0,-2.7981,0.0,0.0,-2.7413,-2.7794,-2.802,-2.8075,-2.8453,0.0,-2.7189,0.0,0.0,-2.6148,-2.8095,-2.8298,-2.7094,0.0,-2.9551,-3.0134,-3.0097,-3.0512,-3.1198,-3.1229,0.0,0.0,-2.9522,-2.8591,-2.7083,-2.354,-2.3108,-2.3667,-2.0226,-2.0324,-2.1715,-2.0885,-2.0397,-2.0608,-2.3012,-2.315,-2.2431,-2.201,-2.1006,-1.9308,-1.6145,-1.2408,-0.8853,-0.6271,-0.2471,0.0707,0.0,0.0,0.0,0.0,0.0,0.0,0.0,0.0,0.0,0.0,0.0,0.0,0.0,1.1868,0.0,0.0,0.9589,0.9076,0.916,1.0256,0.0,0.0,0.0,0.0,1.234,1.3825,1.4788,1.5251,1.6677,1.7619,1.8049,1.8639,1.8702,1.8317,1.8552,1.8505,1.8325,1.8822,1.9258,1.9657,1.9958,2.0197,2.0365,2.0417,2.0399,2.0326,2.026,2.0142,1.9982,-0.35,0.0,0.0,0.0,0.0,0.0,0.0,-1.5191,0.0,-1.9435,0.0,-2.2393,-2.2976,-2.4371,-2.536,-2.5619,0.0,-2.7397,-2.6929,-2.7684,-2.7805,-2.7009,-2.7276,-2.7474,-2.7547,-2.7974,0.0,0.0,0.0,0.0,-2.7059,-2.7352,-2.7408,-2.7294,0.0,0.0,0.0,-3.0191,-3.113,-3.1848,-3.0906,-3.0535,-3.0386,-2.9196,-2.8057,-2.6606,-2.2825,-2.3056,-2.4571,-2.0746,-2.057,-2.1913,-2.1829,-2.1723,-2.1933,-2.3252,-2.3913,-2.3658,-2.1258,-1.989,-1.8285,-1.4538,-0.9889,-0.5942,-0.484,-0.048,0.3322,0.3361,0.5809,0.0,0.0,0.0,0.0,0.0,0.0,0.0,0.0,0.0,0.0,0.0,0.0,0.0,0.0,0.0,0.0,1.1612,1.2657,0.0,0.0,0.0,0.0,0.0,1.5598,0.0,1.6996,0.0,1.922,2.0376,2.1003,2.082,1.9959,2.0209,1.9798,1.8842,1.9059,1.9411,1.9854,2.0124,2.0277,2.0359,2.0465,2.0461,2.0405,2.0404,2.0288,2.0133,0.0,0.0,0.0,0.0,0.0,-1.1675,-1.3142,-1.4989,-1.6767,-1.828,-2.0238,-2.1397,-2.1119,-2.2389,-2.3423,-2.3673,-2.5114,0.0,0.0,0.0,0.0,-2.6838,-2.6686,-2.6539,-2.6333,-2.7234,-2.7091,0.0,0.0,0.0,-2.5198,-2.6442,-2.6427,-2.5424,0.0,0.0,-2.8364,-2.9264,0.0,-3.0929,-3.0739,-3.0659,-3.038,-2.7784,-2.6255,-2.5265,-2.3491,-2.2843,-2.2262,-1.8833,-1.8703,-2.0187,-2.1414,-2.1863,-2.2182,-2.3547,-2.4211,-2.2958,-1.5757,-1.632,-1.6305,-0.5344,-0.4427,-0.4634,0.1458,0.3699,0.5247,0.7953,0.9322,1.0253,1.0929,0.0,0.0,0.0,0.0,0.0,0.0,0.0,0.0,0.0,0.0,0.0,0.0,0.0,0.0,0.0,0.0,0.0,0.0,0.0,0.0,0.0,0.0,0.0,0.0,0.0,0.0,2.0799,2.1138,2.0857,2.0067,2.0061,1.9685,1.9059,1.9382,1.9719,2.0063,2.0279,2.0444,2.0534,2.0519,2.0497,2.0488,2.0415,2.0371,2.0347,0.0,0.0,0.0,0.0,0.0,0.0,0.0,-1.449,0.0,-1.7493,-1.9133,-2.017,-2.0165,-2.1113,-2.1799,-2.2049,-2.3203,-2.4112,-2.4433,-2.5292,-2.579,-2.5812,-2.5959,0.0,-2.5908,-2.6471,-2.6227,-2.509,0.0,0.0,-2.4358,-2.5171,-2.522,-2.4685,0.0,-2.7132,0.0,0.0,0.0,-3.0539,-3.0661,-3.065,-3.035,-2.8164,-2.704,-2.6236,-2.2932,-2.2077,-2.2248,-2.0452,-2.0372,-2.1168,-2.1845,-2.2658,-2.3453,-2.4039,-2.168,-1.7905,-1.3352,-1.0152,-0.6885,-0.1588,0.0627,0.1992,0.3807,0.6425,0.8894,1.0342,1.1898,1.3248,1.4138,1.4838,0.0,0.0,0.0,0.0,0.0,0.0,0.0,0.0,0.0,0.0,0.0,0.0,0.0,0.0,0.0,0.0,0.0,0.0,0.0,0.0,0.0,0.0,0.0,0.0,0.0,2.2101,2.2229,2.1917,2.1243,2.0812,2.0336,1.9874,1.9639,1.9732,2.0055,2.0271,2.0457,2.0586,2.0538,2.0503,2.0499,2.0458,2.0424,2.0385,0.0,-0.5962,0.0,0.0,-0.9254,0.0,-1.2257,-1.3405,-1.4739,-1.6543,-1.7947,-1.8876,-1.9072,-1.9806,-2.0328,-2.051,-2.1442,-2.222,-2.2726,-2.3777,-2.4453,-2.4704,-2.5107,-2.5389,-2.5486,-2.5779,-2.5562,0.0,0.0,0.0,0.0,-2.4115,0.0,0.0,0.0,0.0,0.0,0.0,-2.9407,-3.024,-3.0399,-3.0302,-2.9875,-2.7982,-2.701,-2.6085,-2.1816,-1.9909,-1.9419,-1.9639,-2.0927,-2.224,-2.0871,-2.1299,-2.1958,-2.0228,-1.5729,-1.0779,-0.8346,-0.3027,0.2029,0.2892,0.6124,0.8565,0.6585,0.9329,1.2311,1.2511,1.4272,1.6106,1.7089,1.7504,0.0,0.0,0.0,0.0,0.0,0.0,0.0,0.0,0.0,0.0,0.0,0.0,0.0,0.0,0.0,0.0,0.0,0.0,0.0,0.0,0.0,2.1479,2.2149,0.0,2.2538,0.0,2.3283,2.2985,2.235,2.1828,2.1243,2.0606,2.028,2.0212,2.0365,2.0352,2.0447,2.0594,2.054,2.0503,2.0506,2.0495,2.0468,2.0383,0.0,0.0,0.0,0.0,0.0,0.0,0.0,-1.1296,-1.323,-1.5236,-1.6776,-1.7426,-1.6867,-1.7931,-1.8827,-1.9061,-2.0118,-2.1173,-2.2192,-2.2337,-2.2876,-2.4042,-2.4122,-2.4251,-2.4451,-2.5307,-2.5389,0.0,0.0,0.0,0.0,0.0,0.0,0.0,0.0,0.0,0.0,-2.8267,-2.882,-2.968,-2.9692,-2.9306,-2.8349,-2.5171,-2.3063,-2.1681,-2.0395,-1.4931,-0.8594,-1.0584,-1.6211,-2.146,-1.6043,-1.4555,-1.3445,-0.6487,-0.4145,-0.2286,0.4767,0.4334,0.4105,1.3307,1.2938,1.096,1.3334,1.3581,1.3891,1.5801,1.7139,1.7956,1.8149,1.8823,1.9287,0.0,0.0,0.0,0.0,0.0,0.0,0.0,0.0,0.0,0.0,0.0,0.0,0.0,0.0,0.0,0.0,0.0,0.0,2.182,0.0,2.2115,2.2988,2.3041,0.0,2.3289,2.3535,2.3271,2.2589,2.2758,2.207,2.0829,2.1739,2.1893,2.1491,2.0772,2.0526,2.058,2.0523,2.0509,2.05,2.0496,2.0491,2.0454,0.0,0.0,0.0,0.0,0.0,0.0,0.0,-1.056,-1.1843,-1.3121,-1.4917,-1.6296,-1.6688,-1.7645,-1.8363,-1.862,-1.9567,-2.0449,-2.1176,-2.1456,-2.1944,-2.2808,-2.2947,-2.3084,-2.3319,-2.4074,-2.4098,0.0,0.0,0.0,0.0,0.0,0.0,0.0,0.0,-2.6321,-2.764,-2.7453,-2.7822,-2.8493,-2.8206,-2.7622,-2.6759,-2.5097,-2.2938,-2.0591,-1.9152,-1.5139,-1.0567,-1.0805,-1.0212,-0.8956,-0.6516,-0.6495,-0.6773,-0.3661,0.0431,0.4656,0.7797,1.0768,1.356,1.6109,1.5801,1.4783,1.4456,1.4947,1.5764,1.678,1.8282,1.9519,1.9917,2.0184,2.04,0.0,0.0,0.0,0.0,0.0,0.0,0.0,0.0,0.0,0.0,0.0,0.0,0.0,0.0,0.0,0.0,0.0,0.0,2.3625,0.0,2.298,2.4102,2.3673,2.3522,2.3725,2.3834,2.3731,2.3442,2.318,2.2613,2.1853,2.2399,2.2288,2.168,2.136,2.0972,2.0598,2.0527,2.0503,2.0506,2.0509,2.051,2.0463,-0.3875,0.0,-0.5064,0.0,-0.6376,-0.7123,-0.8658,-0.9576,-1.0438,-1.1496,-1.3034,-1.4583,-1.593,-1.6935,-1.7589,-1.7809,-1.8608,-1.9307,-1.9761,-2.0257,-2.0805,-2.1486,-2.1866,0.0,-2.2558,-2.3054,-2.3111,-2.2661,-2.2917,0.0,0.0,0.0,0.0,0.0,-2.5248,-2.5922,-2.6872,-2.6695,-2.6797,-2.7029,-2.6535,-2.5551,-2.4299,-2.35,-2.1534,-1.9047,-1.7904,-1.4723,-1.0896,-0.9467,-0.3485,0.2945,0.0589,-0.0445,-0.034,0.1905,0.6957,1.1853,1.198,1.6074,1.9875,1.8056,1.8143,1.8125,1.6106,1.669,1.7719,1.797,1.9309,2.0599,2.1102,2.1134,2.1182,2.1446,0.0,0.0,0.0,0.0,0.0,0.0,2.1567,2.1822,2.137,0.0,0.0,0.0,0.0,0.0,0.0,0.0,0.0,0.0,0.0,0.0,0.0,2.4089,2.3837,2.3996,2.4057,2.4078,2.4079,2.3518,2.3281,2.3294,2.293,2.2662,2.2397,2.1903,2.1405,2.0957,2.0907,2.0722,2.0521,2.0785,2.0728,2.0476,-0.2112,-0.3572,-0.4762,-0.4708,-0.551,-0.6339,-0.7086,-0.7972,-0.9069,-1.0584,-1.1108,-1.2035,-1.3855,-1.5284,-1.6161,-1.6301,-1.6989,-1.7589,-1.7907,-1.8531,-1.927,0.0,0.0,-2.1704,-2.2267,-2.2558,-2.2725,-2.2786,0.0,0.0,-2.3086,0.0,-2.3752,-2.4874,-2.4644,-2.5055,-2.593,-2.6049,-2.5809,-2.5275,-2.4759,-2.301,-2.0624,-1.9296,-1.7695,-1.6191,-1.6571,-1.239,-0.6325,-0.4068,0.3937,1.1525,0.3421,0.2638,0.6155,1.3497,1.7574,1.9692,1.9829,2.0085,2.0323,2.0444,2.0561,2.046,1.9722,1.9651,1.9773,1.9864,2.0483,2.1086,2.1415,2.1477,2.1477,2.1493,0.0,0.0,0.0,0.0,0.0,0.0,2.3133,2.3527,2.2202,0.0,0.0,0.0,0.0,0.0,0.0,0.0,0.0,2.535,2.4093,0.0,2.4705,2.4296,2.4074,2.3996,2.4211,2.4301,2.4281,2.3879,2.4238,2.5077,2.3496,2.3314,2.4038,2.238,2.174,2.1795,2.1772,2.1267,2.0601,2.1461,2.1245,2.0476,-0.1799,-0.3355,-0.4461,-0.4557,-0.4816,-0.5339,-0.6207,-0.7046,-0.8021,-0.9058,-1.0268,-1.1281,-1.2089,-1.352,-1.4749,0.0,-1.6182,-1.6869,0.0,-1.7961,-1.8382,-1.8703,-1.9503,-2.0131,-2.0584,-2.1403,-2.1704,-2.1575,0.0,0.0,0.0,-2.3018,-2.3598,-2.4451,-2.3825,-2.4024,-2.4805,-2.3393,-2.2797,-2.2632,-2.0969,-1.9396,-1.8049,-1.7991,-1.5936,-1.3018,-1.2414,-0.7893,-0.1929,-0.0484,0.3968,0.8515,0.6162,0.7983,1.1733,1.543,1.7182,1.8211,1.9669,2.0254,2.046,2.061,2.0447,2.0265,2.0108,2.0128,2.0333,2.078,2.1229,2.1584,2.1735,2.1957,2.2089,2.2049,0.0,0.0,0.0,0.0,0.0,0.0,2.302,2.3248,0.0,2.3935,0.0,0.0,0.0,0.0,0.0,0.0,0.0,0.0,2.5171,0.0,2.5052,2.4559,2.4284,2.4211,2.4441,2.462,2.4708,2.4623,2.4815,2.5184,2.4762,2.4428,2.4154,2.3663,2.3135,2.2621,2.2624,2.2115,2.1425,2.1698,2.1596,2.1221,-0.1484,-0.2652,-0.3522,-0.4277,-0.4484,-0.4758,-0.5679,-0.6264,-0.7051,-0.8226,-0.9314,-1.0148,-1.0674,-1.1757,0.0,-1.4109,-1.4964,-1.5668,-1.6224,-1.6968,-1.7479,-1.7754,-1.8417,-1.8963,-1.9319,0.0,0.0,-2.0181,-2.0935,-2.1468,-2.1841,-2.1989,-2.244,-2.3157,-2.2515,-2.2415,-2.2747,-2.1458,-2.0482,-1.9634,-1.7566,-1.5827,-1.4514,-1.4559,-1.1679,-0.7538,-0.6985,-0.2736,0.2689,0.3385,0.5292,0.741,0.7982,1.0164,1.282,1.4416,1.6014,1.756,1.8925,1.9871,2.0509,2.061,2.0548,2.0534,2.055,2.0716,2.0991,2.1324,2.1691,2.2044,2.2215,2.2276,2.2366,2.246,0.0,2.247,2.2563,0.0,0.0,0.0,0.0,0.0,0.0,2.3862,0.0,0.0,0.0,0.0,0.0,0.0,0.0,2.6844,2.5728,0.0,2.4907,2.465,2.4493,2.4458,2.4704,2.4879,2.5006,2.505,2.5134,2.5233,2.535,2.5114,2.4634,2.436,2.3933,2.3446,2.3474,2.2996,2.2323,2.2656,2.2541,2.2138,-0.1075,-0.1547,0.0,0.0,-0.4167,0.0,-0.5418,-0.555,-0.6203,-0.7842,-0.8231,-0.8753,-0.9542,-0.9983,-1.0856,-1.2397,0.0,0.0,0.0,-1.5545,-1.6528,-1.6968,-1.7589,0.0,-1.8417,-1.9085,-1.923,-1.885,-1.9645,-2.0118,-2.0257,-2.0231,-2.0531,-2.1197,-2.0677,-2.0239,-1.9924,-1.9808,-1.8546,-1.6383,-1.4548,-1.2535,-1.0527,-0.9621,-0.5986,-0.1362,-0.0873,0.2682,0.7144,0.7193,0.7538,0.8131,0.9082,0.9875,1.0655,1.1679,1.4653,1.7651,1.7983,1.9217,2.0423,2.0527,2.0893,2.123,2.1103,2.146,2.1731,2.1598,2.1998,2.2453,2.2747,2.2525,2.2405,2.2773,2.2685,2.2659,2.2902,0.0,0.0,0.0,0.0,0.0,0.0,2.4076,2.4336,0.0,0.0,0.0,0.0,0.0,2.6868,2.6439,2.5887,2.5226,2.4407,2.4626,2.4723,2.4738,2.4926,2.5069,2.5187,2.5201,2.5241,2.5292,2.537,2.5388,2.5337,2.4606,2.4302,2.4303,2.4365,2.3904,2.3295,2.4102,2.3876,2.3166,0.0,0.0,-0.1479,-0.1074,-0.2818,-0.4367,-0.4564,-0.5156,-0.5811,-0.6396,-0.7051,-0.7702,-0.8161,-0.8742,-0.9378,-1.0085,-1.1516,-1.2626,-1.3304,-1.3888,-1.4473,-1.5021,-1.5515,-1.6373,-1.7468,-1.7763,-1.8055,-1.8377,-1.8496,-1.8696,-1.9028,-1.9132,-1.916,-1.9138,-1.8452,-1.7765,-1.6956,-1.5953,-1.4666,-1.3119,-1.1462,-1.0504,-0.9791,-0.7764,-0.722,-0.6404,0.205,0.6243,0.7729,0.7889,0.8253,0.8817,1.0187,1.1611,1.3075,1.4621,1.5649,1.6865,1.9298,2.0193,2.0561,2.0812,2.1354,2.184,2.1945,2.226,2.2419,2.2286,2.2652,2.2993,2.2958,2.3025,2.3116,2.3177,2.3224,2.3294,2.3427,2.3558,0.0,0.0,2.37,2.3764,2.3512,2.3728,2.4132,0.0,0.0,0.0,0.0,0.0,2.687,2.6705,2.6674,2.5945,2.4491,2.4727,2.4934,2.5076,2.5132,2.5168,2.5203,2.519,2.5241,2.5292,2.537,2.5395,2.5393,2.524,2.5215,2.5265,2.5281,2.4809,2.4121,2.4328,2.4238,2.3913,0.184,0.0465,-0.047,0.0134,-0.1207,-0.2751,-0.4102,-0.47,-0.5017,-0.5134,-0.5994,-0.6854,-0.7377,-0.7962,-0.8441,-0.8845,-1.0559,-1.1888,-1.2451,-1.2992,-1.3476,-1.3957,-1.4236,-1.4817,-1.5698,-1.6126,-1.6557,-1.6993,-1.7014,-1.7048,-1.7104,-1.7026,-1.6937,-1.6784,-1.5913,-1.5164,-1.436,-1.3361,-1.1825,-0.9916,-0.8176,-0.695,-0.5909,-0.3874,-0.3277,-0.2595,0.4125,0.6984,0.7563,0.7949,0.8228,0.8758,1.0788,1.2472,1.4125,1.6533,1.7279,1.7688,1.9415,2.0379,2.0991,2.1385,2.1748,2.2056,2.2298,2.2615,2.2825,2.2712,2.3007,2.3307,2.3323,2.3318,2.3382,2.3544,2.3522,2.3526,2.3759,2.3777,0.0,2.3768,2.3768,2.3747,2.366,2.3747,2.4055,2.4579,0.0,0.0,2.6265,2.6464,2.6481,2.6358,2.6495,2.5976,2.4697,2.4915,2.5082,2.5191,2.5195,2.5206,2.5187,2.5262,2.5322,2.5351,2.5378,2.5393,2.5401,2.5461,2.5538,2.5595,2.5606,2.5343,2.498,2.4987,2.496,2.4849,0.3066,0.1822,0.086,0.0463,0.0199,-0.0801,-0.3276,-0.382,-0.4023,-0.427,-0.5071,-0.6005,-0.6859,-0.7251,-0.7619,-0.8089,-0.9799,-1.1002,-1.1327,-1.2174,-1.2757,-1.3028,-1.3166,-1.3416,-1.3777,-1.4282,-1.4762,-1.5052,-1.5176,-1.5012,-1.4629,-1.4486,-1.422,-1.394,-1.3113,-1.2366,-1.1696,-1.0942,-0.9279,-0.7025,-0.5229,-0.3335,-0.1435,0.0056,0.2055,0.4207,0.547,0.6405,0.7198,0.7824,0.8031,0.8488,1.1123,1.2935,1.4669,1.7622,1.8971,1.9501,1.9444,2.0459,2.1598,2.1924,2.2096,2.2265,2.2439,2.279,2.3084,2.3038,2.3248,2.3553,2.3735,2.3548,2.3482,2.3878,2.3756,2.3699,2.4002,0.0,2.3901,2.4095,2.4037,2.3939,2.386,2.3979,2.4115,2.4248,2.4338,2.4793,0.0,2.5905,2.5891,2.5705,2.5989,2.5768,2.4961,2.5113,2.5191,2.5203,2.5209,2.5212,2.5192,2.5332,2.5389,2.5389,2.5395,2.5401,2.5401,2.5461,2.5538,2.5595,2.5606,2.5636,2.5703,2.5709,2.5696,2.5684,0.4593,0.3861,0.2496,0.0436,0.0064,-0.0065,-0.0583,-0.1651,-0.2885,-0.4169,-0.4434,-0.4831,-0.5572,-0.6086,-0.6461,-0.6715,-0.7591,-0.8483,-0.9309,-1.0345,-1.1031,-1.11,-1.1648,-1.2151,-1.2716,-1.2357,-1.2321,-1.2614,-1.2444,-1.2059,-1.1502,-1.1848,-1.1343,-1.0044,-0.9757,-0.8909,-0.774,-0.6921,-0.6027,-0.5073,-0.3935,-0.2325,-0.0444,0.0501,0.2619,0.5156,0.5711,0.642,0.7285,0.8309,0.8672,0.902,1.1149,1.3728,1.6246,1.7528,1.9806,2.1806,2.1445,2.179,2.2203,2.2039,2.2546,2.3042,2.2859,2.3182,2.3508,2.3562,2.371,2.3896,2.4154,2.4116,2.4097,2.4229,2.4338,2.4373,2.4265,0.0,2.4388,2.421,2.4265,2.4265,2.4137,2.4265,2.4372,2.4439,2.4632,2.4808,2.4984,2.5203,2.5335,2.5291,2.5971,2.5977,2.5156,2.518,2.5203,2.5206,2.5198,2.519,2.5192,2.5292,2.5312,2.5322,2.5369,2.5404,2.5401,2.5461,2.5538,2.5595,2.5606,2.5636,2.5703,2.5705,2.569,2.5681,0.4806,0.4569,0.388,0.2766,0.1738,0.0815,0.0126,-0.0699,-0.1345,-0.1924,-0.2628,-0.3526,-0.4693,-0.4874,-0.4928,-0.5072,-0.5491,-0.5864,-0.6245,-0.8075,-0.9232,-0.9395,-0.9786,-1.0207,-1.0685,-1.0557,-1.0479,-1.0406,-1.0681,-1.0244,-0.9054,-0.9342,-0.8821,-0.7578,-0.7583,-0.728,-0.6628,-0.5352,-0.4265,-0.3222,-0.2336,-0.0612,0.156,0.1947,0.3561,0.5635,0.6173,0.6668,0.7214,0.858,0.8823,0.8908,1.0998,1.3914,1.6676,1.7538,2.0004,2.2432,2.2371,2.25,2.2669,2.266,2.3025,2.3275,2.2797,2.3235,2.3668,2.3331,2.3704,2.4095,2.4229,2.4247,2.4321,2.4497,2.4561,0.0,0.0,2.457,2.4522,2.447,2.4489,2.4474,2.4369,2.4522,2.4636,2.4659,2.478,2.4896,2.5013,2.5125,2.5191,2.5191,2.5566,2.5585,2.5191,2.5203,2.5195,2.5195,2.5198,2.5201,2.5192,2.5312,2.5351,2.5351,2.5395,2.5421,2.5456,2.5488,2.5537,2.5609,2.5593,2.5641,2.5697,2.5703,2.5693,2.5684,0.4866,0.4797,0.4707,0.4707,0.3392,0.2006,0.0973,0.0429,0.0062,-0.0,-0.0984,-0.209,-0.3204,-0.339,-0.3525,-0.3521,-0.3703,-0.3762,-0.3699,-0.5751,-0.7186,-0.7665,-0.8043,-0.8385,-0.8715,-0.8591,-0.8439,-0.819,-0.8636,-0.8075,-0.6629,-0.6788,-0.6267,-0.5159,-0.5262,-0.5265,-0.5054,-0.3669,-0.2388,-0.1332,-0.0557,0.117,0.3292,0.3287,0.4388,0.6041,0.6578,0.6858,0.7144,0.8672,0.9199,0.9547,1.1491,1.4602,1.7653,1.8279,2.0512,2.279,2.285,2.2845,2.2858,2.2941,2.3035,2.2971,2.2395,2.3027,2.3583,2.3088,2.3694,2.4338,2.4389,2.4424,2.4526,2.4719,0.0,0.0,0.0,2.4771,2.4682,2.4799,2.476,2.47,2.4636,2.4775,2.4893,2.4896,2.4942,2.5044,2.5191,2.5203,2.5203,2.5203,2.5195,2.5195,2.5203,2.5195,2.5206,2.5225,2.522,2.5222,2.5233,2.5341,2.5398,2.5406,2.5404,2.5429,2.5484,2.5488,2.5537,2.559,2.5593,2.5621,2.5679,2.5685,2.5696,2.569,0.5246,0.4875,0.4501,0.4511,0.4225,0.384,0.3421,0.2357,0.1231,0.0123,-0.0308,-0.0492,-0.0307,-0.1475,-0.2306,-0.2468,-0.2525,-0.2609,-0.2807,-0.3412,-0.4405,-0.5916,-0.6538,-0.7081,-0.7601,-0.6097,-0.5481,-0.5755,-0.5238,-0.4501,-0.363,-0.3938,-0.3385,-0.2122,-0.1833,-0.1498,-0.1056,-0.0279,0.0278,0.0721,0.1339,0.245,0.377,0.3892,0.4937,0.6411,0.6686,0.6858,0.7144,0.8659,1.0454,1.2201,1.3273,1.6711,2.0321,2.0382,2.192,2.3512,2.317,2.2852,2.2574,2.2335,2.2092,2.1858,2.1626,2.239,2.3182,2.3254,2.4013,2.471,2.4905,2.4962,2.4937,2.4883,0.0,0.0,2.4998,2.5025,2.5076,2.5153,2.5101,2.5057,2.5057,2.5057,2.5095,2.5168,2.518,2.518,2.5191,2.5195,2.5206,2.5206,2.5203,2.5203,2.5206,2.5203,2.5236,2.5282,2.5222,2.5233,2.5284,2.5303,2.5351,2.5398,2.5406,2.5404,2.541,2.5461,2.5498,2.5505,2.5577,2.5607,2.5618,2.5676,2.5698,2.5696,0.5882,0.5719,0.5445,0.5069,0.4845,0.4548,0.388,0.3287,0.2731,0.2267,0.151,0.0986,0.1103,0.0753,0.0346,-0.0057,-0.0512,-0.1019,-0.1568,-0.1812,-0.2826,-0.4686,-0.5232,-0.5599,-0.577,-0.5245,-0.4528,-0.3784,-0.3277,-0.2654,-0.1949,-0.1775,-0.1444,-0.0892,-0.0111,0.039,0.0725,0.1341,0.2011,0.251,0.2124,0.2952,0.4491,0.4549,0.5588,0.7171,0.7605,0.767,0.7955,1.0926,1.2159,1.2875,1.5471,1.838,2.1138,2.2534,2.3328,2.3671,2.3264,2.3014,2.2832,2.2813,2.2481,2.1995,2.1339,2.199,2.2728,2.2741,2.3436,2.422,2.4872,2.5003,2.5027,2.5138,0.0,2.5182,2.519,2.5164,2.5184,2.525,2.5168,2.512,2.5214,2.518,2.5156,2.521,2.5191,2.5191,2.5191,2.5203,2.5195,2.5187,2.5206,2.5206,2.5187,2.5198,2.522,2.5241,2.5252,2.5273,2.5303,2.5351,2.5379,2.5395,2.5404,2.5429,2.5461,2.5488,2.5511,2.5563,2.5593,2.5638,2.5662,2.5691,2.5703,2.5698,0.648,0.6317,0.6046,0.566,0.5492,0.5109,0.4411,0.4079,0.386,0.3705,0.2914,0.235,0.2352,0.2465,0.2298,0.1625,0.1063,0.0503,-0.0224,-0.0448,-0.1411,-0.3285,-0.3574,-0.3707,-0.3793,-0.3735,-0.3118,-0.1836,-0.1497,-0.0944,-0.0223,0.0167,0.039,0.0558,0.1563,0.2066,0.2233,0.2959,0.3574,0.4024,0.3508,0.4271,0.5642,0.5697,0.6563,0.7871,0.8421,0.8521,0.8887,1.2211,1.3633,1.4506,1.7589,2.0188,2.2404,2.3998,2.4302,2.4026,2.3484,2.3116,2.2851,2.2596,2.209,2.1476,2.0835,2.1456,2.2236,2.2473,2.3203,2.4068,2.4983,2.5157,2.5216,2.5331,2.534,2.536,2.5361,2.5312,2.5273,2.5322,2.5217,2.5191,2.5269,2.5225,2.5191,2.5191,2.5191,2.5191,2.5203,2.5203,2.5195,2.5209,2.5209,2.5209,2.5239,2.5212,2.5203,2.5233,2.5282,2.5312,2.5322,2.5389,2.5397,2.5401,2.5401,2.5445,2.5495,2.5503,2.5535,2.5609,2.5601,2.5642,2.5696,2.5709,2.5705,2.5701,0.7133,0.6642,0.6209,0.6209,0.6095,0.5814,0.5214,0.4889,0.4512,0.3978,0.3755,0.3588,0.3596,0.3599,0.32,0.2184,0.2127,0.1846,0.1174,0.0838,-0.0056,-0.1679,-0.1451,-0.1448,-0.1783,-0.1399,-0.0784,-0.0,0.0224,0.0784,0.1621,0.1898,0.2174,0.2567,0.3405,0.3738,0.368,0.4666,0.5113,0.5179,0.5919,0.6627,0.7343,0.7439,0.7871,0.8474,0.885,0.919,0.9788,1.2058,1.479,1.7578,1.9592,2.2211,2.4528,2.4591,2.4749,2.4709,2.3833,2.3164,2.2459,2.1381,2.0557,1.9992,2.0003,2.0737,2.1671,2.2618,2.3547,2.4464,2.5337,2.557,2.5564,2.5422,2.5468,2.5495,2.5495,2.5448,2.5406,2.5406,2.5341,2.528,2.5222,2.5191,2.5191,2.5191,2.5191,2.5203,2.5187,2.5187,2.5209,2.5192,2.5192,2.5222,2.5311,2.5222,2.5233,2.5303,2.5302,2.5341,2.5398,2.5398,2.5406,2.5401,2.5401,2.5445,2.5503,2.5505,2.5543,2.5593,2.5598,2.564,2.5703,2.5694,2.5707,2.5707,0.7949,0.7729,0.7456,0.7074,0.6858,0.6529,0.5814,0.5651,0.5546,0.5285,0.5058,0.4783,0.4405,0.4301,0.419,0.4021,0.3342,0.2615,0.1781,0.1675,0.1397,0.0892,0.0613,0.039,0.0334,0.1115,0.1564,0.1679,0.2847,0.3014,0.2402,0.3345,0.3785,0.3837,0.456,0.4937,0.514,0.5751,0.6086,0.619,0.6709,0.7245,0.7747,0.796,0.8343,0.8725,0.8896,1.0043,1.1808,1.482,1.7437,1.9925,2.2648,2.4083,2.4809,2.4923,2.4936,2.4746,2.406,2.3755,2.3228,2.1693,2.0792,2.0419,2.0993,2.1384,2.2036,2.3545,2.4083,2.4542,2.5415,2.5583,2.5589,2.5551,2.5557,2.5544,2.5503,2.5448,2.5406,2.5406,2.5293,2.5239,2.5269,2.5217,2.5195,2.5191,2.5203,2.5206,2.5187,2.5209,2.5212,2.5282,2.5282,2.5273,2.5293,2.5273,2.5273,2.5303,2.5341,2.5389,2.5397,2.5395,2.544,2.5464,2.5464,2.5488,2.5505,2.5492,2.5537,2.5595,2.5605,2.5643,2.5694,2.5709,2.5707,2.5707,0.8995,0.889,0.8732,0.8343,0.7978,0.7551,0.6832,0.6519,0.6253,0.5991,0.5769,0.5492,0.5167,0.5003,0.4897,0.5014,0.4391,0.3773,0.3272,0.3174,0.3121,0.3171,0.2841,0.2395,0.1895,0.2567,0.3016,0.3123,0.4184,0.4349,0.3732,0.4563,0.4948,0.5046,0.5651,0.6027,0.6279,0.6945,0.7219,0.7309,0.8035,0.8462,0.8797,0.9408,0.9474,0.9422,1.0755,1.2047,1.3677,1.7332,2.0183,2.2537,2.4369,2.4984,2.5046,2.5163,2.4897,2.4423,2.3755,2.3578,2.327,2.1872,2.1473,2.1559,2.2036,2.2191,2.2616,2.4012,2.4296,2.4566,2.5432,2.5593,2.5604,2.5595,2.5609,2.5587,2.5557,2.5476,2.5429,2.5406,2.5332,2.5271,2.5261,2.5209,2.5206,2.5203,2.5198,2.5209,2.5209,2.5231,2.5252,2.5311,2.5302,2.5322,2.5341,2.5332,2.5332,2.5351,2.5389,2.5397,2.5404,2.5393,2.5429,2.5511,2.5511,2.5507,2.5505,2.5492,2.5547,2.5607,2.5609,2.5644,2.5707,2.5707,2.5707,2.5648,1.0064,0.9917,0.9814,0.9814,0.9295,0.8712,0.8112,0.7486,0.6961,0.6529,0.6258,0.6041,0.5991,0.576,0.5597,0.5386,0.5273,0.5214,0.516,0.5058,0.5007,0.5007,0.5007,0.445,0.3289,0.3408,0.379,0.4381,0.4732,0.512,0.5441,0.571,0.5977,0.6303,0.6902,0.7219,0.7433,0.8243,0.8613,0.8639,0.9747,1.0115,1.0218,1.1308,1.1132,1.0647,1.3618,1.48,1.5664,1.9809,2.291,2.5044,2.5061,2.5129,2.5235,2.5301,2.4812,2.4072,2.3339,2.3127,2.2951,2.2239,2.2583,2.3121,2.312,2.3112,2.3356,2.4236,2.4416,2.466,2.545,2.5591,2.5595,2.5593,2.56,2.5595,2.5595,2.5525,2.5468,2.5407,2.5389,2.5332,2.5209,2.5198,2.5198,2.5198,2.5201,2.5212,2.5212,2.5282,2.5292,2.5321,2.5322,2.5351,2.5398,2.5398,2.5398,2.5398,2.5398,2.5406,2.5401,2.5401,2.5437,2.5511,2.5511,2.5499,2.5503,2.5505,2.5542,2.5603,2.5607,2.5644,2.5707,2.5707,2.5707,2.559,1.0269,1.0115,1.0064,0.9961,0.9762,0.9503,0.9287,0.8764,0.8501,0.8817,0.8343,0.7812,0.732,0.7047,0.6725,0.6195,0.6036,0.5928,0.5814,0.5647,0.5592,0.5764,0.5968,0.6077,0.6027,0.5546,0.5441,0.5764,0.6317,0.6583,0.6622,0.7165,0.7706,0.8231,0.8744,0.9162,0.9429,1.0151,1.045,1.0493,1.1157,1.1183,1.0998,1.2415,1.2745,1.2726,1.4568,1.6866,1.9583,2.3125,2.4801,2.5394,2.5449,2.5459,2.5445,2.5521,2.5402,2.5251,2.5065,2.454,2.4141,2.4632,2.4418,2.4083,2.4034,2.4029,2.4277,2.5133,2.5318,2.5372,2.557,2.5604,2.561,2.5604,2.5593,2.557,2.5529,2.5448,2.5425,2.5398,2.5361,2.5292,2.5212,2.5201,2.5201,2.5201,2.5252,2.5282,2.5282,2.5283,2.5313,2.538,2.538,2.5398,2.5406,2.5406,2.5406,2.5406,2.5404,2.5393,2.5401,2.5456,2.5484,2.5511,2.5511,2.5499,2.5503,2.5505,2.5542,2.5603,2.5607,2.5644,2.5707,2.5707,2.5707,2.559,1.1242,1.104,1.099,1.0838,1.0482,1.0233,1.0028,0.9562,0.9347,0.9562,0.9302,0.8935,0.8554,0.8389,0.8119,0.7593,0.7391,0.723,0.7171,0.7058,0.695,0.6794,0.695,0.7111,0.7391,0.7009,0.6799,0.675,0.7224,0.7599,0.7753,0.8336,0.8869,0.9295,0.9695,1.0012,1.0233,1.083,1.1133,1.1292,1.207,1.2276,1.2286,1.3799,1.4328,1.4502,1.6902,1.9745,2.2703,2.4715,2.5439,2.5507,2.5546,2.5546,2.5545,2.5595,2.5301,2.4983,2.5012,2.4689,2.4456,2.49,2.5005,2.4968,2.4931,2.4916,2.5052,2.5504,2.56,2.5605,2.5609,2.5591,2.5609,2.5593,2.5582,2.5531,2.5461,2.5423,2.5379,2.5361,2.5322,2.5302,2.5252,2.5252,2.5252,2.5252,2.5273,2.5312,2.5351,2.5341,2.5361,2.5388,2.5397,2.5599,2.6022,2.6022,2.6223,2.6618,2.5807,2.5429,2.5456,2.5484,2.5511,2.5511,2.5511,2.5499,2.5503,2.5505,2.5542,2.5603,2.5607,2.5644,2.5707,2.5707,2.5434,2.5063,1.2412,1.2166,1.2017,1.1868,1.136,1.0905,1.0651,1.0233,0.9925,0.9873,0.9821,0.9666,0.9569,0.9465,0.9249,0.883,0.8573,0.8421,0.8421,0.848,0.8315,0.7883,0.8037,0.819,0.8237,0.8343,0.8131,0.7503,0.796,0.8389,0.883,0.9384,0.985,1.0218,1.0517,1.0771,1.099,1.1534,1.1841,1.2049,1.3006,1.3426,1.3747,1.5395,1.5994,1.6441,1.9485,2.2353,2.4769,2.5281,2.5468,2.5492,2.5517,2.5545,2.559,2.5605,2.5105,2.4539,2.46,2.4511,2.4443,2.4578,2.5005,2.5425,2.5589,2.5617,2.5605,2.5593,2.5605,2.5609,2.56,2.559,2.5601,2.5587,2.5538,2.5471,2.5398,2.5376,2.536,2.5322,2.5313,2.5303,2.5302,2.5292,2.5302,2.5321,2.5437,2.5544,2.561,2.5754,2.5841,2.5839,2.5839,2.6195,2.6917,2.6917,2.7273,2.7976,2.6539,2.5804,2.5704,2.5704,2.5627,2.5511,2.5492,2.5499,2.5503,2.5511,2.5542,2.5603,2.5607,2.5644,2.5707,2.5707,2.5238,2.4729,1.342,1.3025,1.2618,1.2521,1.2098,1.1669,1.1368,1.0854,1.0651,1.1015,1.0608,1.0293,1.0241,0.9725,0.9249,0.883,0.8778,0.8626,0.8421,0.8745,0.8844,0.8672,0.9444,0.9806,0.9703,1.0151,0.974,0.8408,0.8935,0.9399,0.9814,1.0387,1.1082,1.1913,1.2414,1.2793,1.311,1.3768,1.4014,1.3967,1.4641,1.4959,1.5203,1.6937,1.8139,1.9174,2.1081,2.3038,2.4772,2.5118,2.5371,2.5518,2.5565,2.5547,2.5541,2.5656,2.5564,2.5439,2.5508,2.4961,2.4571,2.5344,2.5048,2.4754,2.5517,2.5632,2.5599,2.5609,2.5599,2.5593,2.5605,2.5604,2.5589,2.5524,2.5514,2.5455,2.5332,2.5303,2.5322,2.5389,2.5389,2.5361,2.5303,2.5303,2.5313,2.538,2.6025,2.6439,2.6525,2.7181,2.7595,2.7652,2.7652,2.7709,2.7813,2.7813,2.7871,2.7995,2.7755,2.7271,2.6547,2.6547,2.616,2.5511,2.5507,2.5495,2.5503,2.5557,2.5591,2.5603,2.5607,2.5644,2.5707,2.5707,2.5629,2.5531,1.3658,1.342,1.3218,1.3064,1.2929,1.2745,1.2491,1.199,1.1633,1.1792,1.146,1.1167,1.0913,1.0506,1.019,0.9976,0.9673,0.9569,0.9777,0.9629,0.9725,1.01,1.0407,1.0517,1.0568,1.0813,1.0559,0.985,1.0277,1.0576,1.0661,1.1351,1.1999,1.2667,1.2957,1.3294,1.3711,1.4201,1.4422,1.4527,1.532,1.5966,1.6578,1.7887,1.9209,2.0542,2.2424,2.3785,2.4695,2.5069,2.5303,2.5448,2.5483,2.5498,2.5524,2.5626,2.5645,2.5663,2.5682,2.5425,2.5227,2.5597,2.5401,2.5213,2.5551,2.5609,2.5609,2.5644,2.5604,2.5556,2.5599,2.5564,2.5529,2.5456,2.5451,2.5416,2.5361,2.537,2.5379,2.5398,2.5361,2.5351,2.5351,2.5351,2.5582,2.6091,2.6458,2.6872,2.7392,2.7759,2.7971,2.7989,2.7989,2.8229,2.8722,2.8722,2.8973,2.9457,2.9457,2.8741,2.7406,2.6915,2.6536,2.6204,2.5708,2.551,2.5557,2.559,2.5595,2.5605,2.5607,2.5644,2.5707,2.5707,2.5705,2.5703]},{"header":{"parameterUnit":"m.s-1","parameterCategory":1,"la1":30.6,"la2":28.766,"lo1":-90.7593,"lo2":-88.6598,"dy":0.0162,"dx":0.0183,"nx":116,"ny":114,"refTime":"2023-09-08T18:00:00:Z","depth":0,"parameterNumber":3,"parameterNumberName":"V-component_of_WINDS"},"data":[0.0,0.0,0.0,0.0,0.0,0.0,0.0,0.0,0.0,0.0,0.0,0.0,0.0,0.0,0.0,0.0,0.0,0.0,0.0,0.0,0.0,0.0,0.0,0.0,0.0,0.0,0.0,0.0,0.0,0.0,0.0,0.0,0.0,0.0,0.0,0.0,0.0,0.0,0.0,0.0,0.0,0.0,0.0,0.0,0.0,0.0,0.0,0.0,0.0,0.0,0.0,0.0,0.0,0.0,0.0,0.0,0.0,0.0,0.0,0.0,0.0,0.0,0.0,0.0,0.0,0.0,0.0,0.0,0.0,0.0,0.0,0.0,0.0,0.0,0.0,0.0,0.0,0.0,0.0,0.0,0.0,0.0,0.0,0.0,0.0,0.0,0.0,0.0,0.0,0.0,0.0,0.0,0.0,0.0,0.0,0.0,0.0,0.0,0.0,0.0,0.0,0.0,0.0,0.0,0.0,0.0,0.0,0.0,0.0,0.0,0.0,0.0,0.0,0.0,0.0,0.0,0.0,0.0,0.0,0.0,0.0,0.0,0.0,0.0,0.0,0.0,0.0,0.0,0.0,0.0,0.0,0.0,0.0,0.0,0.0,0.0,0.0,0.0,0.0,0.0,0.0,0.0,0.0,0.0,0.0,0.0,0.0,0.0,0.0,0.0,0.0,0.0,0.0,0.0,0.0,0.0,0.0,0.0,0.0,0.0,0.0,0.0,0.0,0.0,0.0,0.0,0.0,0.0,0.0,0.0,0.0,0.0,0.0,0.0,0.0,0.0,0.0,0.0,0.0,0.0,0.0,0.0,0.0,0.0,0.0,0.0,0.0,0.0,0.0,0.0,0.0,0.0,0.0,0.0,0.0,0.0,0.0,0.0,0.0,0.0,0.0,0.0,0.0,0.0,0.0,0.0,0.0,0.0,0.0,0.0,0.0,0.0,0.0,0.0,0.0,0.0,0.0,0.0,0.0,0.0,0.0,0.0,0.0,0.0,0.0,0.0,0.0,0.0,0.0,0.0,0.0,0.0,0.0,0.0,0.0,0.0,0.0,0.0,0.0,0.0,0.0,0.0,0.0,0.0,0.0,0.0,0.0,0.0,0.0,0.0,0.0,0.0,0.0,0.0,0.0,0.0,0.0,0.0,0.0,0.0,0.0,0.0,0.0,0.0,0.0,0.0,0.0,0.0,0.0,0.0,0.0,0.0,0.0,0.0,0.0,0.0,0.0,0.0,0.0,0.0,0.0,0.0,0.0,0.0,0.0,0.0,0.0,0.0,0.0,0.0,0.0,0.0,0.0,0.0,0.0,0.0,0.0,0.0,0.0,0.0,0.0,0.0,0.0,0.0,0.0,0.0,0.0,0.0,0.0,0.0,0.0,0.0,0.0,0.0,0.0,0.0,0.0,0.0,0.0,0.0,0.0,0.0,0.0,0.0,0.0,0.0,0.0,0.0,0.0,0.0,0.0,0.0,0.0,0.0,0.0,0.0,0.0,0.0,0.0,0.0,0.0,0.0,0.0,0.0,0.0,0.0,0.0,0.0,0.0,0.0,0.0,0.0,0.0,0.0,0.0,0.0,0.0,0.0,0.0,0.0,0.0,0.0,0.0,0.0,0.0,0.0,0.0,0.0,0.0,0.0,0.0,0.0,0.0,0.0,0.0,0.0,0.0,0.0,0.0,0.0,0.0,0.0,0.0,0.0,0.0,0.0,0.0,0.0,0.0,0.0,0.0,0.0,0.0,0.0,0.0,0.0,0.0,0.0,0.0,0.0,0.0,0.0,0.0,0.0,0.0,0.0,0.0,0.0,0.0,0.0,0.0,0.0,0.0,0.0,0.0,0.0,0.0,0.0,0.0,0.0,0.0,0.0,0.0,0.0,0.0,0.0,0.0,0.0,0.0,0.0,0.0,0.0,0.0,0.0,0.0,0.0,0.0,0.0,0.0,0.0,0.0,0.0,0.0,0.0,0.0,0.0,0.0,0.0,0.0,0.0,0.0,0.0,0.0,0.0,0.0,0.0,0.0,0.0,0.0,0.0,0.0,0.0,0.0,0.0,0.0,0.0,0.0,0.0,0.0,0.0,0.0,0.0,0.0,0.0,0.0,0.0,0.0,0.0,0.0,0.0,0.0,0.0,0.0,0.0,0.0,0.0,0.0,0.0,0.0,0.0,0.0,0.0,0.0,0.0,0.0,0.0,0.0,0.0,0.0,0.0,0.0,0.0,0.0,0.0,0.0,0.0,0.0,0.0,0.0,0.0,0.0,0.0,0.0,0.0,0.0,0.0,0.0,0.0,0.0,0.0,0.0,0.0,0.0,0.0,0.0,0.0,0.0,0.0,0.0,0.0,0.0,0.0,0.0,0.0,0.0,0.0,0.0,0.0,0.0,0.0,0.0,0.0,0.0,0.0,0.0,0.0,0.0,0.0,0.0,0.0,0.0,0.0,0.0,0.0,0.0,0.0,0.0,0.0,0.0,0.0,0.0,0.0,0.0,0.0,0.0,0.0,0.0,0.0,0.0,0.0,0.0,0.0,0.0,0.0,0.0,0.0,0.0,0.0,0.0,0.0,0.0,0.0,0.0,0.0,0.0,0.0,0.0,0.0,0.0,0.0,0.0,0.0,0.0,0.0,0.0,0.0,0.0,0.0,0.0,0.0,0.0,0.0,0.0,0.0,0.0,0.0,0.0,0.0,0.0,0.0,0.0,0.0,0.0,0.0,0.0,0.0,0.0,0.0,0.0,0.0,0.0,0.0,0.0,0.0,0.0,0.0,0.0,0.0,0.0,0.0,0.0,0.0,0.0,0.0,0.0,0.0,0.0,0.0,0.0,0.0,0.0,0.0,0.0,0.0,0.0,0.0,0.0,0.0,0.0,0.0,0.0,0.0,0.0,0.0,0.0,0.0,0.0,0.0,0.0,0.0,0.0,0.0,0.0,0.0,0.0,0.0,0.0,0.0,0.0,0.0,0.0,0.0,0.0,0.0,0.0,0.0,0.0,0.0,0.0,0.0,0.0,0.0,0.0,0.0,0.0,0.0,0.0,0.0,0.0,0.0,0.0,0.0,0.0,0.0,0.0,0.0,0.0,0.0,0.0,0.0,0.0,0.0,0.0,0.0,0.0,0.0,0.0,0.0,0.0,0.0,0.0,0.0,0.0,0.0,0.0,0.0,0.0,0.0,0.0,0.0,0.0,0.0,0.0,0.0,0.0,0.0,0.0,0.0,0.0,0.0,0.0,0.0,0.0,0.0,0.0,0.0,0.0,0.0,0.0,0.0,0.0,0.0,0.0,0.0,0.0,0.0,0.0,0.0,0.0,0.0,0.0,0.0,0.0,0.0,0.0,0.0,0.0,0.0,0.0,0.0,0.0,0.0,0.0,0.0,0.0,0.0,0.0,0.0,0.0,0.0,0.0,0.0,0.0,0.0,0.0,0.0,0.0,0.0,0.0,0.0,0.0,0.0,0.0,0.0,0.0,0.0,0.0,0.0,0.0,0.0,0.0,0.0,0.0,0.0,0.0,0.0,0.0,0.0,0.0,0.0,0.0,0.0,0.0,0.0,0.0,0.0,0.0,0.0,0.0,0.0,0.0,0.0,0.0,0.0,0.0,0.0,0.0,0.0,0.0,0.0,0.0,0.0,0.0,0.0,0.0,0.0,0.0,0.0,0.0,0.0,0.0,0.0,0.0,0.0,0.0,0.0,0.0,0.0,0.0,0.0,0.0,0.0,0.0,0.0,0.0,0.0,0.0,0.0,0.0,0.0,0.0,0.0,0.0,0.0,0.0,0.0,0.0,0.0,0.0,0.0,0.0,0.0,0.0,0.0,0.0,0.0,0.0,0.0,0.0,0.0,0.0,0.0,0.0,0.0,0.0,0.0,0.0,0.0,0.0,0.0,0.0,0.0,0.0,0.0,0.0,0.0,0.0,0.0,0.0,0.0,0.0,0.0,0.0,0.0,0.0,0.0,0.0,0.0,0.0,0.0,0.0,0.0,0.0,0.0,0.0,0.0,0.0,0.0,0.0,0.0,0.0,0.0,0.0,0.0,0.0,0.0,0.0,0.0,0.0,0.0,0.0,0.0,0.0,0.0,0.0,0.0,0.0,0.0,0.0,0.0,0.0,0.0,0.0,0.0,0.0,0.0,0.0,0.0,0.0,0.0,0.0,0.0,0.0,0.0,0.0,0.0,0.0,0.0,0.0,0.0,0.0,0.0,0.0,0.0,0.0,0.0,0.0,0.0,0.0,0.0,0.0,0.0,0.0,0.0,0.0,0.0,0.0,0.0,0.0,0.0,0.0,0.0,0.0,0.0,0.0,0.0,0.0,0.0,0.0,0.0,0.0,0.0,0.0,0.0,0.0,0.0,0.0,0.0,0.0,0.0,0.0,0.0,0.0,0.0,0.0,0.0,0.0,0.0,0.0,0.0,0.0,0.0,0.0,0.0,0.0,0.0,0.0,0.0,0.0,0.0,0.0,0.0,0.0,0.0,0.0,0.0,0.0,0.0,0.0,0.0,0.0,0.0,0.0,0.0,0.0,0.0,0.0,0.0,0.0,0.0,0.0,0.0,0.0,0.0,0.0,0.0,0.0,0.0,0.0,0.0,0.0,0.0,0.0,0.0,0.0,0.0,0.0,0.0,0.0,0.0,0.0,0.0,0.0,0.0,0.0,0.0,0.0,0.0,0.0,0.0,0.0,0.0,0.0,0.0,0.0,0.0,0.0,0.0,0.0,0.0,0.0,0.0,0.0,0.0,0.0,0.0,0.0,0.0,0.0,0.0,0.0,0.0,0.0,0.0,0.0,0.0,0.0,0.0,0.0,0.0,0.0,0.0,0.0,0.0,0.0,0.0,0.0,0.0,0.0,0.0,0.0,0.0,0.0,0.0,0.0,0.0,0.0,0.0,0.0,0.0,0.0,0.0,0.0,0.0,0.0,0.0,0.0,0.0,0.0,0.0,0.0,0.0,0.0,0.0,0.0,0.0,0.0,0.0,0.0,0.0,0.0,0.0,0.0,0.0,0.0,0.0,0.0,0.0,0.0,0.0,0.0,0.0,0.0,0.0,0.0,0.0,0.0,0.0,0.0,0.0,0.0,0.0,0.0,0.0,0.0,0.0,0.0,0.0,0.0,0.0,0.0,0.0,0.0,0.0,0.0,0.0,0.0,0.0,0.0,0.0,0.0,0.0,0.0,0.0,0.0,0.0,0.0,0.0,0.0,0.0,0.0,0.0,0.0,0.0,0.0,0.0,0.0,0.0,0.0,0.0,0.0,0.0,0.0,0.0,0.0,0.0,0.0,0.0,0.0,0.0,0.0,0.0,0.0,0.0,0.0,0.0,0.0,0.0,0.0,0.0,0.0,0.0,0.0,0.0,0.0,0.0,0.0,0.0,0.0,0.0,0.0,0.0,0.0,0.0,0.0,0.0,0.0,0.0,0.0,0.0,0.0,0.0,0.0,0.0,0.0,0.0,0.0,0.0,0.0,0.0,0.0,0.0,0.0,0.0,0.0,0.0,0.0,0.0,0.0,0.0,0.0,0.0,0.0,0.0,0.0,0.0,0.0,0.0,0.0,0.0,0.0,0.0,0.0,0.0,0.0,0.0,0.0,0.0,0.0,0.0,0.0,0.0,0.0,0.0,0.0,0.0,0.0,0.0,0.0,0.0,0.0,0.0,0.0,0.0,0.0,0.0,0.0,0.0,0.0,0.0,0.0,0.0,0.0,0.0,0.0,0.0,0.0,0.0,0.0,0.0,0.0,0.0,0.0,0.0,0.0,0.0,0.0,0.0,0.0,0.0,0.0,0.0,0.0,0.0,0.0,0.0,0.0,0.0,0.0,0.0,0.0,0.0,0.0,0.0,0.0,0.0,0.0,0.0,0.0,0.0,0.0,0.0,0.0,0.0,0.0,0.0,0.0,0.0,0.0,0.0,0.0,0.0,0.0,0.0,0.0,0.0,0.0,0.0,0.0,0.0,0.0,0.0,0.0,0.0,0.0,0.0,0.0,0.0,0.0,0.0,0.0,0.0,0.0,0.0,0.0,0.0,0.0,0.0,0.0,0.0,0.0,0.0,0.0,0.0,0.0,0.0,0.0,0.0,0.0,0.0,-1.3978,0.0,0.0,0.0,0.0,0.0,0.0,0.0,0.0,0.0,0.0,0.0,0.0,0.0,0.0,0.0,0.0,0.0,0.0,0.0,0.0,0.0,0.0,0.0,0.0,0.0,0.0,0.0,0.0,0.0,0.0,0.0,0.0,0.0,0.0,0.0,0.0,0.0,0.0,0.0,-1.9557,-2.1781,-2.4109,-2.3901,-2.3964,-2.4254,0.0,0.0,0.0,0.0,0.0,0.0,0.0,0.0,0.0,0.0,0.0,0.0,0.0,0.0,0.0,0.0,0.0,0.0,0.0,0.0,0.0,0.0,0.0,0.0,0.0,0.0,0.0,0.0,0.0,0.0,0.0,0.0,0.0,0.0,0.0,0.0,0.0,0.0,0.0,0.0,0.0,0.0,0.0,0.0,0.0,0.0,0.0,0.0,0.0,0.0,0.0,0.0,0.0,0.0,0.0,0.0,0.0,0.0,0.0,0.0,0.0,0.0,0.0,0.0,0.0,0.0,0.0,0.0,0.0,0.0,0.0,-1.4592,0.0,0.0,0.0,0.0,0.0,0.0,0.0,0.0,0.0,0.0,0.0,0.0,0.0,0.0,0.0,0.0,0.0,0.0,0.0,0.0,0.0,0.0,0.0,0.0,-0.5526,-0.5382,-0.496,0.0,0.0,0.0,0.0,0.0,0.0,0.0,0.0,-1.4628,-1.7281,-1.9971,-2.2425,-2.4395,-2.586,-2.7299,-2.769,-2.7201,-2.6688,0.0,0.0,0.0,0.0,0.0,0.0,0.0,0.0,0.0,0.0,0.0,0.0,0.0,0.0,0.0,0.0,0.0,0.0,0.0,0.0,0.0,0.0,0.0,0.0,0.0,0.0,0.0,0.0,0.0,0.0,0.0,0.0,0.0,0.0,0.0,0.0,0.0,0.0,0.0,0.0,0.0,0.0,0.0,0.0,0.0,0.0,0.0,0.0,0.0,0.0,0.0,0.0,0.0,0.0,0.0,0.0,0.0,0.0,0.0,0.0,0.0,0.0,0.0,-1.8366,-1.973,-1.866,-1.8178,-1.7725,-1.7343,-1.6707,-1.611,-1.5431,0.0,0.0,0.0,0.0,0.0,0.0,0.0,0.0,0.0,0.0,0.0,0.0,0.0,0.0,0.0,0.0,0.0,0.0,0.0,0.0,0.0,0.0,-0.4064,-0.4475,-0.4563,-0.4276,-0.4278,0.0,0.0,0.0,0.0,0.0,0.0,-1.1459,-1.5229,-1.8726,-2.182,-2.4779,-2.5312,-2.3691,-2.6747,-2.857,-2.9254,-2.8345,-2.8182,-2.8593,0.0,0.0,0.0,0.0,0.0,0.0,0.0,0.0,0.0,0.0,0.0,0.0,0.0,0.0,0.0,0.0,0.0,0.0,0.0,0.0,0.0,0.0,0.0,0.0,0.0,0.0,0.0,0.0,0.0,0.0,0.0,0.0,0.0,0.0,0.0,0.0,0.0,0.0,0.0,0.0,0.0,-0.5781,-0.5007,0.0,0.0,0.0,0.0,0.0,0.0,0.0,0.0,0.0,0.0,0.0,0.0,0.0,0.0,-1.0428,-1.2459,-1.39,-1.4826,-1.6024,-1.6407,-1.6201,-1.7117,-1.7507,-1.7489,-1.7833,0.0,-1.584,-1.5665,0.0,0.0,0.0,0.0,0.0,0.0,0.0,0.0,0.0,0.0,0.0,0.0,0.0,0.0,0.0,0.0,0.0,0.0,0.0,0.0,0.0,-0.2197,-0.2037,-0.2157,-0.1579,-0.1353,-0.1539,0.0,0.0,0.0,0.0,-0.6658,-1.1672,-1.309,-1.6273,-2.1463,-2.4079,-2.495,-2.4226,-2.6774,-2.8035,-2.8149,-2.8921,-2.9047,-2.8649,-2.7409,0.0,0.0,0.0,0.0,0.0,0.0,0.0,0.0,0.0,0.0,0.0,0.0,0.0,0.0,0.0,0.0,0.0,0.0,0.0,0.0,0.0,0.0,0.0,0.0,0.0,0.0,0.0,0.0,0.0,0.0,0.0,0.0,0.0,0.0,0.0,0.0,0.0,0.0,0.0,-0.6176,-0.6701,-0.6677,-0.7217,-0.7183,0.0,0.0,0.0,0.0,0.0,0.0,0.0,0.0,0.0,-0.8231,-1.0468,-1.2057,-1.263,-1.3021,-1.3643,-1.451,-1.5641,-1.5992,-1.5581,-1.6804,-1.7219,-1.7055,-1.786,-1.7541,-1.6542,-1.6291,-1.5896,-1.5435,0.0,0.0,0.0,0.0,0.0,-1.8469,0.0,0.0,0.0,0.0,0.0,0.0,0.0,0.0,0.0,0.0,0.0,0.0,-0.1115,-0.0409,0.0141,0.0506,0.113,0.1561,0.169,0.2539,0.0,0.0,0.0056,-0.3731,-1.0731,-1.2515,-1.5494,-1.985,-2.2,-2.3099,-2.3165,-2.5401,-2.6436,-2.6469,-2.8425,-2.9098,-2.8711,-2.7052,-2.6508,-2.6693,0.0,0.0,0.0,0.0,0.0,0.0,0.0,0.0,0.0,0.0,0.0,0.0,0.0,0.0,0.0,0.0,0.0,0.0,0.0,0.0,0.0,0.0,0.0,0.0,0.0,0.0,0.0,0.0,0.0,0.0,0.0,0.0,0.0,0.0,0.0,0.0,0.0,-0.6485,-0.7362,-0.8559,-0.828,-0.7644,0.0,0.0,0.0,0.0,0.0,0.0,-0.6996,-0.7512,-0.874,-1.0717,-1.2673,-1.3719,-1.3621,-1.3072,-1.3204,-1.372,-1.52,-1.5564,-1.5146,-1.6123,-1.6393,-1.6193,-1.7133,-1.7306,-1.7032,-1.6793,-1.6536,-1.6178,-1.5855,-1.5936,-1.6397,-1.6869,-1.7957,-1.9155,0.0,0.0,0.0,0.0,0.0,0.0,0.0,0.0,0.0,0.0,0.0,-0.0328,0.0756,0.0832,0.1442,0.292,0.3142,0.3503,0.4259,0.5754,0.6464,0.6128,0.3962,-0.052,-0.7492,-1.5841,-1.907,-1.6923,-1.8834,-1.9258,-1.8403,-2.1416,-2.3622,-2.5078,-2.6358,-2.7966,-2.9519,-2.7995,-2.7792,-2.8391,-2.6132,0.0,0.0,0.0,0.0,0.0,0.0,0.0,0.0,0.0,0.0,0.0,0.0,0.0,0.0,0.0,0.0,0.0,0.0,0.0,0.0,0.0,0.0,0.0,0.0,0.0,0.0,0.0,0.0,0.0,0.0,0.0,0.0,0.0,0.0,0.0,0.0,0.0,0.0,-1.0206,-0.8136,0.0,0.0,0.0,0.0,-0.8521,-0.9095,-0.832,-0.5637,-0.5534,-0.8136,-1.3756,-1.3021,-1.2309,-1.1982,-1.3377,-1.3602,-1.2531,-1.3422,-1.3957,-1.3935,-1.4527,-1.482,-1.4808,-1.572,-1.652,-1.7172,-1.7599,-1.7186,-1.6309,-1.6058,-1.5742,-1.5521,-1.583,-1.653,-1.75,0.0,0.0,0.0,0.0,0.0,0.0,0.0,0.0,0.0,-0.0124,0.0499,0.1203,0.2165,0.3513,0.4533,0.4995,0.6633,0.7509,0.7335,0.9315,1.0024,0.8976,0.9579,0.6501,-0.0864,-0.9698,-1.4295,-1.444,-1.6291,-1.7434,-1.8008,-2.0665,-2.204,-2.2259,-2.4894,-2.6409,-2.7,-2.7653,-2.7485,-2.67,-2.5914,-2.5678,0.0,0.0,0.0,0.0,0.0,0.0,0.0,0.0,0.0,0.0,0.0,0.0,0.0,0.0,0.0,0.0,0.0,0.0,0.0,0.0,0.0,0.0,0.0,0.0,0.0,0.0,0.0,0.0,0.0,0.0,0.0,0.0,0.0,0.0,0.0,0.0,0.0,-1.0386,-0.795,0.0,-0.6125,-0.7,-0.8201,-0.9816,-0.8048,-0.6484,-0.5446,-0.5271,-0.6169,-0.8311,-0.9808,-1.0826,-1.1375,-1.2602,-1.3244,-1.3301,-1.3503,-1.3599,-1.3593,-1.3815,-1.3976,-1.3976,-1.4773,-1.5275,-1.5413,-1.6592,-1.7127,-1.7267,-1.6952,-1.6755,-1.6667,-1.6784,-1.7447,-1.8247,0.0,0.0,0.0,0.0,0.0,0.0,0.0,0.0,0.0662,0.1611,0.2382,0.3249,0.4254,0.5823,0.7124,0.7806,0.954,1.0565,1.0562,1.262,1.3404,1.2258,1.1604,0.8413,0.229,-0.5512,-1.0738,-1.326,-1.3995,-1.5296,-1.7109,-1.9021,-2.0029,-2.0346,-2.3485,-2.4948,-2.5183,-2.7214,-2.7194,-2.5902,-2.5762,-2.5442,-2.5029,0.0,0.0,0.0,0.0,0.0,0.0,0.0,0.0,0.0,0.0,0.0,0.0,0.0,0.0,0.0,0.0,0.0,0.0,0.0,0.0,0.0,0.0,0.0,0.0,0.0,0.0,0.0,0.0,0.0,0.0,0.0,0.0,0.0,0.0,0.0,-0.581,-0.8756,-0.7235,-0.5806,-0.5506,-0.6238,-0.7389,-0.883,-0.6698,-0.5426,-0.5385,-0.5247,-0.5569,-0.6364,-0.803,-0.9376,-1.0404,-1.1803,-1.2467,-1.263,-1.3115,-1.3313,-1.3238,-1.3238,-1.3238,-1.3333,-1.3819,-1.4115,-1.4252,-1.5616,-1.6587,-1.7244,-1.7319,-1.7326,-1.7326,-1.7326,-1.7692,-1.8319,0.0,0.0,0.0,0.0,0.0,0.0,0.0,0.1716,0.2415,0.37,0.464,0.5631,0.6954,0.761,0.8974,1.1377,1.1798,1.2474,1.3775,1.5592,1.6526,1.612,1.0067,0.5193,0.1947,-0.385,-0.8921,-1.3191,-1.2005,-1.2789,-1.538,-1.6234,-1.762,-1.9529,-2.2089,-2.3639,-2.452,-2.6714,-2.7094,-2.6269,-2.5751,-2.5137,-2.4495,0.0,0.0,0.0,0.0,0.0,0.0,0.0,0.0,0.0,0.0,0.0,0.0,0.0,0.0,0.0,0.0,0.0,0.0,0.0,0.0,0.0,0.0,0.0,0.0,0.0,0.0,0.0,0.0,0.0,0.0,0.0,0.0,0.0,-0.1433,-0.1559,-0.2652,-0.5536,-0.5824,-0.5793,-0.562,-0.5519,-0.5422,-0.5454,-0.5422,-0.5365,-0.5375,-0.529,-0.6262,-0.8692,-0.8078,-0.8098,-0.9105,-1.0941,-1.1266,-1.0268,-1.2184,-1.2974,-1.2764,-1.2759,-1.2764,-1.2764,-1.2764,-1.3238,-1.3902,-1.4765,-1.5527,-1.6285,-1.7044,-1.7326,-1.7326,-1.7326,-1.7318,-1.7446,0.0,0.0,0.0,0.0,0.0,0.0,0.0,0.1723,0.2703,0.3779,0.4745,0.5825,0.7022,0.893,1.036,1.1114,1.3229,1.4603,1.4932,1.68,1.8834,2.089,1.7829,1.4257,1.0365,0.4222,-0.1937,-0.8109,-1.1151,-1.3378,-1.4809,-1.644,-1.7471,-1.809,-2.0664,-2.2515,-2.3776,-2.5288,-2.6035,-2.6335,-2.6718,-2.6534,-2.6037,0.0,0.0,0.0,0.0,0.0,0.0,0.0,0.0,0.0,0.0,0.0,0.0,0.0,0.0,0.0,0.0,0.0,0.0,0.0,0.0,0.0,0.0,0.0,0.0,0.0,0.0,0.0,0.0,0.0,0.0,0.0,0.0,-0.1575,-0.1619,-0.1641,-0.2371,-0.4111,-0.4643,-0.4958,-0.5367,-0.5418,-0.5426,-0.5456,-0.5361,-0.5349,-0.5286,-0.5196,-0.5445,-0.6032,-0.6308,-0.6896,-0.7742,-0.882,-0.9485,-0.9766,-1.1132,-1.1722,-1.1668,-1.2462,-1.2764,-1.2764,-1.2764,-1.2958,-1.3147,-1.3908,-1.4669,-1.5527,-1.6756,-1.7326,-1.7326,-1.7326,-1.7179,-1.712,0.0,0.0,0.0,0.0,0.0,0.0,0.0,0.2314,0.3206,0.4365,0.5428,0.6564,0.7788,0.9642,1.1137,1.1896,1.3859,1.5421,1.617,1.8315,2.0512,2.2708,2.0839,1.7634,1.3111,0.6322,-0.0378,-0.6899,-1.1524,-1.4376,-1.5597,-1.6608,-1.7467,-1.8326,-2.0599,-2.2211,-2.3354,-2.4692,-2.5552,-2.6083,-2.6733,-2.6706,-2.6281,-2.671,-2.6607,-2.627,-2.6813,-2.6659,-2.6149,-2.5819,0.0,0.0,0.0,0.0,0.0,0.0,0.0,0.0,0.0,0.0,0.0,0.0,0.0,0.0,0.0,0.0,0.0,0.0,0.0,0.0,0.0,0.0,0.0,0.0,-0.1458,-0.1651,-0.1701,-0.1784,-0.2285,-0.3654,-0.4088,-0.4596,-0.5346,-0.5455,-0.5418,-0.5331,-0.5324,-0.5284,-0.5192,-0.51,-0.5149,-0.5237,-0.5514,-0.5891,-0.6405,-0.739,-0.8161,-0.865,-0.9842,-1.0676,-1.1175,-1.1868,-1.2365,0.0,-1.2657,-1.2619,-1.2704,-1.3343,-1.4048,0.0,0.0,0.0,0.0,0.0,-1.6806,-1.6766,0.0,0.0,0.0,0.0,0.0,0.0,0.0,0.3137,0.3856,0.5051,0.6304,0.7516,0.8731,0.9987,1.1404,1.3103,1.4047,1.5395,1.7354,1.9637,2.1401,2.2474,2.0925,1.7818,1.3057,0.5922,-0.0837,-0.7183,-1.1852,-1.5151,-1.7157,-1.7083,-1.7935,-1.9666,-2.1341,-2.2535,-2.3455,-2.4847,-2.5579,-2.5842,-2.632,-2.6199,-2.5868,-2.6362,-2.6467,-2.643,-2.7164,-2.6978,-2.6478,-2.686,0.0,0.0,0.0,0.0,0.0,0.0,0.0,0.0,0.0,0.0,0.0,0.0,0.0,0.0,0.0,0.0,0.0,0.0,0.0,0.0,0.0,0.0,0.0,0.0,-0.1343,-0.142,-0.1446,-0.1468,-0.2026,-0.3588,-0.3756,-0.4013,-0.4903,-0.5016,-0.4983,-0.4798,-0.4901,-0.4972,-0.4884,0.0,0.0,0.0,0.0,-0.5181,-0.5371,-0.6385,-0.6924,-0.7024,-0.8407,-0.9682,-1.0942,-1.1137,-1.1716,-1.2673,-1.2463,-1.2371,-1.2355,-1.286,-1.3471,-1.4289,-1.5386,-1.6239,-1.6755,-1.6396,-1.6265,0.0,0.0,0.0,0.0,0.0,0.0,0.0,0.0,0.3553,0.4464,0.4604,0.6195,0.7605,0.8404,0.9798,1.1341,1.2939,1.4157,1.5736,1.7814,1.9022,2.0207,2.1462,2.1842,2.0624,1.7596,1.3021,0.6464,-0.2117,-0.7695,-1.2886,-1.7622,-1.9071,-2.0104,-2.0814,-2.2021,-2.3438,-2.4993,-2.5554,-2.6302,-2.7103,-2.6601,-2.6447,-2.6624,-2.7738,-2.7779,-2.7252,-2.7415,-2.7821,-2.8023,-2.6306,-2.6872,-2.7933,-2.5803,-2.556,0.0,0.0,0.0,0.0,0.0,0.0,0.0,0.0,0.0,0.0,0.0,0.0,0.0,0.0,0.0,0.0,0.0,0.0,0.0,-0.0446,-0.0569,-0.0397,0.0202,0.0305,-0.0206,-0.1706,-0.1502,-0.1505,-0.2148,-0.247,-0.2574,-0.2565,-0.3314,-0.382,-0.3753,-0.4566,0.0,-0.4989,-0.4954,-0.4845,-0.4962,-0.5347,-0.5536,-0.5639,0.0,0.0,-0.9284,-1.0345,-1.1407,-1.2276,-1.214,-1.2118,-1.2205,-1.2248,-1.2919,-1.3995,-1.5616,-1.6373,-1.6389,-1.5818,-1.5606,-1.5518,0.0,0.0,0.0,0.0,0.0,0.0,0.0,0.3623,0.4423,0.4992,0.6203,0.7423,0.8606,0.9749,1.1072,1.2579,1.4402,1.6139,1.7786,1.8815,1.9588,2.0077,2.0765,1.9931,1.7337,1.2702,0.7069,0.0447,-0.5127,-0.9795,-1.3626,-1.6816,-1.8498,-1.8988,-2.2178,-2.4346,-2.5655,-2.5932,-2.6331,-2.6774,-2.6608,-2.6379,-2.6206,-2.7243,-2.7689,-2.7795,-2.8195,-2.8405,-2.8407,-2.7712,-2.8058,-2.8551,-2.739,-2.7284,-2.6888,0.0,0.0,0.0,0.0,0.0,0.0,0.0,0.0,0.0,0.0,0.0,0.0,0.0,0.0,-0.1368,0.0,0.0,-0.0453,-0.0374,0.0,0.0299,0.0705,0.1109,0.0913,-0.0517,-0.0622,-0.0727,-0.1362,-0.1678,-0.1783,-0.1783,-0.2308,-0.2603,-0.2455,-0.2964,-0.3559,-0.4029,-0.4029,-0.423,-0.4834,-0.4937,-0.5037,-0.524,-0.6037,-0.6997,-0.8199,-0.9276,-1.0423,-1.1455,-1.1791,-1.1876,-1.1945,-1.1965,-1.2394,-1.296,-1.4482,-1.5259,-1.5621,-1.5299,-1.5079,-1.486,0.0,0.0,0.0,0.0,0.0,0.0,0.0,0.0,0.4376,0.5415,0.629,0.7357,0.8854,0.9691,1.0769,1.2393,1.446,1.6102,1.7137,1.8145,1.8625,1.8541,1.8936,1.813,1.6014,1.132,0.6748,0.2332,-0.2525,-0.6345,-0.9219,-1.3673,-1.6208,-1.7186,-2.2285,-2.5129,-2.6111,-2.631,-2.6329,-2.6307,-2.6484,-2.6321,-2.5987,-2.6222,-2.6957,-2.7967,-2.8801,-2.8794,-2.8394,-2.8793,-2.8883,-2.8721,-2.8143,-2.804,-2.7394,-2.3853,-2.101,0.0,0.0,0.0,0.0,0.0,0.0,0.0,0.0,0.0,-0.2416,-0.3026,-0.1635,-0.0504,-0.0875,-0.0363,0.0094,0.0098,0.0598,0.1107,0.1204,0.1805,0.18,0.0695,0.03,-0.0101,-0.0511,-0.0925,-0.103,-0.103,-0.1235,-0.133,-0.1312,-0.1513,-0.2017,-0.2821,-0.2922,-0.3425,-0.4431,-0.4531,-0.4734,-0.514,-0.512,-0.5894,-0.7343,-0.8161,-0.921,-1.0571,-1.1341,-1.1634,-1.1602,-1.181,-1.1916,-1.2052,-1.2881,-1.3708,-1.4417,-1.4561,-1.4501,-1.4187,0.0,0.0,0.0,0.0,0.0,0.0,0.0,0.0,0.0,0.5001,0.6469,0.7937,0.8916,0.95,1.0659,1.2764,1.3878,1.4778,1.544,1.5886,1.6358,1.6847,1.707,1.6988,1.6511,1.46,1.0764,0.4899,0.1669,-0.2717,-0.8157,-1.254,-1.5912,-1.8472,-2.2827,-2.5549,-2.689,-2.6956,-2.6996,-2.6931,-2.6322,-2.6711,-2.7422,-2.5607,-2.5905,-2.7432,-2.8458,-2.8793,-2.8522,-2.7058,-2.8237,-2.9811,-2.7241,-2.6644,-2.6636,-2.5316,-2.2109,-1.8486,-1.6278,-1.3227,-1.0581,-1.0147,-0.8313,-0.6522,0.0,0.0,-0.1711,-0.2702,-0.0795,0.0803,-0.0183,0.0187,0.0957,0.1661,0.1893,0.2106,0.2761,0.2952,0.2915,0.2719,0.2347,0.2005,0.1877,0.1504,0.1216,0.1216,0.0303,-0.0202,-0.0202,-0.1109,-0.1613,-0.1815,-0.1815,-0.2318,-0.3324,-0.3425,-0.3828,-0.4834,-0.5053,-0.5543,-0.6478,-0.7009,-0.8144,-0.9768,-1.0876,-1.13,-1.1386,-1.1332,-1.1556,-1.1784,-1.1834,-1.2184,-1.2611,-1.3404,-1.3638,-1.3514,0.0,0.0,0.0,0.0,0.0,0.0,0.0,0.0,0.0,0.0,0.6917,0.8052,0.86,0.9687,1.0981,1.2414,1.3283,1.4086,1.4755,1.5163,1.533,1.5262,1.5496,1.5318,1.4744,1.3752,1.154,0.811,0.5394,0.2485,-0.0621,-0.6184,-0.9789,-1.1866,-1.7113,-2.1924,-2.6106,-2.5914,-2.635,-2.7206,-2.7007,-2.6699,-2.6236,-2.5335,-2.5431,-2.6328,-2.8571,-2.9284,0.0,-2.8309,-2.7798,-2.7212,-2.5705,-2.5419,-2.5497,-2.4335,-2.2003,-1.9163,-1.5892,-1.2462,-0.9604,-0.8743,-0.6995,-0.5274,-0.4277,-0.2195,-0.0668,-0.1131,0.0531,0.1702,0.0453,0.1305,0.2298,0.0,0.2761,0.2969,0.3924,0.3844,0.375,0.3643,0.3842,0.355,0.2315,0.2062,0.1896,0.1615,0.1313,0.111,0.0908,0.0505,0.0,-0.0694,-0.0694,-0.1184,-0.234,-0.2827,-0.3409,-0.3799,-0.445,-0.5081,-0.5596,-0.6409,-0.7897,-0.9749,-1.0025,-1.0424,-1.0819,-1.0492,-1.0351,-1.0528,-1.1051,-1.1291,-1.158,-1.2451,-1.2806,-1.2862,0.0,0.0,0.0,0.0,0.0,0.0,0.0,0.0,0.0,0.0,0.0,0.799,0.8553,0.9925,1.115,1.1931,1.2735,1.3362,1.3909,1.4283,1.4272,1.3888,1.4086,1.3956,1.3314,1.2764,1.1778,1.037,0.8163,0.6435,0.5151,0.0234,-0.3703,-0.6765,-1.1923,-1.7126,-2.1968,-2.1606,-2.3509,-2.6814,-2.6911,-2.6261,-2.5242,-2.5307,-2.5255,-2.5584,-2.8892,-2.934,-2.8382,-2.8389,-2.7047,-2.5356,-2.4972,-2.5022,-2.4975,-2.3762,-2.1889,-1.936,-1.5651,-1.2281,-0.9332,-0.7438,-0.5701,-0.3944,-0.2089,-0.04,0.0744,0.0844,0.2147,0.2869,0.1742,0.2706,0.3824,0.3994,0.3952,0.417,0.4914,0.4769,0.454,0.4535,0.4938,0.4658,0.3179,0.2968,0.284,0.2697,0.2403,0.2209,0.2119,0.1809,0.1195,0.049,0.039,-0.0097,-0.1237,-0.1902,-0.2566,-0.3137,-0.3788,-0.4438,-0.4902,-0.5954,-0.7496,-0.9231,-0.9224,-0.9606,-1.0396,-0.9884,-0.9593,-0.9525,-1.0189,-1.0511,-1.0738,-1.1354,-1.1838,-1.2211,0.0,0.0,0.0,0.0,0.0,0.0,0.0,0.0,0.0,0.0,0.0,0.0,0.0,1.0131,1.1006,1.1469,1.2126,1.252,1.2578,1.2676,1.2803,1.2861,1.2957,1.3064,1.3016,1.2861,1.2209,1.0956,0.9651,0.8128,0.6333,0.5066,0.0694,-0.6341,-0.9374,-1.1676,-1.3159,-1.2873,-1.7733,-2.5529,-2.5408,-2.5335,-2.5329,-2.5598,-2.5403,-2.5514,-2.9383,-2.8637,-2.5809,-2.5812,-2.5753,-2.5697,-2.5754,-2.577,-2.5611,-2.4698,-2.2004,-1.8744,-1.5916,-1.3125,-1.0253,-0.7281,-0.4971,-0.2764,-0.0076,0.148,0.2595,0.3052,0.4293,0.4955,0.3974,0.4715,0.5418,0.5356,0.5647,0.5847,0.5731,0.5615,0.5499,0.5559,0.5459,0.5331,0.0,0.4824,0.4784,0.5266,0.3816,0.3159,0.3518,0.228,0.1573,0.1571,0.1446,0.0953,-0.0095,-0.019,-0.1141,-0.3136,-0.308,-0.3514,-0.4432,-0.5657,-0.6753,-0.7671,-0.8622,-0.9446,-0.9938,-0.9916,-0.9637,-0.9217,-0.9206,-0.9591,-1.0047,-1.0053,-1.0758,-1.1608,0.0,0.0,0.0,0.0,0.0,0.0,0.0,0.0,0.0,0.0,0.0,0.0,0.0,0.0,0.0,0.0,1.1108,1.1628,1.1828,1.2026,1.2126,1.2058,1.2255,1.2138,1.1566,1.1334,1.0981,1.0466,0.9103,0.8165,0.7587,0.6036,0.3756,0.0806,-0.0966,-0.2503,-0.3726,-0.4047,-0.5882,-0.8535,-0.8018,-1.6256,-2.8645,-2.6464,-2.5146,-2.4608,0.0,-2.5843,-2.5427,-2.539,-2.5312,-2.5228,-2.5111,-2.5074,-2.4884,-2.3917,-2.2218,-1.9641,-1.5105,-1.2393,-0.9609,-0.4483,-0.1623,0.0438,0.233,0.428,0.5628,0.5597,0.6814,0.7425,0.6273,0.6379,0.6806,0.7161,0.6779,0.6453,0.6781,0.7126,0.7125,0.6487,0.7499,0.0,0.0,0.0,0.0,0.5158,0.4674,0.4102,0.3354,0.2912,0.239,0.1512,0.1501,0.13,0.0915,0.0274,-0.0366,-0.1097,-0.2362,-0.3479,-0.4426,-0.4853,-0.5597,-0.6515,-0.7196,-0.7873,-0.862,-0.8831,-0.8894,-0.8732,-0.8955,-0.9295,-0.9742,-0.992,-1.0251,-1.0638,0.0,0.0,0.0,0.0,0.0,0.0,0.0,0.0,0.0,0.0,0.0,0.0,0.0,0.0,0.0,0.0,0.0,1.0905,1.1116,1.1368,1.1469,1.1326,1.1569,1.146,1.099,1.0897,1.0702,1.0379,0.9451,0.8725,0.8043,0.6766,0.5572,0.4467,0.3697,0.2408,0.0889,0.0493,0.0679,0.1257,0.0855,-1.1039,-2.7396,-1.6764,-1.747,0.0,-2.08,-2.1898,-2.4774,-2.4907,-2.4883,-2.4807,-2.4724,-2.4617,-2.4375,-2.3592,-2.0774,-1.701,-1.2941,-0.8596,-0.4222,-0.0219,0.2593,0.4495,0.5155,0.6604,0.7771,0.7674,0.8513,0.8953,0.7719,0.7934,0.8328,0.8571,0.8184,0.7986,0.845,0.8755,0.8879,0.8508,0.9493,1.0159,0.0,0.0,0.0,0.6932,0.6065,0.5232,0.4442,0.3991,0.318,0.2035,0.2006,0.1798,0.1419,0.0792,0.0175,-0.0526,-0.2102,-0.3366,-0.4283,-0.436,-0.4836,-0.5659,-0.5909,-0.662,-0.7688,-0.7961,-0.8195,-0.843,-0.8584,-0.8955,-0.9455,-0.9629,-0.9876,-1.0163,0.0,0.0,0.0,0.0,0.0,0.0,0.0,0.0,0.0,0.0,0.0,0.0,0.0,0.0,0.0,0.0,0.0,0.0,1.0352,1.06,1.071,1.0667,1.082,1.1023,1.1267,1.1519,1.1318,1.0616,1.0624,0.9681,0.7961,0.7436,0.6237,0.4473,0.4432,0.3193,0.1008,0.0897,0.1887,0.3259,0.1239,-0.8963,-2.057,0.1289,-0.4182,-2.2533,-1.5085,-1.7305,-2.3839,-2.4308,-2.4454,-2.4486,-2.4605,-2.4424,-2.4029,-2.3388,-1.7816,-1.1387,-0.9272,-0.205,0.4966,0.5276,0.7415,0.9228,0.8316,0.8626,0.9188,0.9363,0.961,0.9524,0.8711,0.94,1.0007,0.9516,0.9885,1.0286,1.0477,1.0507,1.0701,0.0,0.0,0.0,0.0,0.0,0.0,1.0375,0.0,0.6388,0.6711,0.5291,0.3954,0.2948,0.2921,0.2425,0.1474,0.1359,0.042,-0.1256,-0.2175,-0.3093,-0.3918,-0.3993,-0.4318,-0.4867,-0.4918,-0.5748,-0.7098,-0.7163,-0.7565,-0.8129,-0.818,-0.8572,-0.9169,-0.9157,-0.9545,-1.0075,0.0,0.0,0.0,0.0,0.0,0.0,0.0,0.0,0.0,0.0,0.0,0.0,0.0,0.0,0.0,0.0,0.0,0.0,0.9621,0.9925,1.0131,1.03,1.0718,1.0812,1.0626,1.0712,1.0458,0.988,0.9668,0.9249,0.8585,0.8847,0.7117,0.383,0.3808,0.3484,0.2815,0.0995,0.0745,0.1861,0.4712,0.3845,0.0584,-0.1932,-0.8175,-1.5272,-1.3144,-1.7219,-2.3613,-2.3897,-2.3971,-2.3971,-2.3971,-2.3694,-2.2429,-1.7644,-1.4498,-1.0603,-0.1677,0.2734,0.5919,1.0401,1.2324,1.2986,1.2667,1.3138,1.3374,1.2358,1.237,1.2432,1.2282,1.1249,1.0776,1.1675,1.1573,0.0,1.2236,1.2316,0.0,1.2263,0.0,1.1928,1.231,1.2128,0.0,0.0,1.0034,0.8356,0.7468,0.6355,0.5102,0.3879,0.3605,0.3129,0.2286,0.166,0.0732,-0.0319,-0.0718,-0.1566,-0.28,-0.2893,-0.328,-0.3852,-0.449,-0.4947,-0.536,-0.6451,-0.703,-0.7265,-0.7517,-0.8098,-0.8795,-0.8654,-0.9065,-0.9738,0.0,0.0,0.0,0.0,0.0,0.0,0.0,0.0,0.0,0.0,0.0,0.0,0.0,0.0,0.0,0.0,0.0,0.0,0.0,0.9413,0.9673,0.9932,1.0462,1.0659,1.0474,1.0661,1.0702,1.0498,1.0495,1.001,0.9138,0.8724,0.7553,0.5896,0.5896,0.5454,0.4645,0.3322,0.306,0.0,0.0,0.637,0.3834,0.1309,-0.4035,-0.9738,-0.6521,-0.9481,-1.5418,-1.8787,-2.1678,-2.3791,-2.3485,-2.1379,-1.821,-1.4087,-0.8479,-0.2131,0.4705,0.9391,1.2978,1.5613,1.6892,1.7112,1.557,1.5656,1.5613,1.3989,1.3926,1.3963,1.3308,1.2546,1.2241,0.0,0.0,0.0,1.4109,1.4038,1.4037,0.0,1.4244,0.0,1.4559,1.4015,1.3592,0.0,1.1545,0.9723,0.846,0.7767,0.6616,0.4782,0.455,0.3945,0.2921,0.2108,0.1309,0.0455,0.0,-0.0748,-0.1964,-0.2337,-0.2663,-0.2938,0.0,-0.4308,-0.4764,-0.5603,-0.6283,-0.6828,-0.7171,-0.7668,-0.8257,-0.845,-0.8898,-0.9361,0.0,0.0,0.0,0.0,0.0,0.0,0.0,0.0,0.0,0.0,0.0,0.0,0.0,0.0,0.0,0.0,0.0,0.0,0.0,0.0,0.9309,0.9562,1.0095,1.0454,1.0541,1.1057,1.1455,1.1765,1.1669,1.0941,0.9589,0.7818,0.7568,0.8565,0.8745,0.7796,0.6078,0.6165,0.6524,0.7093,0.7649,0.4184,-0.0458,0.0,0.3634,-0.4974,0.0577,-0.0245,-0.4901,-1.1362,-1.7515,-2.2434,-2.1972,-1.8021,-1.2977,-1.0023,-0.0709,0.9003,1.0816,1.6741,2.2028,2.0558,2.1015,2.1018,1.7978,1.7367,1.6953,1.5171,1.503,1.4824,1.3443,1.3599,1.3817,1.3536,0.0,1.459,1.585,1.5571,1.5708,1.7183,1.6705,1.6426,1.6823,1.5911,1.517,1.4931,1.2781,1.0911,0.9676,0.9298,0.8093,0.5946,0.546,0.4699,0.3489,0.2753,0.1954,0.1157,0.0505,-0.0288,-0.1151,-0.1828,-0.2226,-0.2291,0.0,0.0,-0.459,-0.4704,-0.5382,-0.6422,-0.6819,-0.7257,-0.7788,-0.8422,-0.8843,-0.9113,0.0,0.0,0.0,0.0,0.0,0.0,0.0,0.0,0.0,0.0,0.5727,0.6052,0.0,0.0,0.0,0.0,0.0,0.0,0.0,0.0,0.0,0.9413,0.9651,1.0072,1.0794,1.1158,1.1516,1.2024,1.0272,0.9453,0.9574,0.7367,0.6728,0.7441,0.8388,0.7566,0.5508,0.5987,0.6405,0.6822,0.7285,0.7353,0.7366,0.8944,0.0,0.0,-0.1846,-0.3363,-0.4303,-0.5319,-0.9973,-1.5367,-1.5703,-1.4251,-1.0131,0.1346,0.7869,1.2631,1.8718,2.2321,2.4392,2.4294,2.3884,2.3098,2.1643,2.0615,1.9588,1.812,1.7088,1.6281,1.5823,1.4801,1.4212,1.498,1.478,1.518,1.7104,1.6335,1.6127,0.0,1.6578,1.5781,1.6122,1.5651,0.0,0.0,0.0,1.3317,1.1214,1.0226,0.8916,0.7195,0.5661,0.4759,0.4359,0.3555,0.2744,0.1971,0.1789,0.1021,-0.0273,-0.095,-0.1623,-0.2227,0.0,0.0,-0.3623,-0.4031,-0.4455,-0.4951,-0.591,-0.683,-0.7766,-0.828,-0.8884,-0.9517,0.0,0.0,0.0,0.0,0.0,0.0,0.0,0.4767,0.4888,0.5053,0.5322,0.5502,0.5317,0.5882,0.6322,0.0,0.0,0.0,0.0,0.0,0.0,0.0,0.0,0.0,1.0231,1.0332,1.0265,0.9941,0.0,0.8469,0.865,0.6676,0.6029,0.6701,0.7692,0.7501,0.6445,0.6583,0.6987,0.7507,0.8045,0.8672,0.9292,0.0,0.0,0.0,0.5739,0.5418,0.5518,0.1766,-0.1015,-0.3537,-0.7029,-0.5294,-0.0514,0.6974,1.2421,1.7045,2.1864,2.3914,2.4854,2.555,2.539,2.4659,2.2974,2.1978,2.098,1.9607,1.8398,1.7476,1.7153,1.6065,1.5604,1.6568,1.628,1.6564,1.8458,1.7657,1.7408,1.9017,1.7886,1.727,0.0,1.7022,0.0,0.0,0.0,0.0,1.1696,1.0112,0.888,0.8061,0.662,0.5842,0.5693,0.4466,0.3623,0.3281,0.29,0.2146,0.1074,0.0336,-0.0333,-0.1115,-0.1748,0.0,-0.2953,-0.3213,-0.4008,-0.5085,-0.5734,-0.6592,-0.751,-0.8245,-0.8757,-0.9047,0.0,0.0,0.0,0.0,0.0,0.0,0.0,0.4593,0.4683,0.4635,0.4875,0.4925,0.4647,0.5309,0.5782,0.0,0.0,0.0,0.0,0.0,0.0,0.0,0.0,0.0,0.0,0.0,0.0,0.0,0.7769,0.0,0.0,0.0,0.0,0.0,0.6965,0.729,0.7192,0.7139,0.7419,0.0,0.0,0.9088,0.0,0.0,0.0,0.0,0.0,1.424,1.4474,0.8663,0.7614,0.7922,0.3454,0.4569,0.8175,1.1246,1.5993,2.0816,2.3266,2.4415,2.5134,2.6094,2.6272,2.5696,2.3664,2.2751,2.1929,2.059,1.9381,1.844,1.7944,1.7149,1.6817,1.7617,1.7485,1.7778,1.9389,1.885,1.8768,0.0,1.9454,0.0,1.9939,0.0,0.0,0.0,0.0,0.0,1.1927,1.0136,0.9023,0.8778,0.7707,0.7069,0.6915,0.5668,0.4878,0.4483,0.3946,0.3203,0.2261,0.1461,0.0719,0.0127,-0.0696,0.0,0.0,-0.2443,-0.3548,-0.5206,-0.5593,-0.6213,-0.7116,-0.8239,-0.8607,-0.8626,0.0,0.0,0.0,0.0,0.0,0.0,0.0,0.4132,0.4132,0.3283,0.4069,0.4426,0.3807,0.4482,0.5007,0.0,0.0,0.0,0.0,0.0,0.0,0.0,0.0,0.0,0.0,0.0,0.0,0.0,0.0,0.0,0.0,0.0,0.0,0.0,0.0,0.0,0.6372,0.6864,0.0,0.0,0.0,0.0,0.0,0.0,0.0,0.0,0.0,1.4245,1.4482,1.4278,1.4514,1.5069,1.6085,1.2715,0.9738,1.6687,2.0357,2.2507,2.4235,2.5439,2.634,2.6876,2.6646,2.5911,2.4511,2.3565,2.2678,2.1516,2.018,1.9046,1.8454,1.7679,1.7149,1.7177,1.7503,1.8103,1.912,1.9179,1.9521,2.0552,0.0,0.0,2.0096,0.0,0.0,0.0,0.0,0.0,0.0,1.1289,1.0388,0.9583,0.8619,0.7912,0.7642,0.7442,0.665,0.5196,0.5127,0.4347,0.2844,0.1612,0.0888,0.0677,0.0,0.0,0.0,-0.2032,-0.2813,-0.4088,-0.4797,-0.5711,-0.6803,-0.7997,-0.8659,-0.902,0.0,0.0,0.0,0.0,0.0,0.0,0.3466,0.3796,0.4076,0.4208,0.4556,0.4648,0.4411,0.4716,0.4846,0.4794,0.0,0.0,0.0,0.0,0.0,0.0,0.0,0.0,0.0,0.0,0.0,0.6838,0.0,0.0,0.0,0.0,0.0,0.0,0.0,0.0,0.0,0.0,0.0,0.0,0.0,0.0,0.0,0.0,0.0,0.0,0.0,0.0,1.4485,1.4928,1.544,1.6159,1.7703,1.6633,1.5579,1.9446,2.0926,2.1744,2.367,2.4915,2.5782,2.6262,2.6423,2.6136,2.4784,2.3913,2.3159,2.2295,2.1082,2.0085,1.9823,1.8745,1.8112,1.8727,1.8645,1.8788,1.965,1.9824,2.0121,2.0881,2.0099,0.0,0.0,0.0,0.0,0.0,0.0,0.0,0.0,1.2289,1.1706,1.139,1.011,0.9348,0.9227,0.8215,0.7311,0.6485,0.6041,0.5191,0.3996,0.3124,0.2214,0.1374,0.0,0.0,0.0,-0.1376,-0.2352,-0.3639,-0.4727,-0.5656,-0.6469,-0.743,-0.8017,-0.8382,0.0,0.0,0.0,0.0,0.0,0.2327,0.2939,0.322,0.3587,0.4216,0.4436,0.4546,0.4668,0.4796,0.4845,0.4636,0.4739,0.0,0.0,0.0,0.0,0.0,0.0,0.0,0.0,0.0,0.6573,0.6598,0.6136,0.581,0.0,0.0,0.0,0.0,0.0,0.0,0.0,0.0,0.0,0.0,0.0,0.0,0.0,0.0,0.0,0.0,0.0,0.0,0.0,0.0,0.0,1.6536,1.8067,1.8779,1.9327,2.0557,2.1009,2.1484,2.3284,2.4581,2.551,2.5964,2.634,2.6263,2.4989,2.419,2.3533,2.287,2.1749,2.083,2.0716,1.9641,1.9037,1.9797,1.9572,1.958,2.0329,2.0346,2.057,0.0,0.0,0.0,0.0,0.0,0.0,0.0,0.0,0.0,0.0,1.3464,1.2846,1.215,1.1095,1.0479,1.0356,0.9184,0.824,0.7593,0.704,0.6263,0.5188,0.437,0.3462,0.2503,0.0,0.0,0.0,-0.0542,-0.1621,-0.3128,-0.4364,-0.5275,-0.6006,-0.7042,-0.7585,-0.7882,0.0,0.0,0.0,0.0,0.0,0.0,0.1824,0.2233,0.2487,0.2434,0.313,0.3745,0.4047,0.4647,0.4851,0.4529,0.4519,0.0,0.0,0.0,0.0,0.0,0.0,0.0,0.0,0.0,0.6164,0.6381,0.5996,0.5723,0.5567,0.512,0.0,0.0,0.0,0.0,0.0,0.0,0.0,0.0,0.0,0.0,0.0,0.0,0.0,0.0,0.0,0.0,0.0,0.0,0.0,0.0,0.0,1.9393,1.9325,2.0098,2.1244,2.2488,2.3444,2.4779,2.5986,2.6395,2.6556,2.6295,2.5163,2.4428,2.3817,2.313,2.209,2.1179,2.0766,2.0158,1.969,1.969,2.0079,2.0491,2.0857,2.0767,2.086,0.0,0.0,0.0,0.0,0.0,0.0,0.0,0.0,0.0,0.0,1.4782,1.3568,1.1398,1.1277,1.1099,1.0694,1.0694,0.987,0.8293,0.8293,0.7586,0.6349,0.502,0.4308,0.0,0.0,0.0,0.0,0.0603,-0.0602,-0.2509,-0.3354,-0.4299,-0.5296,-0.6906,-0.7494,-0.768,0.0,0.0,0.0,0.0,0.0,0.0,0.0,0.1303,0.1747,0.2735,0.3099,0.3453,0.3988,0.4474,0.4775,0.4623,0.4787,0.0,0.0,0.0,0.0,0.0,0.0,0.0,0.0,0.0,0.6055,0.6109,0.5563,0.534,0.5391,0.4739,0.4688,0.5124,0.0,0.0,0.0,0.0,0.0,0.0,0.0,0.0,0.0,0.0,0.0,0.0,0.0,0.0,0.0,0.0,0.0,0.0,0.0,0.0,0.0,2.0948,2.1238,2.1365,2.2139,2.3235,2.4233,2.4418,2.5122,2.5622,2.502,2.4471,2.3934,2.3428,2.2504,2.1744,2.1625,2.0829,2.017,2.017,2.0361,2.0552,0.0,0.0,0.0,2.1559,0.0,0.0,0.0,0.0,0.0,0.0,0.0,0.0,0.0,1.4687,1.4072,1.3099,1.2349,1.1927,1.1807,1.1238,1.0387,0.9241,0.8741,0.7859,0.6635,0.5484,0.0,0.0,0.0,0.0,0.0,0.0553,-0.0451,-0.1755,-0.3345,-0.4344,-0.5029,-0.6321,-0.685,-0.6969,0.0,0.0,0.0,0.0,0.0,0.0,0.0,0.101,0.1513,0.2742,0.2893,0.3162,0.3829,0.4369,0.4587,0.4483,0.4828,0.0,0.0,0.0,0.0,0.0,0.0,0.0,0.0,0.5732,0.5782,0.5673,0.5234,0.5066,0.5117,0.4574,0.4632,0.5183,0.5668,0.0,0.0,0.0,0.0,0.0,0.0,0.0,1.1316,0.0,0.0,0.0,0.0,0.0,0.0,0.0,0.0,0.0,0.0,0.0,0.0,0.0,2.191,2.1616,2.2114,2.3156,2.4105,2.4154,2.4818,2.534,2.4974,2.4506,2.3989,2.349,2.2669,2.1982,2.1853,2.1182,2.0662,2.0613,2.0647,2.0679,0.0,0.0,0.0,2.0837,0.0,0.0,0.0,0.0,0.0,0.0,0.0,0.0,0.0,0.0,1.4572,1.414,1.3065,1.2475,1.2466,1.1587,1.0765,1.0015,0.917,0.8266,0.7217,0.6203,0.0,0.0,0.0,0.0,0.0,0.1277,0.0237,-0.0911,-0.2586,-0.3695,-0.4483,-0.5567,-0.6144,-0.6399,0.0,0.0,0.0,0.0,0.0,0.0,0.0,0.1148,0.1617,0.2428,0.2501,0.2755,0.3653,0.4163,0.4376,0.4206,0.0,0.0,0.0,0.0,0.0,0.0,0.0,0.0,0.0,0.5454,0.5454,0.5128,0.5022,0.4971,0.4974,0.4709,0.4879,0.5372,0.5859,0.6337,0.6918,0.8143,0.8942,0.9413,0.9688,1.0584,0.0,0.0,0.0,0.0,0.0,0.0,0.0,0.0,0.0,0.0,0.0,0.0,0.0,0.0,0.0,0.0,0.0,2.4198,2.5139,2.5191,2.537,2.5382,2.4994,2.4534,0.0,2.3379,2.2643,2.1994,2.1579,2.1293,2.1038,2.0878,2.0862,2.085,0.0,2.0775,0.0,0.0,0.0,0.0,0.0,0.0,0.0,0.0,0.0,0.0,0.0,0.0,1.5033,1.4622,1.3429,1.2793,1.2773,1.175,1.101,1.0583,0.9641,0.8782,0.7976,0.7101,0.0,0.0,0.0,0.0,0.0,0.2554,0.1325,-0.0044,-0.1305,-0.2527,-0.3693,-0.4702,-0.5431,-0.6009,0.0,0.0,0.0,0.0,0.0,0.0,0.0,0.0,0.0,0.0,0.1807,0.2115,0.2797,0.3171,0.375,0.0,0.0,0.0,0.0,0.0,0.0,0.0,0.0,0.0,0.0,0.5664,0.5778,0.5242,0.5819,0.5949,0.5673,0.5748,0.5856,0.5949,0.6624,0.7356,0.8196,0.8685,0.9159,0.9562,0.9836,1.0685,0.0,0.0,0.0,0.0,1.5062,1.5599,0.0,0.0,0.0,0.0,0.0,0.0,0.0,0.0,2.3953,2.4231,2.4499,0.0,2.431,2.443,2.4987,2.5395,0.0,2.4531,2.4082,2.3678,2.2848,2.1995,2.1372,2.121,2.0958,2.0335,2.0687,2.0939,2.0524,0.0,0.0,0.0,0.0,0.0,0.0,0.0,0.0,0.0,0.0,0.0,0.0,0.0,1.57,1.5496,1.4558,1.3611,1.2596,1.2312,1.1605,1.0431,1.0211,0.9401,0.8122,0.756,0.0,0.0,0.0,0.0,0.4065,0.2929,0.1844,0.0756,-0.1085,-0.2371,-0.3353,-0.451,-0.5352,-0.5944,0.0,0.0,0.0,0.0,0.0,0.0,0.0,0.0,0.0,0.0,0.0,0.0,0.0,0.0,0.0,0.0,0.0,0.0,0.0,0.0,0.0,0.0,0.0,0.5344,0.5336,0.6046,0.6154,0.5614,0.6054,0.6216,0.6048,0.6103,0.6269,0.6607,0.7334,0.8075,0.8791,0.9054,0.9368,0.9718,0.9977,0.0,0.0,0.0,0.0,0.0,1.5186,1.5651,0.0,1.8124,1.9117,1.9789,0.0,0.0,0.0,0.0,2.4423,2.4803,2.5101,2.4934,2.4681,2.4707,2.5113,2.5383,2.4979,2.4542,2.4063,2.362,2.294,2.2143,2.1154,2.1255,2.1236,2.0353,2.1006,0.0,0.0,0.0,0.0,0.0,0.0,0.0,0.0,0.0,0.0,0.0,0.0,0.0,0.0,0.0,1.6744,1.6489,1.5531,1.4469,1.3375,1.2587,1.1877,1.1226,1.0591,0.9839,0.8987,0.8277,0.0,0.0,0.0,0.0,0.4861,0.3407,0.2332,0.1402,-0.0498,-0.1913,-0.2948,-0.3994,-0.4934,-0.576,0.0,0.0,0.0,0.0,0.0,0.0,0.0,0.0,0.0,0.0,0.0,0.0,0.0,0.0,0.0,0.0,0.0,0.0,0.0,0.0,0.0,0.0,0.0,0.5778,0.5882,0.6485,0.6588,0.6195,0.6346,0.6519,0.6554,0.6554,0.6838,0.7458,0.8074,0.8586,0.9113,0.9361,0.9629,0.9932,1.0236,0.0,0.0,0.0,0.0,0.0,0.0,0.0,0.0,1.829,1.9417,2.009,2.1809,0.0,0.0,0.0,0.0,0.0,2.5316,2.5541,2.5648,2.5395,2.5396,2.5356,2.4949,2.4514,2.4008,2.3454,2.2982,2.2312,2.1016,2.1411,2.162,2.0665,0.0,0.0,0.0,0.0,0.0,0.0,0.0,0.0,0.0,0.0,0.0,0.0,0.0,0.0,0.0,0.0,0.0,1.7303,1.6333,1.5368,1.4434,1.2902,1.2151,1.2207,1.0976,1.0302,1.0166,0.9235,0.0,0.0,0.0,0.0,0.5673,0.4021,0.2947,0.2211,0.0291,-0.1172,-0.2288,-0.3434,-0.4526,-0.5581,0.0,0.0,0.0,0.0,0.0,0.0,0.0,0.0,0.0,0.0,0.0,0.0,0.0,0.0,0.0,0.0,0.0,0.0,0.0,0.0,0.0,0.649,0.6263,0.615,0.6308,0.7025,0.7241,0.695,0.8075,0.8515,0.8226,0.8689,0.8858,0.8815,0.8851,0.9106,0.951,0.9784,1.0051,1.0265,1.0906,0.0,0.0,0.0,0.0,0.0,0.0,0.0,0.0,1.8359,1.9562,2.056,2.2014,0.0,0.0,0.0,0.0,0.0,2.5366,2.6025,2.6482,2.5671,2.5356,2.513,2.4738,2.4331,2.3911,2.354,2.306,2.2392,2.1394,2.1746,2.1815,0.0,0.0,0.0,0.0,0.0,0.0,0.0,0.0,0.0,0.0,0.0,0.0,0.0,0.0,0.0,0.0,0.0,0.0,1.7156,1.6829,1.6002,1.4569,1.3639,1.2852,1.2217,1.1859,1.1509,1.1068,1.0474,0.9591,0.0,0.0,0.7008,0.5814,0.4714,0.4091,0.3535,0.113,-0.0167,-0.0899,-0.3225,-0.4648,-0.5761,0.0,0.0,0.0,0.0,0.0,0.0,0.0,0.0,0.0,0.0,0.0,0.0,0.0,0.0,0.0,0.0,0.0,0.0,0.0,0.0,0.0,0.7824,0.7759,0.754,0.7122,0.8124,0.8632,0.8667,0.9173,0.9569,0.9795,0.9977,0.9943,0.9819,0.9777,0.9769,0.9836,1.0051,1.0265,1.0454,0.0,0.0,0.0,0.0,0.0,0.0,0.0,0.0,0.0,0.0,1.9882,2.0805,2.2516,0.0,0.0,0.0,0.0,0.0,2.5478,2.5858,2.6077,2.5571,2.6059,2.6322,2.4946,2.4737,2.4576,2.3739,2.3277,2.2658,2.1498,0.0,2.2175,2.1669,0.0,0.0,0.0,0.0,0.0,0.0,0.0,0.0,0.0,0.0,0.0,0.0,0.0,0.0,0.0,0.0,0.0,0.0,1.742,1.653,1.521,1.4498,1.3766,1.2951,1.2472,1.2223,1.2067,1.1068,1.0283,0.9649,0.0,0.7706,0.6567,0.5471,0.4686,0.3904,0.1335,0.0033,-0.0785,-0.4056,-0.5808,-0.685,0.0,0.0,0.0,0.0,0.0,0.0,0.0,0.0,0.0,0.0,0.0,0.0,0.0,0.0,0.0,0.0,0.0,0.0,0.0,0.0,0.819,0.8928,0.9131,0.8956,0.8296,0.9323,1.0024,1.0372,1.0322,1.0562,1.1101,1.1005,1.0864,1.0661,1.0712,1.0626,1.0446,1.0565,1.071,1.0931,0.0,0.0,0.0,0.0,0.0,0.0,0.0,0.0,0.0,0.0,0.0,0.0,0.0,0.0,0.0,2.4969,2.5228,2.5401,2.5524,2.5698,2.5765,2.5418,2.6274,2.6817,2.5261,2.5184,2.5129,2.4068,2.3684,2.3161,2.1927,2.2158,0.0,2.2538,0.0,0.0,0.0,0.0,0.0,0.0,0.0,0.0,0.0,0.0,0.0,0.0,0.0,0.0,0.0,0.0,0.0,0.0,1.7673,1.6781,1.573,1.5193,1.4578,1.3875,1.3272,1.2982,1.2947,1.1695,1.0912,1.0465,0.9308,0.8276,0.7324,0.6305,0.5425,0.446,0.177,-0.0251,-0.2021,-0.5168,-0.708,-0.8323,0.0,0.0,0.0,0.0,0.0,0.0,0.0,0.0,0.0,0.0,0.0,0.0,0.0,0.0,0.0,0.0,0.0,0.0,0.0,0.0,0.8343,0.9325,0.9703,0.9963,1.0013,1.0369,1.0856,1.1463,1.1772,1.1947,1.2013,1.2049,1.1864,1.1516,1.1665,1.1665,1.1665,1.151,1.1651,1.207,1.1774,0.0,0.0,0.0,0.0,0.0,0.0,0.0,0.0,0.0,0.0,0.0,0.0,0.0,2.4582,2.4984,2.5205,2.5309,2.5385,2.6004,2.6386,2.5362,2.5168,2.526,2.5492,2.5373,2.5105,2.471,2.4424,2.3952,0.0,2.2764,2.2764,2.2939,0.0,0.0,0.0,0.0,0.0,0.0,0.0,0.0,0.0,0.0,0.0,0.0,0.0,0.0,0.0,0.0,0.0,0.0,0.0,1.6637,1.5812,1.5433,1.5088,1.47,1.4533,1.4135,1.3509,1.2735,1.1628,1.031,0.9753,0.884,0.7637,0.7232,0.6754,0.5922,0.2832,-0.1121,-0.5183,-0.6266,-0.801,-1.007,0.0,0.0,0.0,0.0,0.0,0.0,0.0,0.0,0.0,0.0,0.0,0.0,0.0,0.0,0.0,0.0,0.0,0.0,0.0,0.9553,0.985,1.0787,1.115,1.1422,1.1693,1.1542,1.1842,1.2508,1.2697,1.2716,1.2578,1.2735,1.2657,1.2365,1.2414,1.2316,1.2169,1.1751,1.1701,1.199,1.2187,1.2433,0.0,0.0,0.0,0.0,0.0,0.0,0.0,0.0,2.1226,2.2474,2.3622,2.4439,2.4977,2.5177,2.5349,2.5475,2.5461,2.6076,2.6436,2.5362,2.5468,2.5658,2.5045,2.556,2.5724,2.4307,2.4367,2.4331,0.0,0.0,2.2623,0.0,0.0,0.0,0.0,0.0,0.0,0.0,0.0,0.0,0.0,0.0,0.0,0.0,0.0,0.0,0.0,0.0,0.0,0.0,0.0,1.6939,1.6176,1.6009,1.5615,1.4974,1.4515,1.411,1.3812,1.2844,1.1966,1.1255,1.0664,0.9995,0.9288,0.8907,0.8529,0.7753,0.3273,-0.1425,-0.5863,-0.7655,-0.8845,-0.9877,0.0,0.0,0.0,0.0,0.0,0.0,0.0,0.0,0.0,0.0,0.0,0.0,0.0,0.0,0.0,0.0,0.0,0.0,1.0501,1.0573,1.1015,1.2058,1.2304,1.2691,1.3295,1.2855,1.2959,1.353,1.3775,1.3789,1.361,1.3779,1.3768,1.3606,1.3606,1.3501,1.3311,1.2831,1.2783,1.3024,1.3062,1.3253,0.0,0.0,0.0,0.0,0.0,0.0,0.0,0.0,2.1718,2.2972,2.4007,2.4745,2.5216,2.5311,2.5465,2.5585,2.5485,2.5848,2.6088,2.5531,2.5817,2.6048,2.535,2.5967,2.6268,2.4769,2.4694,2.4658,2.39,0.0,0.0,0.0,0.0,0.0,0.0,0.0,0.0,0.0,0.0,0.0,0.0,0.0,0.0,0.0,0.0,0.0,0.0,0.0,0.0,0.0,0.0,0.0,1.6686,1.6501,1.6024,1.5253,1.4652,1.4165,1.3762,1.2853,1.2278,1.1904,1.1416,1.1045,1.0753,1.0451,0.9075,0.6753,0.3151,-0.1608,-0.6688,-0.8814,-0.9849,-1.0516,0.0,0.0,0.0,0.0,0.0,0.0,0.0,0.0,0.0,0.0,0.0,0.0,0.0,0.0,0.0,0.0,0.0,0.0,1.1868,1.1251,1.1481,1.2957,1.3016,1.3603,1.4795,1.4344,1.4247,1.4528,1.5038,1.5251,1.5107,1.5254,1.5344,1.5433,1.5433,1.5433,1.5377,1.4971,1.5106,1.5531,1.4608,1.4528,1.5028,0.0,0.0,0.0,0.0,0.0,0.0,0.0,2.1985,2.3346,2.416,2.4765,2.5224,2.5367,2.5503,2.5566,2.5449,2.5313,2.5337,2.5882,2.6072,2.622,2.6634,2.67,2.6638,2.6362,2.5565,2.5004,2.5332,2.55,0.0,0.0,0.0,0.0,0.0,0.0,0.0,0.0,0.0,0.0,0.0,0.0,0.0,0.0,0.0,0.0,0.0,0.0,0.0,0.0,0.0,0.0,1.7296,1.6885,1.633,1.559,1.5188,1.4406,1.3293,1.2955,1.2515,1.2004,1.1948,1.1881,1.18,1.1743,0.8039,0.2404,0.2476,-0.1737,-0.8019,-0.962,-1.1003,-1.2323,0.0,0.0,0.0,0.0,0.0,0.0,0.0,0.0,0.0,0.0,0.0,0.0,0.0,0.0,0.0,0.0,0.0,0.0,1.1903,1.2026,1.2599,1.3779,1.4226,1.4593,1.4935,1.5808,1.5869,1.4974,1.5463,1.576,1.5855,1.617,1.6384,1.6498,1.6225,1.6255,1.6498,1.5787,1.5743,1.6034,1.5445,1.528,1.5437,0.0,0.0,0.0,0.0,0.0,0.0,0.0,0.0,0.0,2.474,2.5197,2.5481,2.5531,2.5566,2.5567,2.5432,2.5721,2.6041,2.601,2.6484,2.7048,2.7449,2.7734,2.7793,2.7432,2.6041,2.5051,2.5582,0.0,0.0,0.0,0.0,0.0,0.0,0.0,0.0,0.0,0.0,0.0,0.0,0.0,0.0,0.0,0.0,0.0,0.0,0.0,0.0,0.0,0.0,0.0,1.7296,1.7183,1.649,1.5244,1.5363,1.4857,1.3771,1.3336,1.2981,1.2716,1.2786,1.2874,1.3019,1.3372,0.9168,0.2456,0.2393,-0.2285,-0.9178,-1.0704,-1.1483,-1.2058,0.0,0.0,0.0,0.0,0.0,0.0,0.0,0.0,0.0,0.0,0.0,0.0,0.0,0.0,0.0,0.0,0.0,0.0,0.0,1.2976,1.3663,1.4593,1.5096,1.5628,1.6127,1.7329,1.7625,1.6991,1.7073,1.7195,1.7411,1.7716,1.7951,1.8068,1.7834,1.7834,1.8068,1.766,1.7542,1.7596,1.7396,1.7395,1.7421,0.0,0.0,0.0,0.0,0.0,0.0,0.0,0.0,0.0,2.5072,2.541,2.5582,2.5566,2.5547,2.5484,2.5325,2.5523,2.5863,2.6252,2.6836,2.753,2.8446,2.8109,2.762,0.0,2.6182,2.5183,2.6111,0.0,0.0,0.0,0.0,0.0,0.0,0.0,0.0,0.0,0.0,0.0,0.0,0.0,0.0,0.0,0.0,0.0,0.0,0.0,0.0,0.0,0.0,0.0,1.7502,1.7248,1.6557,1.5372,1.5391,1.4897,1.3989,1.3565,1.3344,1.3326,1.357,1.3798,1.4036,1.4374,0.9783,0.2535,0.2511,-0.2444,-0.9738,-1.1101,-1.1572,-1.1785,0.0,0.0,0.0,0.0,0.0,0.0,0.0,0.0,0.0,0.0,0.6963,0.0,0.0,0.0,0.0,0.0,0.0,0.0,0.0,0.0,1.4641,1.539,1.5884,1.6722,1.7997,1.8806,1.9396,1.9863,1.9379,1.922,1.9409,1.9702,1.9859,1.9928,1.9912,1.9897,1.9965,2.0189,2.0106,1.9866,2.0092,2.0304,2.0464,2.0368,0.0,0.0,0.0,0.0,0.0,0.0,0.0,0.0,2.5205,2.5434,2.5584,2.5531,2.5503,2.5428,2.5186,2.505,2.5286,2.6579,2.719,2.7829,2.9236,2.794,2.6644,2.7307,0.0,2.5308,2.6655,0.0,0.0,0.0,0.0,0.0,0.0,0.0,0.0,0.0,0.0,0.0,0.0,0.0,0.0,0.0,0.0,0.0,0.0,0.0,0.0,0.0,0.0,0.0,1.7833,1.7283,1.6613,0.0,1.5432,1.4796,1.3991,1.3721,1.3698,1.3917,1.4299,1.4584,1.4809,1.4492,0.9725,0.26,0.239,-0.2605,-0.9816,-1.0934,-1.1373,-1.1517,0.0,0.0,0.0,0.0,0.0,0.0,0.0,0.0,0.0,0.0,0.0,0.0,0.0,0.0,0.0,0.0,0.0,0.0,0.0,0.0,1.5152,1.6337,1.7369,1.8321,1.9148,2.0094,2.0703,2.1017,2.0412,2.0346,2.0861,2.1341,2.1625,2.172,2.153,2.1551,2.1732,2.1617,2.1703,2.1875,2.1714,2.2048,2.2505,2.1462,2.153,0.0,0.0,0.0,0.0,0.0,0.0,0.0,2.5311,2.5481,2.5603,2.559,2.5868,2.6044,2.536,2.5798,2.6516,2.6823,2.7846,2.8592,2.793,2.7232,2.6925,2.7714,2.6289,2.517,0.0,0.0,0.0,0.0,0.0,0.0,0.0,0.0,0.0,0.0,0.0,0.0,0.0,0.0,0.0,0.0,0.0,0.0,0.0,0.0,0.0,0.0,0.0,1.7927,1.8044,1.791,1.7253,0.0,1.6127,1.5406,1.4082,1.4113,1.4324,1.466,1.4744,1.4919,1.49,1.2108,0.7715,0.2489,-0.0287,-0.4711,-0.9684,-1.0758,-1.1166,-1.1292,0.0,0.0,0.0,0.0,0.0,0.0,0.0,0.0,0.0,0.0,0.0,0.0,0.0,0.0,0.0,0.0,0.0,0.0,0.0,0.0,1.5928,1.7477,1.844,1.9345,2.0289,2.1079,2.1928,2.2842,2.273,2.273,2.2804,2.3737,2.4208,2.4257,2.4142,2.4182,2.4301,2.4273,2.4245,2.4181,2.3869,2.4009,2.4309,2.2998,2.2893,2.3405,2.3017,0.0,0.0,0.0,0.0,0.0,0.0,0.0,2.5467,2.5459,2.5614,2.5658,2.5111,2.5347,2.5962,2.6784,2.7769,2.8392,2.7846,2.6934,2.63,2.6765,2.5583,0.0,0.0,0.0,0.0,0.0,0.0,0.0,0.0,0.0,0.0,0.0,0.0,0.0,0.0,0.0,0.0,0.0,0.0,0.0,0.0,0.0,0.0,0.0,1.7922,1.7954,1.809,1.7872,1.7468,1.6902,1.6402,1.5587,1.4521,1.4503,1.4679,1.4995,1.4989,1.5018,1.4919,1.2986,0.839,0.2388,0.0555,-0.3995,-0.9658,-1.0503,-1.08,-1.087,0.0,0.0,0.0,0.0,0.0,0.0,0.0,0.0,0.0,0.0,0.0,0.0,0.0,0.0,0.0,0.0,0.0,0.0,0.0,0.0,0.0,1.8503,1.9294,2.0224,2.1406,2.216,2.3241,2.4634,2.5463,2.5611,2.5179,2.6153,2.6606,2.6613,2.6692,2.6711,2.6669,2.6754,2.6593,2.624,2.5757,2.5717,2.5816,2.4478,2.4226,2.4495,2.3839,2.3659,2.383,2.4204,0.0,0.0,0.0,0.0,2.5245,2.528,2.5282,2.5203,2.4828,2.4679,2.5074,2.6822,2.7434,2.7666,2.7849,2.6693,2.556,2.5466,0.0,0.0,0.0,0.0,0.0,0.0,0.0,0.0,0.0,0.0,0.0,0.0,0.0,0.0,0.0,0.0,0.0,0.0,0.0,0.0,0.0,0.0,1.9676,1.8121,1.8009,1.8082,1.8278,1.7878,1.7714,1.7767,1.6503,1.5602,1.503,1.484,1.4891,1.5128,1.5129,1.5039,1.4793,1.3374,0.8663,0.2207,0.0978,-0.3654,-0.971,-1.0285,-1.047,-1.0532,0.0,0.0,0.0,0.0,0.0,0.0,0.0,0.0,0.0,0.0,0.0,0.0,0.0,0.0,0.0,0.0,0.0,0.0,0.6652,0.0,0.0,1.8869,2.0115,2.1302,2.2392,2.3949,2.5056,2.5603,2.755,2.841,2.8204,2.769,2.7447,2.7459,2.7571,2.7507,2.7265,2.7162,2.7075,2.6895,2.6084,2.6265,2.6839,2.5242,2.4771,2.482,2.3911,2.3249,2.2865,2.3451,2.3731,0.0,0.0,0.0,2.5053,2.5177,2.5581,2.5778,2.5012,2.5026,2.5706,2.7432,2.7395,2.6822,0.0,0.0,2.5726,0.0,0.0,0.0,0.0,0.0,0.0,0.0,0.0,0.0,0.0,0.0,0.0,0.0,0.0,0.0,0.0,0.0,0.0,0.0,0.0,0.0,0.0,2.0394,1.9774,1.8397,1.8345,1.8529,1.8959,1.8836,1.857,1.8121,1.6623,1.5641,1.5163,1.5034,1.5071,1.5268,1.5215,1.5076,1.4384,0.7851,0.407,0.1755,-0.4647,-0.8222,-0.9828,-1.026,-1.0508,-1.0681,0.0,0.0,0.0,0.0,0.0,0.0,0.0,0.0,0.0,0.0,0.0,0.0,0.0,0.0,0.0,-0.9505,-0.4037,0.1417,0.5784,1.004,1.4636,1.9574,2.1346,2.2582,2.3309,2.5044,2.6102,2.6471,2.7831,2.882,2.9406,2.87,2.859,2.8942,2.8855,2.8708,2.8558,2.8147,2.7941,2.7769,2.6441,2.6249,2.6486,2.3877,2.304,2.3036,2.1722,2.1294,2.1468,2.2047,2.2562,2.3039,2.3768,0.0,0.0,0.0,2.5055,2.5211,2.5276,2.5671,2.6274,2.7154,2.708,2.6655,2.6087,2.5609,2.5158,0.0,0.0,0.0,0.0,0.0,0.0,0.0,0.0,0.0,0.0,0.0,0.0,0.0,0.0,0.0,0.0,0.0,0.0,0.0,0.0,0.0,2.0599,2.0587,1.9957,1.8498,1.8544,1.8735,1.9091,1.9111,1.8665,1.7729,1.7178,1.6314,1.5193,1.5136,1.5153,1.5234,1.5015,1.365,1.1327,0.7915,0.3618,-0.1106,-0.4368,-0.7333,-0.9828,-1.0097,-1.0273,-1.0474,0.0,0.0,0.0,0.0,0.0,0.0,0.0,0.0,0.0,0.0,0.0,0.0,0.0,0.0,0.0,0.0,-1.091,-0.3354,0.597,0.7766,1.2056,2.0158,2.2204,2.3358,2.3721,2.55,2.6532,2.6708,2.7594,2.8498,2.933,2.8851,2.8897,2.9327,2.9325,2.9169,2.8858,2.8323,2.7947,2.7549,2.5984,2.5422,2.5219,2.2519,2.1473,2.1312,1.9956,1.9692,2.0051,2.0623,2.1124,2.1731,2.2676,2.3008,0.0,0.0,0.0,2.4659,2.5534,2.5949,2.6152,2.6284,2.6302,2.6133,0.0,0.0,2.4783,0.0,0.0,0.0,0.0,0.0,0.0,0.0,0.0,0.0,0.0,0.0,0.0,0.0,0.0,0.0,0.0,0.0,0.0,0.0,0.0,0.0,2.072,2.0749,2.0132,1.8675,1.8716,1.8929,1.9246,1.9392,1.8805,1.7501,1.7639,1.6863,1.5254,1.5192,1.5176,1.508,1.3828,1.165,0.8843,0.6672,0.2191,-0.3394,-0.4402,-0.6876,-0.988,-0.997,-1.0135,-1.0349,0.0,0.0,0.0,0.0,0.0,0.0,0.0,0.0,0.0,0.0,0.0,0.0,-2.3492,-2.3848,-2.3784,-2.4293,-1.8632,-0.8816,0.5826,0.7582,1.185,2.0409,2.2275,0.0,2.3226,2.5264,2.6148,2.5855,2.7231,2.7888,2.7827,2.7716,2.7619,2.7584,2.8251,2.8057,2.7211,2.6934,2.6279,2.5346,2.4144,2.3435,2.3063,2.2087,2.1259,2.056,1.9927,1.9292,1.8837,1.9251,1.9426,1.9725,2.1304,2.1977,2.2331,0.0,0.0,0.0,2.57,2.5415,2.4789,2.4735,2.4802,2.4653,0.0,0.0,0.0,0.0,0.0,0.0,0.0,0.0,0.0,0.0,0.0,0.0,0.0,0.0,0.0,0.0,0.0,0.0,0.0,0.0,0.0,0.0,0.0,0.0,2.0842,2.0793,2.0238,1.9,1.8981,1.9188,1.9657,1.9993,1.936,1.7777,1.7796,1.6949,1.5371,1.5197,1.5081,1.4808,1.1033,0.9246,0.8417,0.0887,-0.2628,-0.3675,-0.7426,-0.9391,-1.0097,-1.0021,-1.0261,-1.0597,0.0,0.0,0.0,0.0,0.0,0.0,0.0,0.0,0.0,0.0,0.0,0.0,0.0,-2.5466,-2.521,-2.5288,-2.1632,-1.4432,-0.2879,0.0845,0.6924,1.6599,1.9809,2.1607,2.2101,2.4171,2.4985,2.4505,2.5622,2.6258,2.6475,2.6067,2.588,2.5948,2.6743,2.6901,2.6531,2.5617,2.503,2.4586,2.2864,2.2193,2.1985,1.995,1.8983,1.8659,1.7847,0.0,1.7346,1.7818,1.8097,1.8498,0.0,0.0,2.0837,2.2561,2.3505,2.4078,2.4671,2.4648,2.4346,2.3936,2.3888,2.3912,2.3685,2.3967,0.0,0.0,0.0,0.0,0.0,0.0,0.0,0.0,0.0,0.0,0.0,0.0,0.0,0.0,0.0,0.0,0.0,0.0,0.0,0.0,0.0,0.0,2.1258,2.1229,2.0588,1.9102,1.9146,1.9357,1.9688,2.0084,1.9411,1.7738,1.7813,1.6992,1.5391,1.5101,1.4961,1.4589,0.8116,0.5345,0.5184,0.2252,-0.204,-0.691,-0.8323,-0.9357,-1.0021,-0.997,-1.0161,-1.0523,0.0,0.0,0.0,0.0,0.0,0.0,0.0,0.0,0.0,-2.5124,0.0,0.0,0.0,0.0,-2.6171,-2.5614,-2.2825,-1.7005,-0.7328,-0.3118,0.3433,1.3436,1.6974,1.8992,1.9642,2.1774,2.2731,2.2367,2.336,2.398,2.4217,2.411,2.4203,2.4469,2.492,2.5239,2.5345,2.4315,2.3728,2.3372,2.1553,2.0922,2.0771,1.8661,1.7722,1.7461,0.0,0.0,0.0,0.0,0.0,0.0,0.0,0.0,0.0,2.2253,2.3188,2.3723,2.4192,2.4168,2.3892,2.3248,2.319,2.3277,2.3346,0.0,0.0,0.0,0.0,0.0,0.0,0.0,0.0,0.0,0.0,0.0,0.0,0.0,0.0,0.0,0.0,0.0,0.0,0.0,0.0,0.0,0.0,0.0,2.193,2.1661,2.0824,1.9277,1.9361,1.9561,1.9831,2.0149,1.9459,1.7779,1.8144,1.7286,1.5339,1.5362,1.5197,1.4565,0.9241,0.5552,0.3128,0.0399,-0.3898,-0.8745,-0.8839,-0.9476,-1.0288,-1.002,-1.0302,-1.0877,0.0,0.0,0.0,0.0,0.0,0.0,0.0,0.0,-2.5139,-2.5542,0.0,0.0,0.0,0.0,0.0,-2.5759,-2.243,-1.6314,-0.6645,-0.3638,0.1924,1.1171,1.3842,1.5372,1.5865,1.8156,1.9359,1.9369,2.0492,2.1023,2.1023,2.1931,2.255,2.2966,2.2802,2.2965,2.345,2.298,2.236,2.165,2.0295,1.9592,1.9279,1.8387,0.0,0.0,1.6764,1.6256,0.0,1.661,0.0,0.0,0.0,0.0,0.0,0.0,0.0,2.3599,0.0,0.0,0.0,0.0,0.0,0.0,2.2511,0.0,0.0,0.0,0.0,0.0,0.0,0.0,0.0,0.0,0.0,0.0,0.0,0.0,0.0,0.0,0.0,0.0,0.0,0.0,0.0,0.0,0.0,2.3531,2.2846,2.2008,2.096,1.9592,1.965,1.9828,2.0093,2.0222,1.9516,1.7943,1.8796,1.7823,1.5299,1.5997,1.5781,1.4822,1.4382,0.9999,0.2594,-0.5047,-0.843,-0.8839,-0.9108,-0.9946,-1.0904,-1.0184,-1.0729,-1.1711,0.0,0.0,0.0,0.0,0.0,0.0,-2.6577,-2.6739,-2.7054,0.0,0.0,0.0,-2.9195,-2.763,-2.5761,-2.4037,-2.0309,-1.5365,-0.9064,-0.4897,0.0053,0.6133,0.9339,1.1666,1.3075,1.5123,1.6358,1.6666,1.8272,1.9101,1.9242,1.9939,2.0427,2.0584,2.0512,2.0562,2.0771,2.1568,2.1575,2.0944,1.9631,1.9016,0.0,0.0,0.0,0.0,0.0,1.5415,1.5049,0.0,1.562,1.5197,0.0,0.0,1.9471,0.0,0.0,2.2408,2.2118,0.0,0.0,0.0,0.0,0.0,0.0,0.0,0.0,0.0,0.0,0.0,0.0,0.0,0.0,0.0,0.0,0.0,0.0,0.0,0.0,0.0,0.0,0.0,0.0,0.0,0.0,0.0,2.4409,2.3987,2.3069,2.1684,2.0827,2.0596,2.0149,1.9984,2.0099,2.0277,1.9832,1.8769,1.8958,1.8302,1.6868,1.6977,1.6739,1.6078,1.3021,0.8326,0.2657,0.0388,-0.3917,-0.9149,-0.9712,-1.0193,-1.0585,-1.0668,-1.111,-1.1583,0.0,0.0,0.0,0.0,0.0,-2.7646,-2.7555,-2.7769,-2.811,0.0,0.0,0.0,-2.8404,-2.6209,-2.3921,-2.1967,-1.7918,-1.3718,-0.954,-0.5536,-0.1574,0.2305,0.5559,0.7922,0.9482,1.173,1.3152,1.365,1.5535,1.6475,1.6575,1.7585,1.8307,1.8811,1.8875,1.9056,1.9364,2.013,0.0,0.0,1.8874,0.0,0.0,1.6775,1.5989,0.0,0.0,0.0,1.4706,1.5426,1.5446,0.0,0.0,0.0,0.0,0.0,0.0,2.2044,2.1627,2.1605,2.1475,0.0,0.0,0.0,2.0916,2.1425,0.0,0.0,0.0,0.0,0.0,0.0,0.0,0.0,0.0,0.0,0.0,0.0,0.0,0.0,0.0,0.0,0.0,0.0,0.0,0.0,2.4719,2.4298,2.3363,2.2387,2.1642,2.1126,2.0755,2.0429,2.0181,2.0338,1.9959,1.91,1.939,1.8794,1.742,1.7598,1.7294,1.6457,1.3827,0.8948,0.2837,0.2357,-0.2616,-0.9969,-1.0161,-1.05,-1.0904,-1.0822,-1.1318,-1.1993,0.0,0.0,-2.7365,-2.8085,-2.8478,-2.8635,-2.851,-2.8522,-2.8636,0.0,-2.8422,-2.7613,-2.6421,-2.4153,-2.1821,-1.9525,-1.5396,-1.1638,-0.8697,-0.5712,-0.2861,-0.0268,0.2454,0.4486,0.5723,0.8377,1.0052,1.0594,1.2575,1.3562,1.369,1.5052,1.6233,1.7247,1.7433,0.0,1.8519,0.0,0.0,1.8614,1.8004,1.7523,0.0,0.0,1.5381,1.4885,1.5168,1.4847,1.4394,1.4946,1.5435,0.0,0.0,0.0,0.0,0.0,2.1332,2.2044,2.1902,2.1814,2.1594,0.0,0.0,0.0,2.0296,2.0376,2.0453,0.0,0.0,0.0,0.0,0.0,0.0,0.0,0.0,0.0,0.0,0.0,0.0,0.0,0.0,0.0,0.0,0.0,2.4968,2.4847,2.4874,2.4561,2.3808,2.3612,2.2931,2.1642,2.1435,2.1039,2.0444,2.0406,2.0,1.9232,1.992,1.9287,1.7524,1.805,1.7625,1.6446,1.5946,1.0891,0.2969,0.2149,-0.3194,-1.086,-1.0659,-1.0993,-1.1495,-1.097,-1.1614,-1.2733,0.0,-2.6845,-2.7621,-2.8247,-2.8852,-2.9316,-2.9555,-2.9516,-2.9398,-2.9235,-2.7692,-2.5888,-2.4007,-2.1442,-1.8759,-1.601,-1.2781,-0.9906,-0.7648,-0.5581,-0.3334,-0.1002,0.0799,0.2526,0.4334,0.6144,0.7634,0.8703,1.0309,1.1374,1.202,1.3305,1.4022,1.4291,1.4866,1.5477,1.612,0.0,0.0,1.5995,1.6676,0.0,1.6888,1.5575,1.4917,1.462,1.4279,1.3782,1.3386,1.3808,1.4651,1.548,0.0,0.0,0.0,1.874,0.0,0.0,0.0,0.0,0.0,0.0,0.0,0.0,2.0457,2.0875,2.1359,0.0,0.0,0.0,0.0,0.0,0.0,0.0,0.0,0.0,0.0,0.0,0.0,0.0,0.0,0.0,0.0,0.0,2.5134,2.5044,2.4896,2.4807,2.4797,2.4068,2.3595,2.3486,2.2227,2.1487,2.1355,2.0722,2.0249,1.9973,1.9939,1.9515,1.8828,1.8843,1.8342,1.75,1.727,1.1615,0.2539,0.2502,-0.2524,-1.035,-1.1759,-1.1944,-1.151,-1.2124,-1.2807,-1.3308,-2.7057,-2.7733,-2.8355,-2.8913,-2.9401,-2.9775,-3.0011,-2.9857,-2.9561,-2.9147,-2.6837,-2.4359,-2.2118,-1.941,-1.688,-1.4525,-1.1935,-0.9503,-0.7432,-0.5789,-0.4135,-0.2341,-0.0801,0.0601,0.2006,0.3449,0.4898,0.624,0.7698,0.8717,0.9458,1.0843,1.145,1.1475,1.2899,1.364,1.4013,0.0,1.5439,1.4932,1.5881,0.0,1.5264,1.4519,1.4046,1.3796,1.3938,1.3518,1.2896,1.2384,1.2968,0.0,0.0,1.5475,1.7134,0.0,1.9651,2.0667,0.0,0.0,0.0,2.096,0.0,0.0,0.0,2.0383,2.0279,1.9832,0.0,0.0,0.0,0.0,0.0,0.0,0.0,0.0,0.0,0.0,0.0,0.0,0.0,0.0,0.0,0.0,2.5241,2.5209,2.5115,2.5084,2.5198,2.4791,2.4418,2.4107,2.336,2.2741,2.2309,2.1462,2.0974,2.0842,2.0041,1.9494,1.9188,1.8822,1.8266,1.7625,1.7476,1.1694,0.2394,0.2295,-0.2773,-1.0598,-1.1638,-1.1933,-1.1814,-1.2355,-1.2836,-1.3147,-2.8112,-2.8657,-2.917,-2.9607,-2.9898,-3.0115,-3.0156,-2.9814,-2.9238,-2.8336,-2.5678,-2.2974,-2.0531,-1.7986,-1.5726,-1.3821,-1.1575,-0.9466,-0.7744,-0.6288,-0.4935,-0.3685,-0.2341,-0.1136,-0.0268,0.1,0.2397,0.387,0.5101,0.6086,0.6833,0.8249,0.8931,0.9081,1.0892,1.1958,1.253,0.0,0.0,1.4085,0.0,1.466,1.3752,1.3511,1.3229,1.3006,1.3405,1.3167,1.2493,1.1336,1.1617,1.2547,1.2987,1.4479,0.0,0.0,0.0,0.0,0.0,0.0,0.0,0.0,0.0,2.0861,0.0,0.0,0.0,1.8483,0.0,0.0,0.0,0.0,0.0,0.0,0.0,0.0,0.0,0.0,0.0,0.0,0.0,0.0,0.0,0.0,2.5303,2.5303,2.5303,2.5322,2.5322,2.5382,2.512,2.4464,2.4345,2.3968,2.3242,2.2192,2.1584,2.1415,2.005,1.9267,1.9016,1.8369,1.7812,1.7349,1.7134,1.1952,0.3663,0.3356,-0.1925,-0.9929,-1.1207,-1.1837,-1.2078,-1.2353,-1.2652,-1.2929,-2.839,-2.8938,-2.9607,-2.9889,-3.0228,-3.0344,-3.0076,-2.9488,-2.8255,-2.5991,-2.3984,-2.1824,-1.9378,-1.7179,-1.504,-1.2998,0.0,0.0,-0.8399,0.0,-0.5474,-0.4276,-0.3547,-0.2546,-0.1206,-0.0268,0.0868,0.2199,0.3133,0.3929,0.4656,0.6013,0.6983,0.7634,0.8478,1.0203,1.2427,0.0,1.2005,0.0,1.3235,1.3752,0.0,1.3285,1.2998,1.2871,1.2232,1.1995,1.1873,0.0,1.1914,1.2608,0.0,1.406,1.5097,1.6254,0.0,0.0,0.0,0.0,0.0,0.0,2.0378,0.0,0.0,0.0,2.0205,2.0272,0.0,0.0,0.0,0.0,0.0,0.0,0.0,0.0,0.0,0.0,0.0,0.0,0.0,0.0,0.0,0.0,0.0,2.5293,2.5367,2.5387,2.5383,2.5452,2.546,2.5362,2.4679,2.4218,2.4074,2.2372,2.1405,2.113,1.967,1.8801,1.8462,1.7625,1.7109,1.685,1.6554,1.3332,0.8355,0.8402,0.2917,-0.6088,-1.1172,-1.2622,-1.1938,-1.2784,-1.3243,-1.3323,-2.9172,-2.9602,-3.0044,-3.0203,-3.0349,-3.0276,-2.9778,-2.8478,-2.6754,-2.4583,-2.2991,0.0,0.0,0.0,0.0,0.0,0.0,-1.0145,0.0,0.0,-0.6785,-0.5862,-0.5077,-0.4212,-0.3072,-0.2274,-0.1202,0.0133,0.0533,0.1333,0.2465,0.3447,0.4238,0.5051,0.6585,0.0,0.9066,0.0,1.0951,0.0,0.0,0.0,0.0,1.2482,1.2647,1.2736,1.18,1.1584,1.1716,0.0,1.1368,0.0,0.0,0.0,0.0,0.0,0.0,0.0,0.0,0.0,0.0,0.0,0.0,0.0,2.2374,0.0,2.1838,0.0,0.0,0.0,0.0,0.0,0.0,0.0,0.0,0.0,0.0,0.0,0.0,0.0,0.0,0.0,0.0,0.0,0.0,0.0,0.0,2.502,2.4006,2.4972,2.5567,2.5559,2.5234,2.502,2.4955,2.3534,2.2403,2.1551,1.9965,1.8796,1.8038,1.7085,1.6528,1.6347,1.6184,1.32,0.8432,0.7919,0.2937,-0.4968,-1.0153,-1.2033,-1.1873,-1.2554,-1.2626,-1.233,-2.9937,-3.0173,-3.0392,-3.0466,-3.0353,-2.9944,-2.9025,-2.7359,-2.553,-2.3719,0.0,0.0,-1.8592,-1.7513,0.0,0.0,-1.299,-1.1581,0.0,0.0,-0.8081,0.0,0.0,0.0,0.0,-0.3946,-0.2943,-0.1737,-0.1538,-0.0869,0.0267,0.0932,0.1732,0.2676,0.4473,0.5752,0.6615,0.0,0.9544,1.008,1.0373,1.062,1.0899,1.1608,1.1874,1.1858,1.1417,1.1331,1.1331,1.0542,1.0438,0.0,1.106,0.0,0.0,0.0,0.0,0.0,1.7735,0.0,0.0,0.0,0.0,0.0,0.0,0.0,0.0,0.0,0.0,0.0,0.0,0.0,0.0,0.0,0.0,0.0,0.0,0.0,0.0,0.0,0.0,0.0,0.0,0.0,0.0,0.0,2.4042,0.0,2.3718,2.4885,2.5566,2.5522,2.5525,2.5473,2.5362,2.414,2.2918,2.1689,2.0006,1.8598,1.7409,1.6496,1.5961,1.5764,1.5578,1.3361,0.9842,0.9047,0.4927,-0.1394,-0.6034,-0.9174,-1.1136,-1.1752,-1.1693,-1.126,-3.0555,-3.0575,-3.0612,-3.0683,-3.025,-2.9325,-2.7624,-2.6202,-2.48,0.0,0.0,0.0,0.0,0.0,0.0,0.0,0.0,-1.311,-1.2179,0.0,-0.9227,0.0,0.0,-0.6531,0.0,0.0,-0.4146,-0.3418,-0.2683,-0.2214,-0.2012,-0.1338,-0.02,0.1198,0.1938,0.3849,0.6527,0.6511,0.7261,0.8494,0.8903,0.9233,0.9709,0.0,1.0599,0.976,1.0875,0.0,0.0,0.9321,0.9278,0.0,0.0,0.0,0.0,0.0,0.0,0.0,0.0,0.0,0.0,2.0395,0.0,0.0,0.0,0.0,2.2782,0.0,0.0,0.0,0.0,0.0,2.1513,2.0645,2.0426,0.0,0.0,0.0,0.0,0.0,0.0,0.0,0.0,0.0,0.0,2.5343,2.5387,2.5449,2.5506,2.5566,2.5508,2.5323,2.5302,2.5225,2.5007,2.3551,2.2296,2.1206,1.9517,1.7955,1.6521,1.5834,1.5433,1.5197,1.454,1.443,1.4639,1.431,1.1348,0.6639,0.2553,-0.3212,-0.9383,-1.034,-1.0596,-1.0436,-3.0682,-3.0234,-2.9968,0.0,0.0,-2.9152,-2.7484,-2.643,0.0,0.0,0.0,0.0,0.0,-1.9519,-1.839,0.0,0.0,-1.3965,-1.3386,-1.1489,0.0,0.0,0.0,-0.7642,0.0,0.0,0.0,0.0,-0.4441,-0.3743,-0.2601,-0.2566,-0.1389,0.0521,0.0744,0.1882,0.0,0.0,0.0,0.0,0.0,0.8603,0.9087,0.0,0.0,0.957,1.0182,1.0228,0.0,0.9241,0.9707,1.0329,0.9166,0.9518,1.033,1.0481,1.1073,0.0,0.0,0.0,1.8006,2.0249,0.0,0.0,0.0,0.0,0.0,0.0,0.0,0.0,0.0,0.0,2.2126,2.0677,2.0371,2.0527,0.0,0.0,0.0,0.0,0.0,0.0,0.0,0.0,0.0,2.2088,2.3079,2.3731,0.0,2.4738,2.5263,2.51,2.4843,2.4615,2.441,2.3435,2.2075,2.0328,1.9278,1.7693,1.5675,1.4793,1.4183,1.3847,1.3087,1.2553,1.202,1.0149,0.7648,0.4597,0.0206,-0.3378,-0.6331,-0.8302,-0.8958,-0.8819,-3.0701,-3.0209,0.0,0.0,0.0,-2.8889,-2.7282,0.0,0.0,0.0,-2.3807,0.0,-2.1328,0.0,-1.9031,0.0,-1.629,-1.492,-1.4017,-1.2688,0.0,-1.1038,-0.9761,0.0,0.0,0.0,0.0,0.0,0.0,-0.4854,-0.3743,-0.3624,-0.2652,-0.0978,-0.0473,0.0421,0.1669,0.2894,0.4161,0.0,0.0,0.7826,0.0,0.0,0.9305,0.953,0.0,0.9715,0.9228,0.8369,0.8591,0.9027,0.8046,0.8392,0.9182,0.9356,1.0018,1.1221,1.3607,1.5377,0.0,1.9884,2.1756,0.0,2.3952,0.0,0.0,0.0,0.0,0.0,0.0,0.0,2.286,2.1313,2.1073,2.1355,0.0,2.305,0.0,0.0,0.0,0.0,0.0,0.0,2.2989,2.2046,2.2946,2.3515,0.0,0.0,2.4954,2.4765,2.4376,2.4078,2.382,2.2929,2.1533,1.9595,1.871,1.7053,1.4786,1.3973,1.3223,1.2518,1.1786,1.0925,0.9868,0.7706,0.5704,0.357,-0.0517,-0.2838,-0.423,-0.6591,-0.7396,-0.7266,-3.0693,0.0,0.0,0.0,-2.9661,0.0,0.0,0.0,-2.6023,0.0,-2.3886,-2.3122,-2.1401,-2.0495,-1.9596,-1.8757,-1.7598,-1.6186,-1.4287,-1.4128,0.0,0.0,-1.1031,-1.0508,-0.9799,0.0,0.0,0.0,0.0,-0.5595,-0.5298,-0.468,-0.3949,-0.3129,-0.1798,0.0,0.0217,0.1479,0.3008,0.462,0.6176,0.6777,0.6763,0.7446,0.0,0.9582,0.9813,0.933,0.8397,0.6797,0.615,0.5961,0.5691,0.5648,0.5926,0.7067,0.8421,1.0077,1.2393,1.4048,1.5978,1.9241,0.0,0.0,0.0,0.0,2.533,0.0,0.0,0.0,0.0,0.0,0.0,2.2481,2.244,2.2764,0.0,0.0,0.0,0.0,0.0,0.0,0.0,2.4534,2.4511,2.512,2.4797,2.4615,0.0,0.0,0.0,2.4243,2.3877,2.3539,2.3204,2.2048,2.0641,1.903,1.7806,1.6028,1.3851,1.3398,1.251,1.1281,1.0613,0.9621,0.8397,0.7273,0.5815,0.3984,0.0802,-0.1424,-0.3158,-0.5219,-0.5967,-0.5919,-3.1711,-3.0909,-2.9883,0.0,-2.8932,-2.8609,0.0,0.0,0.0,0.0,-2.5373,-2.4998,-2.4611,-2.2934,-2.1646,-2.1146,-1.9212,0.0,0.0,0.0,0.0,-1.2972,-1.2143,-1.1571,-1.1439,-1.0445,0.0,-0.7985,0.0,0.0,-0.5327,-0.5709,-0.5034,-0.3459,0.0,-0.1917,-0.0548,0.0799,0.2278,0.3797,0.4306,0.5531,0.0,0.0,0.8848,0.9722,0.8744,0.8197,0.769,0.6039,0.6404,0.732,0.6085,0.6435,0.7516,0.869,0.9052,0.9655,1.2345,1.3868,1.5477,1.8947,2.0724,2.2065,0.0,0.0,0.0,0.0,0.0,0.0,0.0,0.0,0.0,2.2448,2.2748,2.3088,0.0,0.0,0.0,2.3428,0.0,0.0,0.0,2.3236,2.3061,2.4496,2.3414,2.3143,0.0,0.0,0.0,2.32,2.2418,2.1921,2.1735,2.0461,1.9265,1.819,1.6587,1.5012,1.3471,1.2069,1.0964,1.006,0.8825,0.7672,0.6706,0.6062,0.5189,0.4062,0.1697,-0.0755,-0.3031,-0.4299,-0.4957,-0.5211,-3.1932,0.0,0.0,-2.9908,0.0,0.0,-2.783,0.0,0.0,-2.6592,-2.6183,0.0,-2.497,-2.355,-2.2322,-2.1534,-2.0075,0.0,-1.7063,0.0,0.0,-1.4043,-1.3183,-1.2696,-1.2573,-1.164,0.0,-0.9163,0.0,0.0,-0.6037,-0.61,-0.5501,-0.4473,0.0,-0.2845,-0.1579,0.0197,0.1466,0.2387,0.3145,0.0,0.0,0.6342,0.7394,0.828,0.6973,0.712,0.7747,0.5848,0.6069,0.7055,0.6635,0.7173,0.817,0.9414,0.9177,0.9234,1.2263,1.3447,1.4749,1.8573,2.0753,2.2333,2.3817,2.4544,2.4931,0.0,0.0,0.0,0.0,0.0,0.0,0.0,0.0,0.0,0.0,0.0,0.0,0.0,2.2557,0.0,0.0,2.2728,2.2749,2.3555,2.3035,0.0,0.0,0.0,0.0,2.2034,2.1087,2.0447,2.0055,1.9016,1.7929,1.6757,1.5433,1.4029,1.2589,1.1368,1.0205,0.8987,0.7893,0.682,0.5776,0.4884,0.388,0.2726,0.0713,-0.1114,-0.2721,-0.33,-0.3961,-0.4613,-3.1957,0.0,0.0,0.0,0.0,0.0,0.0,-2.8421,0.0,-2.6873,0.0,-2.5874,-2.4212,-2.3432,-2.2535,-2.1213,0.0,-1.9542,-1.7488,-1.7467,-1.6789,-1.5048,-1.435,-1.3923,-1.3734,-1.2749,0.0,0.0,0.0,0.0,-0.6998,-0.6378,-0.5951,-0.5739,0.0,0.0,0.0,-0.0527,0.0408,0.0695,0.2093,0.2806,0.3127,0.4168,0.52,0.5959,0.5322,0.6394,0.7806,0.5949,0.556,0.6129,0.7145,0.7639,0.8037,0.9394,0.8822,0.8552,1.1966,1.2979,1.4094,1.8359,2.0968,2.2773,2.379,2.4448,2.4818,2.4694,2.4195,0.0,0.0,0.0,0.0,0.0,0.0,0.0,0.0,0.0,0.0,0.0,0.0,0.0,0.0,0.0,0.0,2.2667,2.2952,0.0,0.0,0.0,0.0,0.0,1.9786,0.0,1.8387,0.0,1.6561,1.5215,1.4233,1.301,1.1523,1.0916,0.971,0.8047,0.7412,0.6495,0.5366,0.4049,0.249,0.0711,-0.0983,-0.188,-0.2235,-0.2415,-0.3123,-0.4005,0.0,0.0,0.0,0.0,0.0,-3.102,-3.0406,-3.0064,-2.9336,-2.7882,-2.735,-2.6779,-2.5848,-2.4757,-2.3835,-2.3365,-2.1928,0.0,0.0,0.0,0.0,-1.7015,-1.6035,-1.5633,-1.5901,-1.4177,-1.2705,0.0,0.0,0.0,-0.7285,-0.7833,-0.7391,-0.6045,0.0,0.0,-0.2295,-0.2046,0.0,-0.0742,-0.0469,0.0535,0.2058,0.3535,0.4158,0.4398,0.613,0.6712,0.6541,0.5534,0.5629,0.6317,0.7217,0.7104,0.6941,0.8223,0.7518,0.7074,1.0728,1.2579,1.4553,1.8948,2.1283,2.2776,2.3842,2.4389,2.4423,2.3598,2.3365,2.3164,2.2658,0.0,0.0,0.0,0.0,0.0,0.0,0.0,0.0,0.0,0.0,0.0,0.0,0.0,0.0,0.0,0.0,0.0,0.0,0.0,0.0,0.0,0.0,0.0,0.0,0.0,0.0,1.4699,1.3017,1.1921,1.1295,0.9839,0.8559,0.7412,0.6579,0.5841,0.5189,0.4449,0.2239,-0.0717,-0.1075,-0.1433,-0.1792,-0.2326,-0.2682,-0.2996,0.0,0.0,0.0,0.0,0.0,0.0,0.0,-3.1795,0.0,-2.9113,-2.7969,-2.6889,-2.581,-2.4939,-2.4105,-2.3235,-2.2505,-2.1616,-2.0592,-1.9495,-1.8566,-1.7823,-1.6938,0.0,-1.6585,-1.5593,-1.424,-1.2578,0.0,0.0,-0.8268,-0.83,-0.7891,-0.702,0.0,-0.4601,0.0,0.0,0.0,-0.2538,-0.1607,-0.0936,-0.0265,0.1476,0.2425,0.2815,0.3786,0.4341,0.4678,0.5242,0.5316,0.5278,0.6007,0.6071,0.612,0.7007,0.7097,0.7554,1.0573,1.2763,1.4935,1.8153,2.0537,2.2215,2.275,2.3168,2.3322,2.2825,2.2143,2.1408,2.0571,2.0144,0.0,0.0,0.0,0.0,0.0,0.0,0.0,0.0,0.0,0.0,0.0,0.0,0.0,0.0,0.0,0.0,0.0,0.0,0.0,0.0,0.0,0.0,0.0,0.0,0.0,1.2696,1.1819,1.1107,1.0533,0.9484,0.8372,0.7184,0.6428,0.5658,0.4815,0.3803,0.17,-0.0899,-0.1076,-0.1344,-0.1658,-0.2105,-0.2417,-0.2729,0.0,-3.425,0.0,0.0,-3.3653,0.0,-3.2783,-3.2564,-3.1788,-2.9999,-2.8444,-2.6958,-2.554,-2.49,-2.4119,-2.2979,-2.2894,-2.2415,-2.1193,-2.0578,-1.9801,-1.8785,-1.7909,-1.7368,-1.7191,-1.6821,-1.5665,0.0,0.0,0.0,0.0,-0.8837,0.0,0.0,0.0,0.0,0.0,0.0,-0.4855,-0.4587,-0.3195,-0.2784,-0.2942,-0.1589,-0.0295,0.0683,0.019,0.1436,0.3468,0.4624,0.4687,0.4424,0.5495,0.5857,0.6038,0.7064,0.7671,0.8536,1.0976,1.3112,1.5158,1.7279,1.9572,2.1333,2.1372,2.1714,2.1983,2.1779,2.0669,1.9451,1.8567,1.8285,0.0,0.0,0.0,0.0,0.0,0.0,0.0,0.0,0.0,0.0,0.0,0.0,0.0,0.0,0.0,0.0,0.0,0.0,0.0,0.0,0.0,1.4082,1.3308,0.0,1.211,0.0,1.0795,1.0414,0.9776,0.9209,0.8261,0.7045,0.6346,0.5463,0.4422,0.2679,0.0937,-0.0674,-0.1032,-0.1344,-0.1569,-0.1928,-0.2196,-0.2593,0.0,0.0,0.0,0.0,0.0,0.0,0.0,-3.1035,-3.0794,-2.9742,-2.8766,-2.7618,-2.6098,-2.5139,-2.4426,-2.407,-2.3348,-2.2904,-2.2881,-2.1855,-2.1146,-2.0899,-1.9621,-1.8862,-1.8762,-1.7556,-1.6488,0.0,0.0,0.0,0.0,0.0,0.0,0.0,0.0,0.0,0.0,-0.7773,-0.752,-0.7057,-0.6923,-0.6229,-0.5446,-0.5927,-0.4692,-0.2758,-0.378,-0.0554,0.4076,0.3388,0.3668,0.4807,0.7695,0.7903,0.753,1.0086,0.9825,0.9253,1.1724,1.3439,1.5056,1.7264,1.9002,2.0185,2.0241,2.0616,2.0691,1.9775,1.8786,1.8034,1.7757,1.7098,1.6693,0.0,0.0,0.0,0.0,0.0,0.0,0.0,0.0,0.0,0.0,0.0,0.0,0.0,0.0,0.0,0.0,0.0,0.0,1.5421,0.0,1.3552,1.3541,1.1867,0.0,1.0922,1.0233,0.9758,0.9415,0.8565,0.7653,0.6618,0.5876,0.5105,0.408,0.1089,-0.0224,-0.0494,-0.0986,-0.1254,-0.1389,-0.1703,-0.1973,-0.233,0.0,0.0,0.0,0.0,0.0,0.0,0.0,-3.1335,-3.0852,-2.9819,-2.8808,-2.7803,-2.6836,-2.5554,-2.4704,-2.4486,-2.3736,-2.3215,-2.3008,-2.2315,-2.1753,-2.1362,-2.0662,-2.0244,-2.0093,-1.915,-1.8324,0.0,0.0,0.0,0.0,0.0,0.0,0.0,0.0,-1.097,-0.9652,-1.0883,-1.0959,-1.023,-0.9988,-0.9646,-0.9214,-0.858,-0.7398,-0.6197,-0.7496,-0.6271,-0.4242,-0.5595,-0.0223,0.722,0.8491,0.8581,0.8439,0.9536,1.0401,1.1242,1.2239,1.3844,1.5463,1.618,1.7626,1.8837,1.8671,1.9304,1.973,1.9134,1.7732,1.6451,1.5842,1.5628,1.5443,0.0,0.0,0.0,0.0,0.0,0.0,0.0,0.0,0.0,0.0,0.0,0.0,0.0,0.0,0.0,0.0,0.0,0.0,1.4265,0.0,1.2154,1.1756,1.0788,1.0167,0.9888,0.9569,0.9408,0.9234,0.8322,0.713,0.5753,0.4812,0.4282,0.392,0.1916,0.0458,-0.0539,-0.0045,-0.0447,-0.1299,-0.1254,-0.1524,-0.2061,-3.4686,0.0,-3.3881,0.0,-3.2804,-3.213,-3.1487,-3.1078,-3.0531,-2.9562,-2.8767,-2.8014,-2.7315,-2.6077,-2.5237,-2.5082,-2.4471,-2.3948,-2.355,-2.3098,-2.2606,-2.196,-2.1582,0.0,-2.0944,-2.0396,-1.9826,-1.9269,-1.7585,0.0,0.0,0.0,0.0,0.0,-1.3995,-1.3566,-1.2246,-1.3602,-1.3875,-1.3329,-1.2871,-1.2879,-1.3125,-1.2298,-1.121,-1.0396,-1.2363,-1.1451,-0.9555,-1.1484,-0.444,0.4975,0.4059,0.5215,0.7082,0.7858,1.0713,1.3635,1.3601,1.4664,1.5738,1.5489,1.6336,1.7275,1.7348,1.7898,1.8349,1.8048,1.6638,1.5242,1.4503,1.4525,1.449,1.4061,0.0,0.0,0.0,0.0,0.0,0.0,1.4479,1.4307,1.4212,0.0,0.0,0.0,0.0,0.0,0.0,0.0,0.0,0.0,0.0,0.0,0.0,0.9978,0.951,0.9211,0.8995,0.8883,0.8823,0.7698,0.6457,0.5111,0.425,0.3741,0.3547,0.2544,0.1309,0.0046,0.0684,0.0136,-0.1031,-0.0817,-0.1177,-0.1927,-3.2216,-3.2617,-3.284,-3.1979,-3.1653,-3.1158,-3.0095,-2.9751,-2.9435,-2.8883,-2.8749,-2.8352,-2.7487,-2.6741,-2.6243,-2.6087,-2.5668,-2.5237,-2.4989,-2.448,-2.3903,0.0,0.0,-2.1799,-2.1224,-2.0944,-2.0733,-2.0607,0.0,0.0,-1.8037,0.0,-1.5351,-1.4725,-1.5624,-1.5962,-1.5812,-1.5729,-1.5971,-1.6414,-1.5698,-1.6037,-1.6925,-1.7681,-1.6792,-1.5567,-1.8979,-1.5098,-0.8827,-1.1488,-0.8444,-0.4081,-0.7132,-0.3317,0.2789,0.5385,1.0981,1.6305,1.6201,1.5976,1.5736,1.5546,1.5424,1.5558,1.633,1.6416,1.6299,1.6157,1.5365,1.456,1.4107,1.4014,1.4014,1.4025,0.0,0.0,0.0,0.0,0.0,0.0,1.4246,1.4276,1.3143,0.0,0.0,0.0,0.0,0.0,0.0,0.0,0.0,1.2227,1.1044,0.0,1.0678,0.9571,0.9061,0.9211,0.8455,0.8131,0.8066,0.6566,0.554,0.4875,0.4408,0.3745,0.2952,0.25,0.2045,0.162,0.1046,0.0325,-0.0405,-0.0421,-0.102,-0.1927,-3.2959,-3.2601,-3.2251,-3.1922,-3.1292,-3.0671,-3.0169,-2.9924,-2.9677,-2.9398,-2.8997,-2.8639,-2.8308,-2.7566,-2.6884,0.0,-2.6023,-2.5607,0.0,-2.495,-2.4617,-2.4374,-2.3764,-2.326,-2.286,-2.2067,-2.1799,-2.1955,0.0,0.0,0.0,-1.7742,-1.7461,-1.7684,-1.8614,-1.8517,-1.7693,-1.9369,-1.9471,-1.8573,-1.9726,-1.9824,-1.9355,-2.0069,-1.9591,-1.8852,-2.1181,-2.0297,-1.8356,-2.017,-1.9503,-1.8054,-1.8965,-1.1243,-0.0769,0.4644,0.765,1.0251,1.4822,1.5824,1.5558,1.539,1.5478,1.562,1.5852,1.5796,1.5531,1.5028,1.4387,1.3884,1.3647,1.3324,1.3142,1.3248,0.0,0.0,0.0,0.0,0.0,0.0,1.2369,1.2231,0.0,1.2393,0.0,0.0,0.0,0.0,0.0,0.0,0.0,0.0,1.088,0.0,0.9995,0.8817,0.8302,0.8455,0.7765,0.7176,0.6794,0.6196,0.5558,0.4838,0.4088,0.3705,0.3556,0.2801,0.2228,0.183,0.1532,0.0772,-0.014,-0.0237,-0.1037,-0.2137,-3.2368,-3.1921,-3.1523,-3.1429,-3.0927,-3.0471,-3.0273,-3.0117,-2.9943,-2.9662,-2.9318,-2.906,-2.8934,-2.8384,0.0,-2.7247,-2.672,-2.6336,-2.609,-2.5635,-2.5313,-2.5121,-2.4664,-2.4271,-2.3964,0.0,0.0,-2.3216,-2.1678,-2.0731,-2.0367,-2.0061,-2.0028,-2.0219,-2.0904,-2.0811,-2.0124,-2.1272,-2.149,-2.1055,-2.1789,-2.1985,-2.1825,-2.21,-2.2082,-2.2048,-2.321,-2.3553,-2.3597,-2.4474,-2.4633,-2.4428,-2.4206,-1.8149,-0.9793,-0.3196,0.2251,0.7006,1.1203,1.3914,1.5525,1.539,1.5344,1.5264,1.5276,1.4982,1.463,1.4316,1.3752,1.318,1.289,1.2861,1.2783,1.2578,0.0,1.252,1.2187,0.0,0.0,0.0,0.0,0.0,0.0,1.1445,0.0,0.0,0.0,0.0,0.0,0.0,0.0,1.1188,1.0199,0.0,0.9004,0.8069,0.7664,0.7711,0.7025,0.6376,0.5773,0.5668,0.5285,0.4791,0.4128,0.3865,0.3902,0.3207,0.2674,0.2258,0.1951,0.1205,0.0195,-0.0049,-0.0886,-0.1985,-3.0782,-3.0801,0.0,0.0,-3.0616,0.0,-3.034,-3.0316,-3.015,-2.9786,-2.9681,-2.9551,-2.9368,-2.92,-2.8845,-2.8174,0.0,0.0,0.0,-2.6522,-2.5944,-2.5635,-2.5237,0.0,-2.4664,-2.4101,-2.396,-2.4236,-2.3621,-2.3245,-2.3098,-2.3069,-2.2802,-2.2239,-2.2565,-2.2776,-2.2819,-2.1903,-2.2299,-2.3506,-2.2295,-2.273,-2.4068,-2.3813,-2.4233,-2.4943,-2.5004,-2.4993,-2.4914,-2.4879,-2.4655,-2.4301,-2.3815,-2.3264,-2.1488,-1.5016,-0.4167,0.5906,0.6724,1.1207,1.5671,1.5468,1.4971,1.4523,1.4571,1.4003,1.3579,1.3826,1.3218,1.251,1.1968,1.2421,1.2676,1.1918,1.2126,1.2175,1.1669,0.0,0.0,0.0,0.0,0.0,0.0,1.0846,1.0645,0.0,0.0,0.0,0.0,0.0,1.1129,1.0149,0.9104,0.8318,0.7871,0.7295,0.7031,0.6977,0.6273,0.5673,0.5124,0.4956,0.4849,0.4688,0.4359,0.4135,0.3956,0.3568,0.3199,0.2876,0.2292,0.141,0.0508,0.0,-0.0729,-0.162,0.0,0.0,-3.0785,-3.0762,-3.0671,-3.0588,-3.054,-3.0406,-3.0248,-3.0089,-2.9943,-2.9782,-2.968,-2.9514,-2.9297,-2.9082,-2.8504,-2.8029,-2.7736,-2.7404,-2.7078,-2.6822,-2.6472,-2.595,-2.5297,-2.5019,-2.4737,-2.4498,-2.4433,-2.4256,-2.3921,-2.3838,-2.3766,-2.3633,-2.3406,-2.3468,-2.3771,-2.3541,-2.347,-2.3545,-2.3897,-2.4014,-2.4082,-2.4625,-2.4973,-2.5215,-2.5347,-2.5275,-2.5086,-2.4832,-2.4487,-2.406,-2.3428,-2.0111,-1.5108,-0.8188,-0.3757,0.0995,1.0587,1.4337,1.5424,1.4983,1.4201,1.3515,1.3382,1.2852,1.2491,1.2609,1.1981,1.1401,1.1384,1.1292,1.115,1.0931,1.083,1.0677,1.0431,1.0182,0.0,0.0,1.049,1.0394,1.053,1.0379,1.0181,0.0,0.0,0.0,0.0,0.0,0.9252,0.913,0.8474,0.7994,0.7605,0.6799,0.6159,0.5732,0.5572,0.5407,0.5242,0.5011,0.4849,0.4688,0.4245,0.3965,0.3852,0.3547,0.2984,0.2321,0.1602,0.0866,0.0053,-0.0637,-0.1376,-0.2092,-3.008,-3.0465,-3.0758,-3.0742,-3.0718,-3.0678,-3.0645,-3.0539,-3.0389,-3.0271,-3.0132,-2.9988,-2.9864,-2.9713,-2.9439,-2.8932,-2.8622,-2.835,-2.8129,-2.7862,-2.7631,-2.7391,-2.7203,-2.6869,-2.6386,-2.6059,-2.574,-2.5431,-2.5464,-2.5394,-2.5239,-2.489,-2.4643,-2.4535,-2.4156,-2.415,-2.45,-2.4103,-2.4112,-2.4389,-2.4615,-2.4644,-2.4613,-2.5172,-2.5316,-2.5218,-2.533,-2.5182,-2.4933,-2.4648,-2.4413,-2.4061,-2.3136,-1.8844,-1.283,-0.5855,-0.1892,0.1742,0.8543,1.2611,1.4766,1.4154,1.3589,1.3122,1.2745,1.2215,1.1819,1.1823,1.1283,1.0744,1.0568,1.0626,1.0533,1.0115,1.0167,1.0108,0.9599,0.9607,0.0,0.9784,0.9784,0.9836,1.0043,0.9836,0.9597,0.9435,0.0,0.0,0.8471,0.7965,0.7907,0.8311,0.7723,0.7265,0.6907,0.6154,0.5618,0.5297,0.5183,0.5128,0.5124,0.4739,0.4522,0.447,0.4076,0.3852,0.3796,0.3522,0.291,0.2127,0.1398,0.0664,-0.0109,-0.0818,-0.1417,-0.1901,-2.9175,-2.9788,-3.03,-3.0328,-3.0468,-3.0575,-3.0528,-3.0563,-3.0557,-3.0385,-3.0301,-3.019,-3.0007,-2.9915,-2.946,-2.8442,-2.8458,-2.8476,-2.839,-2.8165,-2.7992,-2.778,-2.7759,-2.766,-2.7482,-2.7002,-2.6631,-2.6469,-2.6285,-2.6266,-2.6392,-2.5734,-2.5391,-2.5278,-2.4793,-2.4803,-2.5083,-2.429,-2.4492,-2.5333,-2.4866,-2.4914,-2.5272,-2.5508,-2.5405,-2.5139,-2.5194,-2.4993,-2.4695,-2.4442,-2.4355,-2.4137,-2.2933,-1.8051,-1.1616,-0.5683,0.0704,0.5823,0.5944,0.9868,1.3826,1.3304,1.3016,1.2725,1.2374,1.1801,1.1259,1.1174,1.0779,1.0241,0.971,1.0056,1.021,0.9406,0.9658,0.9695,0.8974,0.0,0.9295,0.8949,0.9047,0.9249,0.9399,0.9145,0.8837,0.8468,0.8203,0.7817,0.0,0.67,0.6756,0.7432,0.6842,0.6365,0.605,0.5567,0.5297,0.5242,0.5014,0.4901,0.4897,0.4467,0.4249,0.4249,0.3965,0.3796,0.3796,0.3522,0.291,0.2127,0.1398,0.0671,-0.0112,-0.0842,-0.1178,-0.1402,-2.8203,-2.8371,-2.8524,-2.8571,-2.916,-2.9629,-2.9682,-3.0248,-3.0665,-3.0635,-3.0579,-3.0499,-3.0432,-3.0253,-2.9756,-2.8798,-2.8579,-2.8409,-2.8231,-2.8617,-2.8737,-2.8543,-2.8471,-2.8281,-2.7903,-2.7272,-2.6881,-2.6745,-2.609,-2.5862,-2.5986,-2.5701,-2.5779,-2.6166,-2.5418,-2.5335,-2.5716,-2.4956,-2.4866,-2.5217,-2.5202,-2.5303,-2.5465,-2.5503,-2.5451,-2.534,-2.5241,-2.505,-2.4792,-2.4302,-2.4154,-2.3964,-2.2986,-1.5314,-0.6399,-0.4985,0.3048,1.1533,1.2071,1.2454,1.2754,1.3112,1.2178,1.1301,1.171,1.1057,1.0344,1.0123,0.9821,0.9413,0.8732,0.8778,0.883,0.858,0.8203,0.8037,0.8237,0.0,0.7865,0.8336,0.8237,0.8237,0.8488,0.8237,0.7978,0.7706,0.7063,0.6647,0.6519,0.5876,0.5559,0.5665,0.5758,0.564,0.5462,0.5352,0.5242,0.5128,0.5069,0.5011,0.4897,0.4688,0.4577,0.4408,0.4132,0.391,0.3796,0.3522,0.291,0.2127,0.1398,0.0671,-0.0112,-0.0954,-0.129,-0.1458,-2.7255,-2.7672,-2.8053,-2.8087,-2.8423,-2.8719,-2.8789,-2.9113,-2.9344,-2.9351,-2.9296,-2.9241,-2.9215,-2.9126,-2.8681,-2.7704,-2.7922,-2.7886,-2.7323,-2.8162,-2.8626,-2.8491,-2.8421,-2.8044,-2.73,-2.6972,-2.6772,-2.6759,-2.6271,-2.6172,-2.6483,-2.5844,-2.5799,-2.6212,-2.5396,-2.518,-2.5399,-2.518,-2.5149,-2.5323,-2.542,-2.5481,-2.5499,-2.5453,-2.5337,-2.5158,-2.4991,-2.4884,-2.4751,-2.4229,-2.4079,-2.3985,-2.3058,-1.4986,-0.5742,-0.4946,0.3527,1.2627,1.2657,1.2344,1.199,1.2049,1.1292,1.0485,1.0449,1.0043,0.9563,0.9249,0.9099,0.8949,0.858,0.8527,0.8315,0.7783,0.7509,0.0,0.0,0.7278,0.7439,0.754,0.7545,0.7658,0.7859,0.7439,0.7122,0.6897,0.6524,0.615,0.5832,0.5513,0.5297,0.5297,0.5318,0.5322,0.5297,0.5242,0.5183,0.5183,0.5069,0.4956,0.4897,0.4577,0.4356,0.4242,0.3965,0.3799,0.3691,0.3469,0.274,0.1679,0.1285,0.0448,-0.0561,-0.101,-0.1234,-0.1402,-2.6252,-2.686,-2.7391,-2.7391,-2.7625,-2.7818,-2.7874,-2.8063,-2.8203,-2.8203,-2.8166,-2.8126,-2.8119,-2.8117,-2.7706,-2.6742,-2.721,-2.7202,-2.6323,-2.7351,-2.8039,-2.8114,-2.8049,-2.7643,-2.6823,-2.6637,-2.6563,-2.6579,-2.6191,-2.6206,-2.6588,-2.5782,-2.5612,-2.5937,-2.5298,-2.5038,-2.5122,-2.5302,-2.5376,-2.5414,-2.5541,-2.552,-2.5432,-2.5394,-2.5207,-2.4923,-2.4766,-2.4731,-2.4711,-2.4154,-2.3204,-2.2088,-2.1275,-1.338,-0.4279,-0.3512,0.3894,1.1801,1.1769,1.139,1.0964,1.0881,1.0256,0.9515,0.9219,0.8955,0.87,0.829,0.8274,0.8203,0.7925,0.7818,0.7557,0.6972,0.0,0.0,0.0,0.6637,0.6961,0.6529,0.675,0.6966,0.7122,0.6696,0.6322,0.615,0.6046,0.5782,0.5297,0.5242,0.5242,0.5242,0.5183,0.5183,0.5242,0.5183,0.5128,0.5132,0.4959,0.4846,0.4791,0.4411,0.4193,0.4024,0.391,0.3744,0.3638,0.3469,0.274,0.1677,0.1285,0.0447,-0.0504,-0.0953,-0.1178,-0.129,-2.5222,-2.5376,-2.5524,-2.5582,-2.6303,-2.6895,-2.6893,-2.7634,-2.8196,-2.8203,-2.8201,-2.8199,-2.8182,-2.8145,-2.7756,-2.6859,-2.6835,-2.6493,-2.5628,-2.6362,-2.7046,-2.7536,-2.7495,-2.738,-2.718,-2.6675,-2.635,-2.6231,-2.5463,-2.5207,-2.5426,-2.5222,-2.5282,-2.5537,-2.5422,-2.5405,-2.5466,-2.5545,-2.5506,-2.5419,-2.5551,-2.5449,-2.5228,-2.5288,-2.5105,-2.479,-2.4737,-2.4731,-2.4711,-2.4118,-2.0517,-1.6265,-1.5888,-0.7837,0.1421,0.1068,0.5161,1.0041,1.099,1.0234,0.935,1.0003,0.8982,0.7902,0.8355,0.8039,0.7532,0.7109,0.6886,0.6563,0.5864,0.5706,0.5814,0.6204,0.0,0.0,0.5542,0.5778,0.5732,0.5289,0.5622,0.59,0.59,0.59,0.5736,0.5407,0.5352,0.5352,0.5297,0.5183,0.5128,0.5128,0.5242,0.5242,0.5128,0.5242,0.5077,0.4743,0.4846,0.4791,0.4515,0.4519,0.4356,0.4193,0.4024,0.391,0.3741,0.3522,0.3244,0.285,0.1564,0.095,0.0615,-0.0616,-0.1122,-0.1178,-2.4981,-2.5019,-2.508,-2.5198,-2.5521,-2.5793,-2.5962,-2.6299,-2.6539,-2.6583,-2.6598,-2.6583,-2.6598,-2.6552,-2.6423,-2.6133,-2.6089,-2.5937,-2.5636,-2.5913,-2.6333,-2.6919,-2.6918,-2.6625,-2.6028,-2.578,-2.5678,-2.5699,-2.5316,-2.5251,-2.5472,-2.5387,-2.5428,-2.5551,-2.5547,-2.5544,-2.5556,-2.559,-2.5546,-2.5482,-2.5556,-2.5415,-2.5149,-2.5158,-2.4948,-2.4601,-2.4491,-2.4512,-2.3948,-1.9915,-1.7284,-1.5074,-1.15,-0.5054,0.1756,0.4738,0.7524,0.9504,0.9047,0.8605,0.8367,0.8473,0.7413,0.6411,0.6626,0.6357,0.6037,0.5987,0.5952,0.5871,0.5571,0.5429,0.532,0.5171,0.0,0.4952,0.5011,0.5234,0.5238,0.4908,0.5407,0.5626,0.5187,0.5352,0.5462,0.5301,0.5297,0.5297,0.5297,0.5242,0.5183,0.5124,0.5128,0.5128,0.5124,0.5069,0.4959,0.4849,0.4794,0.4684,0.4519,0.4356,0.419,0.3965,0.391,0.3744,0.3522,0.3469,0.2794,0.1788,0.1285,0.0559,-0.028,-0.0785,-0.101,-0.1122,-2.4832,-2.4874,-2.4942,-2.5012,-2.503,-2.5111,-2.5341,-2.5397,-2.5451,-2.5553,-2.5577,-2.5576,-2.5595,-2.5604,-2.562,-2.5652,-2.5622,-2.562,-2.5663,-2.566,-2.584,-2.628,-2.6262,-2.5967,-2.5382,-2.5371,-2.5395,-2.5461,-2.5386,-2.5432,-2.5604,-2.5527,-2.5524,-2.556,-2.5558,-2.5541,-2.5527,-2.5473,-2.5434,-2.5406,-2.5364,-2.5187,-2.4936,-2.4924,-2.471,-2.4407,-2.4284,-2.4229,-2.3304,-1.7439,-1.4366,-1.2064,-0.6664,-0.1367,0.3498,0.6938,0.8249,0.839,0.7292,0.6957,0.6823,0.6855,0.6074,0.5255,0.5243,0.5003,0.4828,0.4931,0.4879,0.4842,0.4743,0.4663,0.4446,0.4239,0.4184,0.4187,0.4301,0.4577,0.4684,0.4522,0.5073,0.5297,0.4912,0.5132,0.5297,0.5297,0.5297,0.5297,0.5242,0.5242,0.5183,0.5014,0.5014,0.5014,0.4963,0.4901,0.4842,0.4791,0.4743,0.4577,0.4408,0.4249,0.4079,0.3796,0.3796,0.3633,0.3413,0.3357,0.2571,0.1342,0.1118,0.0336,-0.0617,-0.0842,-0.0954,-0.1066,-2.4673,-2.479,-2.4902,-2.4902,-2.491,-2.4937,-2.5069,-2.5154,-2.5264,-2.5473,-2.5506,-2.553,-2.5588,-2.5608,-2.5601,-2.561,-2.5595,-2.5598,-2.5598,-2.5592,-2.5605,-2.5609,-2.5545,-2.5506,-2.5504,-2.5626,-2.5672,-2.5605,-2.5663,-2.5652,-2.5593,-2.5535,-2.5493,-2.5496,-2.5437,-2.539,-2.5379,-2.5177,-2.513,-2.5176,-2.4892,-2.4733,-2.4591,-2.4522,-2.4407,-2.4266,-2.4152,-2.3941,-2.2919,-1.7545,-1.1871,-0.6181,-0.1198,0.3717,0.7616,0.7343,0.6864,0.6333,0.6053,0.5242,0.462,0.5232,0.4983,0.457,0.4434,0.4172,0.3968,0.3886,0.3519,0.3166,0.3111,0.297,0.3026,0.3516,0.3466,0.3413,0.3413,0.3747,0.4024,0.4024,0.4411,0.4857,0.5246,0.5297,0.5297,0.5297,0.5297,0.5242,0.5124,0.5124,0.5014,0.4897,0.4897,0.4846,0.4691,0.4846,0.4791,0.4519,0.4632,0.4525,0.4193,0.4193,0.4024,0.3796,0.3796,0.3633,0.3357,0.3188,0.2685,0.1902,0.1174,0.0503,-0.0056,-0.0673,-0.0898,-0.0898,-2.4464,-2.4513,-2.4578,-2.467,-2.4731,-2.4799,-2.4937,-2.4974,-2.5018,-2.5134,-2.5141,-2.5194,-2.5303,-2.5361,-2.5379,-2.5387,-2.5386,-2.5413,-2.5465,-2.5551,-2.5587,-2.5531,-2.5559,-2.5544,-2.5506,-2.5542,-2.5577,-2.5609,-2.5486,-2.5467,-2.5532,-2.5406,-2.5324,-2.5297,-2.5216,-2.5105,-2.4985,-2.4911,-2.4872,-2.4826,-2.461,-2.4457,-2.4385,-2.4316,-2.4229,-2.4135,-2.4114,-2.191,-1.8182,-1.2601,-0.7357,-0.2314,0.2731,0.5339,0.6416,0.6041,0.5987,0.5941,0.5169,0.4617,0.4357,0.4562,0.3994,0.3417,0.3419,0.3196,0.3048,0.3257,0.3064,0.285,0.2952,0.2858,0.2802,0.2968,0.2912,0.3023,0.3357,0.3747,0.4024,0.4024,0.4574,0.4963,0.4912,0.5073,0.5183,0.5297,0.5242,0.5128,0.5124,0.5014,0.4901,0.4743,0.4743,0.4684,0.4574,0.4684,0.4684,0.4519,0.4411,0.4249,0.4079,0.3965,0.3802,0.3635,0.3635,0.3469,0.3188,0.313,0.2347,0.1229,0.1006,0.028,-0.0673,-0.0842,-0.0898,-0.0898,-2.4057,-2.4096,-2.4154,-2.4229,-2.4372,-2.4508,-2.4637,-2.4762,-2.485,-2.4955,-2.4987,-2.503,-2.5118,-2.5152,-2.5192,-2.5209,-2.5226,-2.5247,-2.5277,-2.5388,-2.5415,-2.5369,-2.5428,-2.5454,-2.5496,-2.5496,-2.5486,-2.5434,-2.534,-2.5313,-2.5352,-2.5235,-2.5163,-2.5083,-2.4974,-2.4866,-2.4723,-2.4625,-2.4567,-2.4479,-2.4189,-2.4063,-2.4005,-2.3731,-2.3746,-2.3767,-2.2676,-2.1078,-1.8233,-1.0057,-0.3287,0.212,0.4627,0.5425,0.5324,0.4948,0.5179,0.5247,0.4189,0.3946,0.3894,0.3611,0.3257,0.2934,0.2901,0.2774,0.2677,0.2842,0.2768,0.2636,0.2617,0.2577,0.2465,0.2352,0.241,0.2633,0.3081,0.3411,0.3744,0.4024,0.4467,0.4798,0.4853,0.5014,0.5128,0.5242,0.5069,0.5014,0.5014,0.4904,0.4794,0.4691,0.4632,0.4522,0.4411,0.4467,0.4467,0.4356,0.4249,0.4079,0.391,0.3852,0.3744,0.3585,0.3585,0.3471,0.3188,0.313,0.2235,0.095,0.0894,0.0168,-0.0898,-0.0898,-0.0898,-0.0896,-2.3566,-2.3649,-2.3692,-2.3692,-2.3901,-2.4099,-2.4245,-2.4487,-2.4682,-2.4799,-2.4869,-2.4923,-2.4955,-2.4949,-2.4986,-2.5072,-2.5077,-2.5069,-2.508,-2.5141,-2.5171,-2.5171,-2.5171,-2.5236,-2.5413,-2.5456,-2.5363,-2.5168,-2.5224,-2.5168,-2.5061,-2.4981,-2.4898,-2.4818,-2.4678,-2.4567,-2.4503,-2.4284,-2.4155,-2.4062,-2.3678,-2.3544,-2.35,-2.293,-2.2951,-2.2964,-2.0381,-2.0559,-2.023,-0.8665,0.0,0.5782,0.4645,0.4262,0.4223,0.4064,0.4263,0.4299,0.3176,0.3147,0.3277,0.2534,0.2623,0.289,0.2736,0.2633,0.2558,0.2601,0.2566,0.2483,0.2227,0.2183,0.2127,0.1902,0.2071,0.2352,0.2747,0.3021,0.3466,0.4138,0.4249,0.4467,0.5014,0.5069,0.5069,0.5069,0.4956,0.4901,0.4901,0.4743,0.4688,0.4636,0.4522,0.4356,0.4193,0.4193,0.4193,0.4193,0.4193,0.4024,0.3796,0.3796,0.3688,0.3585,0.3585,0.3527,0.3357,0.3188,0.2291,0.1062,0.095,0.0168,-0.0898,-0.0898,-0.0898,-0.0894,-2.3477,-2.3544,-2.3566,-2.361,-2.3714,-2.3819,-2.3883,-2.408,-2.4174,-2.406,-2.4229,-2.4405,-2.4516,-2.4576,-2.4666,-2.4845,-2.4904,-2.493,-2.4937,-2.4955,-2.4967,-2.4968,-2.486,-2.4834,-2.4866,-2.5018,-2.5061,-2.4968,-2.4874,-2.4785,-2.4714,-2.4582,-2.4439,-2.4247,-2.4025,-2.3868,-2.3785,-2.3486,-2.3333,-2.3293,-2.3003,-2.3056,-2.3188,-2.2283,-2.153,-2.0766,-1.9421,-1.5935,-1.0799,-0.3301,0.0433,0.1943,0.2003,0.2115,0.2282,0.2514,0.3063,0.3324,0.2138,0.2093,0.2378,0.2155,0.2136,0.216,0.205,0.2102,0.2177,0.2033,0.2159,0.222,0.1956,0.2015,0.2184,0.2465,0.2577,0.28,0.3304,0.3747,0.4027,0.4193,0.4415,0.4688,0.4901,0.4956,0.4956,0.4956,0.4794,0.4743,0.4743,0.4629,0.4463,0.4304,0.4304,0.4193,0.4024,0.4024,0.4024,0.4024,0.391,0.3852,0.3796,0.3691,0.3638,0.3585,0.3585,0.3527,0.3357,0.3188,0.2291,0.1062,0.095,0.0168,-0.0898,-0.0898,-0.0898,-0.0894,-2.3049,-2.3146,-2.317,-2.3242,-2.3405,-2.3535,-2.3624,-2.3816,-2.3881,-2.3816,-2.3919,-2.4058,-2.4155,-2.4192,-2.4264,-2.4454,-2.4556,-2.4604,-2.4601,-2.4613,-2.4644,-2.4708,-2.4644,-2.4598,-2.4556,-2.4648,-2.4727,-2.476,-2.4586,-2.4472,-2.4403,-2.421,-2.4041,-2.3901,-2.3699,-2.3588,-2.3535,-2.3224,-2.308,-2.3025,-2.2582,-2.2493,-2.251,-2.1453,-2.0463,-1.9421,-1.7427,-1.2518,-0.6349,-0.2707,-0.0722,0.0223,0.0167,0.0167,0.0279,0.1229,0.188,0.2186,0.153,0.1672,0.1925,0.1741,0.1913,0.213,0.1853,0.1797,0.1807,0.1783,0.2071,0.224,0.1959,0.2183,0.241,0.2577,0.2689,0.2965,0.3522,0.3913,0.419,0.4301,0.4522,0.4632,0.4794,0.4794,0.4794,0.4794,0.4684,0.4577,0.447,0.4411,0.4301,0.4135,0.4079,0.4054,0.4005,0.4005,0.3978,0.3978,0.3857,0.3744,0.3691,0.3638,0.3585,0.3585,0.3585,0.3527,0.3357,0.3188,0.2291,0.1062,0.095,0.0168,-0.0898,-0.0898,-0.0888,-0.0875,-2.2508,-2.2642,-2.2721,-2.2799,-2.3035,-2.3253,-2.3371,-2.3535,-2.3667,-2.3689,-2.371,-2.3774,-2.3834,-2.3876,-2.3939,-2.4097,-2.421,-2.4284,-2.4284,-2.4284,-2.4321,-2.4444,-2.4373,-2.4301,-2.4265,-2.4229,-2.4301,-2.4543,-2.4316,-2.4192,-2.4097,-2.3824,-2.3635,-2.35,-2.3346,-2.323,-2.317,-2.2883,-2.2747,-2.266,-2.2079,-2.1803,-2.1579,-2.0338,-1.9316,-1.8101,-1.5223,-1.0246,-0.4927,-0.4061,-0.2452,-0.089,-0.1226,-0.1451,-0.1341,-0.0,0.0767,0.1232,0.1182,0.1392,0.1549,0.1234,0.1639,0.2057,0.1958,0.1847,0.1734,0.1902,0.224,0.241,0.2071,0.2408,0.2691,0.2633,0.291,0.3297,0.3683,0.3962,0.4187,0.4408,0.4463,0.4519,0.4632,0.4688,0.4632,0.4636,0.4543,0.4389,0.4228,0.4194,0.4151,0.4035,0.4035,0.4032,0.3963,0.3963,0.3954,0.387,0.3848,0.3741,0.3613,0.3613,0.3602,0.3585,0.3583,0.3527,0.3357,0.3132,0.2291,0.1062,0.095,0.0168,-0.0898,-0.0898,-0.0881,-0.0918,-2.1899,-2.2113,-2.2303,-2.2358,-2.2634,-2.2902,-2.3052,-2.3277,-2.3371,-2.3223,-2.3412,-2.3531,-2.3553,-2.3771,-2.3939,-2.4097,-2.4116,-2.4192,-2.4284,-2.419,-2.4134,-2.4154,-2.3821,-2.3674,-2.3717,-2.3486,-2.366,-2.4248,-2.4058,-2.386,-2.3692,-2.3468,-2.3105,-2.2643,-2.2395,-2.2158,-2.1927,-2.1612,-2.1477,-2.1507,-2.1007,-2.0685,-2.036,-1.8811,-1.7289,-1.5736,-1.369,-0.9957,-0.5833,-0.4769,-0.3735,-0.2907,-0.2462,-0.2235,-0.2066,-0.185,-0.0335,0.1222,0.1002,0.0981,0.0965,0.0608,0.0711,0.1243,0.2345,0.2581,0.2521,0.241,0.2521,0.2577,0.224,0.2465,0.2802,0.319,0.3699,0.4089,0.4353,0.4405,0.4408,0.4249,0.4249,0.4301,0.4519,0.4519,0.4463,0.4304,0.4355,0.4365,0.4201,0.4305,0.4309,0.4194,0.4194,0.4079,0.3909,0.3909,0.3917,0.3872,0.3901,0.3833,0.379,0.379,0.3735,0.3585,0.3471,0.3413,0.3357,0.3081,0.2183,0.1062,0.095,0.0168,-0.0898,-0.0898,-0.0895,-0.0892,-2.1751,-2.1899,-2.1998,-2.2068,-2.2169,-2.2298,-2.2419,-2.2669,-2.2832,-2.2773,-2.2985,-2.3151,-2.3271,-2.3458,-2.3576,-2.3646,-2.3792,-2.3834,-2.375,-2.3831,-2.3771,-2.3508,-2.3374,-2.3346,-2.3323,-2.3189,-2.3305,-2.3635,-2.3495,-2.3341,-2.3259,-2.3017,-2.2686,-2.2275,-2.2108,-2.1907,-2.1625,-2.1354,-2.1181,-2.1038,-2.0516,-1.9893,-1.9154,-1.7965,-1.6334,-1.4317,-1.1487,-0.8775,-0.6387,-0.5214,-0.4405,-0.3747,-0.3355,-0.3244,-0.319,-0.2637,-0.14,-0.0168,0.028,0.0499,0.0606,0.067,0.0665,0.1046,0.2404,0.2974,0.2974,0.2244,0.2465,0.2742,0.2521,0.2856,0.3304,0.3691,0.386,0.4082,0.4301,0.4245,0.419,0.4193,0.4301,0.4356,0.4356,0.4356,0.4281,0.4191,0.425,0.4256,0.4216,0.4273,0.418,0.4058,0.4058,0.403,0.4037,0.4037,0.4072,0.414,0.414,0.4039,0.3852,0.3842,0.3729,0.3566,0.3442,0.3302,0.3081,0.2972,0.2127,0.1006,0.095,0.0168,-0.0898,-0.0898,-0.0954,-0.101]}]]